Time,TemperatureF,DewpointF,PressureIn,WindDirection,WindDirectionDegrees,WindSpeedMPH,WindSpeedGustMPH,Humidity,HourlyPrecipIn,Conditions,Clouds,dailyrainin,SoftwareType,DateUTC
2013-06-03 00:00:00,77.9,76.4,29.94,SE,134,23.0,23.0,95,0.00,,OVC019,0.00,VWS V14.01,2013-06-03 04:00:00,
2013-06-03 00:01:00,77.9,76.4,29.94,SSE,151,19.0,19.0,95,0.00,,OVC019,0.00,VWS V14.01,2013-06-03 04:01:00,
2013-06-03 00:02:00,77.7,76.2,29.94,SSE,161,18.0,19.0,95,0.00,,BKN028,0.00,VWS V14.01,2013-06-03 04:02:00,
2013-06-03 00:03:00,77.7,76.2,29.94,SSE,157,19.0,19.0,95,0.00,,BKN028,0.00,VWS V14.01,2013-06-03 04:03:00,
2013-06-03 00:04:00,77.7,76.2,29.94,SSE,163,15.0,19.0,95,0.00,,BKN028,0.00,VWS V14.01,2013-06-03 04:04:00,
2013-06-03 00:05:00,77.7,76.2,29.94,SSE,155,14.0,19.0,95,0.00,,BKN028,0.00,VWS V14.01,2013-06-03 04:05:00,
2013-06-03 00:06:00,77.7,76.2,29.94,SSE,154,17.0,19.0,95,0.00,,OVC019,0.00,VWS V14.01,2013-06-03 04:06:00,
2013-06-03 00:07:00,77.7,76.2,29.94,SSE,154,14.0,19.0,95,0.00,,BKN028,0.00,VWS V14.01,2013-06-03 04:07:00,
2013-06-03 00:08:00,77.9,76.4,29.94,SSE,158,14.0,18.0,95,0.00,,BKN028,0.00,VWS V14.01,2013-06-03 04:08:00,
2013-06-03 00:09:00,77.9,76.4,29.94,SSE,158,15.0,16.0,95,0.00,,BKN028,0.00,VWS V14.01,2013-06-03 04:09:00,
2013-06-03 00:10:00,77.9,76.4,29.94,SSE,158,16.0,17.0,95,0.00,,BKN028,0.00,VWS V14.01,2013-06-03 04:10:00,
2013-06-03 00:11:00,77.7,76.2,29.94,SSE,154,17.0,17.0,95,0.00,,OVC019,0.00,VWS V14.01,2013-06-03 04:11:00,
2013-06-03 00:12:00,77.7,76.2,29.94,SSE,154,17.0,17.0,95,0.00,,BKN028,0.00,VWS V14.01,2013-06-03 04:12:00,
2013-06-03 00:13:00,77.7,76.2,29.95,SSE,151,18.0,19.0,95,0.00,,BKN028,0.00,VWS V14.01,2013-06-03 04:13:00,
2013-06-03 00:14:00,77.7,76.2,29.94,SSE,162,20.0,20.0,95,0.00,,BKN028,0.00,VWS V14.01,2013-06-03 04:14:00,
2013-06-03 00:15:00,77.7,76.2,29.94,SSE,157,17.0,20.0,95,0.00,,BKN028,0.00,VWS V14.01,2013-06-03 04:15:00,
2013-06-03 00:16:00,77.7,76.2,29.95,SSE,153,15.0,19.0,95,0.00,,OVC019,0.00,VWS V14.01,2013-06-03 04:16:00,
2013-06-03 00:17:00,77.7,76.2,29.95,SSE,153,15.0,19.0,95,0.00,,BKN028,0.00,VWS V14.01,2013-06-03 04:17:00,
2013-06-03 00:18:00,77.7,76.2,29.94,SSE,162,17.0,17.0,95,0.00,,BKN028,0.00,VWS V14.01,2013-06-03 04:18:00,
2013-06-03 00:19:00,77.7,76.2,29.94,SSE,158,16.0,20.0,95,0.00,,BKN028,0.00,VWS V14.01,2013-06-03 04:19:00,
2013-06-03 00:20:00,77.7,76.2,29.94,SSW,198,18.0,18.0,95,0.00,,BKN028,0.00,VWS V14.01,2013-06-03 04:20:00,
2013-06-03 00:21:00,77.7,76.2,29.94,SSE,163,19.0,19.0,95,0.00,,OVC019,0.00,VWS V14.01,2013-06-03 04:21:00,
2013-06-03 00:22:00,77.7,76.2,29.94,SSE,163,19.0,19.0,95,0.00,,BKN028,0.00,VWS V14.01,2013-06-03 04:22:00,
2013-06-03 00:23:00,77.7,76.2,29.94,SSE,162,17.0,19.0,95,0.00,,BKN028,0.00,VWS V14.01,2013-06-03 04:23:00,
2013-06-03 00:24:00,77.7,76.2,29.94,SSE,150,15.0,17.0,95,0.00,,BKN028,0.00,VWS V14.01,2013-06-03 04:24:00,
2013-06-03 00:25:00,77.9,76.4,29.94,SSE,153,12.0,18.0,95,0.00,,BKN028,0.00,VWS V14.01,2013-06-03 04:25:00,
2013-06-03 00:26:00,77.9,76.7,29.94,SSE,158,18.0,18.0,96,0.00,,OVC019,0.00,VWS V14.01,2013-06-03 04:26:00,
2013-06-03 00:27:00,77.9,76.7,29.94,SSE,158,18.0,18.0,96,0.00,,BKN028,0.00,VWS V14.01,2013-06-03 04:27:00,
2013-06-03 00:28:00,77.7,76.2,29.94,South,191,15.0,19.0,95,0.00,,BKN028,0.00,VWS V14.01,2013-06-03 04:28:00,
2013-06-03 00:29:00,77.7,76.2,29.94,SSE,153,16.0,18.0,95,0.00,,BKN028,0.00,VWS V14.01,2013-06-03 04:29:00,
2013-06-03 00:30:00,77.7,76.2,29.94,SSE,168,17.0,17.0,95,0.00,,BKN028,0.00,VWS V14.01,2013-06-03 04:30:00,
2013-06-03 00:31:00,77.7,76.2,29.94,South,172,12.0,17.0,95,0.00,,OVC019,0.00,VWS V14.01,2013-06-03 04:31:00,
2013-06-03 00:32:00,77.7,76.2,29.94,South,183,18.0,18.0,95,0.00,,BKN028,0.00,VWS V14.01,2013-06-03 04:32:00,
2013-06-03 00:33:00,77.7,76.2,29.94,SSE,157,10.0,18.0,95,0.00,,BKN028,0.00,VWS V14.01,2013-06-03 04:33:00,
2013-06-03 00:34:00,77.7,76.5,29.94,SSE,159,14.0,17.0,96,0.00,,BKN028,0.00,VWS V14.01,2013-06-03 04:34:00,
2013-06-03 00:35:00,77.7,76.5,29.94,SSE,153,15.0,15.0,96,0.00,,BKN028,0.00,VWS V14.01,2013-06-03 04:35:00,
2013-06-03 00:36:00,77.7,76.2,29.94,SSE,157,15.0,19.0,95,0.00,,OVC019,0.00,VWS V14.01,2013-06-03 04:36:00,
2013-06-03 00:37:00,77.7,76.2,29.94,SSE,157,15.0,19.0,95,0.00,,BKN028,0.00,VWS V14.01,2013-06-03 04:37:00,
2013-06-03 00:38:00,77.7,76.2,29.94,SSE,166,15.0,20.0,95,0.00,,BKN028,0.00,VWS V14.01,2013-06-03 04:38:00,
2013-06-03 00:39:00,77.7,76.5,29.94,SSE,165,15.0,18.0,96,0.00,,BKN028,0.00,VWS V14.01,2013-06-03 04:39:00,
2013-06-03 00:40:00,77.7,76.2,29.94,South,170,14.0,17.0,95,0.00,,BKN028,0.00,VWS V14.01,2013-06-03 04:40:00,
2013-06-03 00:41:00,77.7,76.2,29.94,SSE,156,15.0,17.0,95,0.00,,BKN032,0.00,VWS V14.01,2013-06-03 04:41:00,
2013-06-03 00:42:00,77.7,76.2,29.94,SSE,155,17.0,17.0,95,0.00,,BKN028,0.00,VWS V14.01,2013-06-03 04:42:00,
2013-06-03 00:43:00,77.7,76.2,29.94,South,171,16.0,17.0,95,0.00,,BKN028,0.00,VWS V14.01,2013-06-03 04:43:00,
2013-06-03 00:44:00,77.7,76.2,29.94,SSE,147,14.0,16.0,95,0.00,,BKN028,0.00,VWS V14.01,2013-06-03 04:44:00,
2013-06-03 00:45:00,77.7,76.5,29.93,SSE,158,18.0,18.0,96,0.00,,BKN028,0.00,VWS V14.01,2013-06-03 04:45:00,
2013-06-03 00:46:00,77.7,76.5,29.93,SSE,152,17.0,17.0,96,0.00,,BKN032,0.00,VWS V14.01,2013-06-03 04:46:00,
2013-06-03 00:47:00,77.7,76.5,29.93,SSE,150,16.0,18.0,96,0.00,,BKN028,0.00,VWS V14.01,2013-06-03 04:47:00,
2013-06-03 00:48:00,77.7,76.2,29.93,SSE,152,17.0,17.0,95,0.00,,BKN028,0.00,VWS V14.01,2013-06-03 04:48:00,
2013-06-03 00:49:00,77.7,76.2,29.93,SSE,150,13.0,17.0,95,0.00,,BKN028,0.00,VWS V14.01,2013-06-03 04:49:00,
2013-06-03 00:50:00,77.7,76.2,29.93,SSE,164,15.0,16.0,95,0.00,,BKN028,0.00,VWS V14.01,2013-06-03 04:50:00,
2013-06-03 00:51:00,77.7,76.5,29.93,South,175,13.0,15.0,96,0.00,,BKN032,0.00,VWS V14.01,2013-06-03 04:51:00,
2013-06-03 00:52:00,77.7,76.5,29.93,SSE,164,15.0,16.0,96,0.00,,BKN028,0.00,VWS V14.01,2013-06-03 04:52:00,
2013-06-03 00:53:00,77.7,77.7,29.93,SSE,163,14.0,15.0,100,0.00,,BKN028,0.00,VWS V14.01,2013-06-03 04:53:00,
2013-06-03 00:54:00,77.7,77.7,29.93,SSE,161,15.0,16.0,100,0.00,,BKN028,0.00,VWS V14.01,2013-06-03 04:54:00,
2013-06-03 00:55:00,77.9,76.7,29.93,SSE,158,13.0,15.0,96,0.00,,BKN028,0.00,VWS V14.01,2013-06-03 04:55:00,
2013-06-03 00:56:00,77.7,76.2,29.93,SSE,167,15.0,16.0,95,0.00,,BKN032,0.00,VWS V14.01,2013-06-03 04:56:00,
2013-06-03 00:57:00,77.7,76.2,29.93,SSE,159,16.0,16.0,95,0.00,,BKN028,0.00,VWS V14.01,2013-06-03 04:57:00,
2013-06-03 00:58:00,77.7,76.2,29.93,SSE,153,20.0,20.0,95,0.00,,BKN028,0.00,VWS V14.01,2013-06-03 04:58:00,
2013-06-03 00:59:00,77.7,76.5,29.93,SSE,148,15.0,20.0,96,0.00,,BKN028,0.00,VWS V14.01,2013-06-03 04:59:00,
2013-06-03 01:00:00,77.7,76.5,29.93,SSE,167,16.0,19.0,96,0.00,,BKN028,0.00,VWS V14.01,2013-06-03 05:00:00,
2013-06-03 01:01:00,77.7,76.2,29.93,SSE,148,17.0,17.0,95,0.00,,BKN032,0.00,VWS V14.01,2013-06-03 05:01:00,
2013-06-03 01:02:00,77.7,76.5,29.93,SE,144,17.0,18.0,96,0.00,,BKN028,0.00,VWS V14.01,2013-06-03 05:02:00,
2013-06-03 01:03:00,77.7,76.2,29.93,SSE,152,11.0,18.0,95,0.00,,BKN028,0.00,VWS V14.01,2013-06-03 05:03:00,
2013-06-03 01:04:00,77.7,76.5,29.93,SSE,165,16.0,18.0,96,0.00,,BKN028,0.00,VWS V14.01,2013-06-03 05:04:00,
2013-06-03 01:05:00,77.7,76.5,29.93,SSE,153,15.0,16.0,96,0.00,,BKN028,0.00,VWS V14.01,2013-06-03 05:05:00,
2013-06-03 01:06:00,77.6,76.4,29.93,SSE,153,15.0,19.0,96,0.00,,BKN032,0.00,VWS V14.01,2013-06-03 05:06:00,
2013-06-03 01:07:00,77.6,76.4,29.93,SSE,150,17.0,19.0,96,0.00,,BKN028,0.00,VWS V14.01,2013-06-03 05:07:00,
2013-06-03 01:08:00,77.6,76.4,29.93,SSE,163,12.0,19.0,96,0.00,,BKN028,0.00,VWS V14.01,2013-06-03 05:08:00,
2013-06-03 01:09:00,77.6,76.4,29.93,SSE,162,14.0,15.0,96,0.00,,BKN028,0.00,VWS V14.01,2013-06-03 05:09:00,
2013-06-03 01:10:00,77.6,76.4,29.93,SSE,157,14.0,16.0,96,0.00,,BKN028,0.00,VWS V14.01,2013-06-03 05:10:00,
2013-06-03 01:11:00,77.6,76.4,29.93,SSE,157,15.0,15.0,96,0.00,,BKN032,0.00,VWS V14.01,2013-06-03 05:11:00,
2013-06-03 01:12:00,77.6,76.4,29.93,South,180,12.0,13.0,96,0.00,,BKN028,0.00,VWS V14.01,2013-06-03 05:12:00,
2013-06-03 01:13:00,77.6,76.4,29.93,SSE,150,11.0,15.0,96,0.00,,BKN028,0.00,VWS V14.01,2013-06-03 05:13:00,
2013-06-03 01:14:00,77.6,76.4,29.93,SSE,155,13.0,15.0,96,0.00,,BKN028,0.00,VWS V14.01,2013-06-03 05:14:00,
2013-06-03 01:15:00,77.6,76.4,29.93,South,171,10.0,14.0,96,0.00,,BKN028,0.00,VWS V14.01,2013-06-03 05:15:00,
2013-06-03 01:16:00,77.6,76.4,29.93,South,169,12.0,13.0,96,0.00,,BKN032,0.00,VWS V14.01,2013-06-03 05:16:00,
2013-06-03 01:17:00,77.6,76.4,29.93,South,177,13.0,14.0,96,0.00,,BKN028,0.00,VWS V14.01,2013-06-03 05:17:00,
2013-06-03 01:18:00,77.6,76.4,29.93,SSE,157,14.0,14.0,96,0.00,,BKN028,0.00,VWS V14.01,2013-06-03 05:18:00,
2013-06-03 01:19:00,77.6,76.4,29.93,South,188,10.0,14.0,96,0.00,,BKN028,0.00,VWS V14.01,2013-06-03 05:19:00,
2013-06-03 01:20:00,77.6,76.4,29.93,SSE,162,17.0,17.0,96,0.00,,BKN028,0.00,VWS V14.01,2013-06-03 05:20:00,
2013-06-03 01:21:00,77.6,76.4,29.92,SSE,153,12.0,13.0,96,0.00,,BKN032,0.00,VWS V14.01,2013-06-03 05:21:00,
2013-06-03 01:22:00,77.6,76.4,29.92,SSE,150,13.0,17.0,96,0.00,,BKN028,0.00,VWS V14.01,2013-06-03 05:22:00,
2013-06-03 01:23:00,77.6,76.4,29.92,SSE,167,13.0,15.0,96,0.00,,BKN028,0.00,VWS V14.01,2013-06-03 05:23:00,
2013-06-03 01:24:00,77.6,76.4,29.92,SSE,161,10.0,14.0,96,0.00,,BKN028,0.00,VWS V14.01,2013-06-03 05:24:00,
2013-06-03 01:25:00,77.6,76.4,29.92,SSE,153,11.0,16.0,96,0.00,,BKN028,0.00,VWS V14.01,2013-06-03 05:25:00,
2013-06-03 01:26:00,77.6,76.4,29.92,SSE,158,13.0,15.0,96,0.00,,BKN032,0.00,VWS V14.01,2013-06-03 05:26:00,
2013-06-03 01:27:00,77.6,76.4,29.92,SSE,152,15.0,16.0,96,0.00,,BKN028,0.00,VWS V14.01,2013-06-03 05:27:00,
2013-06-03 01:28:00,77.6,76.4,29.92,SSE,157,12.0,15.0,96,0.00,,BKN028,0.00,VWS V14.01,2013-06-03 05:28:00,
2013-06-03 01:29:00,77.6,76.4,29.92,SSE,153,15.0,15.0,96,0.00,,BKN028,0.00,VWS V14.01,2013-06-03 05:29:00,
2013-06-03 01:30:00,77.6,76.4,29.92,South,175,15.0,15.0,96,0.00,,BKN028,0.00,VWS V14.01,2013-06-03 05:30:00,
2013-06-03 01:31:00,77.6,76.4,29.92,SSE,156,15.0,15.0,96,0.00,,BKN032,0.00,VWS V14.01,2013-06-03 05:31:00,
2013-06-03 01:32:00,77.6,76.4,29.92,South,170,14.0,15.0,96,0.00,,BKN028,0.00,VWS V14.01,2013-06-03 05:32:00,
2013-06-03 01:33:00,77.6,76.4,29.92,SSE,164,14.0,15.0,96,0.00,,BKN028,0.00,VWS V14.01,2013-06-03 05:33:00,
2013-06-03 01:34:00,77.6,76.4,29.92,South,178,12.0,14.0,96,0.00,,BKN028,0.00,VWS V14.01,2013-06-03 05:34:00,
2013-06-03 01:35:00,77.6,76.4,29.92,SSE,149,13.0,13.0,96,0.00,,BKN028,0.00,VWS V14.01,2013-06-03 05:35:00,
2013-06-03 01:36:00,77.6,76.4,29.92,SSE,151,16.0,16.0,96,0.00,,BKN032,0.00,VWS V14.01,2013-06-03 05:36:00,
2013-06-03 01:37:00,77.6,76.4,29.92,SSE,167,13.0,17.0,96,0.00,,BKN028,0.00,VWS V14.01,2013-06-03 05:37:00,
2013-06-03 01:38:00,77.6,76.1,29.93,SSE,167,11.0,16.0,95,0.00,,BKN028,0.00,VWS V14.01,2013-06-03 05:38:00,
2013-06-03 01:39:00,77.6,76.4,29.92,SSE,167,13.0,13.0,96,0.00,,BKN028,0.00,VWS V14.01,2013-06-03 05:39:00,
2013-06-03 01:40:00,77.4,76.2,29.92,SSE,165,15.0,15.0,96,0.00,,BKN028,0.00,VWS V14.01,2013-06-03 05:40:00,
2013-06-03 01:41:00,77.4,76.2,29.92,South,173,13.0,13.0,96,0.00,,FEW017,0.00,VWS V14.01,2013-06-03 05:41:00,
2013-06-03 01:42:00,77.4,76.2,29.92,SSE,160,13.0,13.0,96,0.00,,BKN028,0.00,VWS V14.01,2013-06-03 05:42:00,
2013-06-03 01:43:00,77.6,76.4,29.92,SSE,166,14.0,14.0,96,0.00,,BKN028,0.00,VWS V14.01,2013-06-03 05:43:00,
2013-06-03 01:44:00,77.6,76.4,29.92,SSW,194,15.0,15.0,96,0.00,,BKN028,0.00,VWS V14.01,2013-06-03 05:44:00,
2013-06-03 01:45:00,77.6,76.4,29.92,SSE,163,13.0,15.0,96,0.00,,BKN028,0.00,VWS V14.01,2013-06-03 05:45:00,
2013-06-03 01:46:00,77.4,75.9,29.92,SSE,159,11.0,14.0,95,0.00,,FEW017,0.00,VWS V14.01,2013-06-03 05:46:00,
2013-06-03 01:47:00,77.4,75.9,29.92,South,178,14.0,18.0,95,0.00,,BKN028,0.00,VWS V14.01,2013-06-03 05:47:00,
2013-06-03 01:48:00,77.4,75.9,29.92,SSE,161,13.0,14.0,95,0.00,,BKN028,0.00,VWS V14.01,2013-06-03 05:48:00,
2013-06-03 01:49:00,77.4,76.2,29.92,South,169,13.0,13.0,96,0.00,,BKN028,0.00,VWS V14.01,2013-06-03 05:49:00,
2013-06-03 01:50:00,77.6,76.4,29.92,SSE,151,11.0,14.0,96,0.00,,BKN028,0.00,VWS V14.01,2013-06-03 05:50:00,
2013-06-03 01:51:00,77.6,76.4,29.93,South,181,16.0,16.0,96,0.00,,BKN028,0.00,VWS V14.01,2013-06-03 05:51:00,
2013-06-03 01:52:00,77.6,76.4,29.93,SSE,162,13.0,13.0,96,0.00,,FEW017,0.00,VWS V14.01,2013-06-03 05:52:00,
2013-06-03 01:53:00,77.6,76.1,29.93,SSE,156,12.0,13.0,95,0.00,,BKN028,0.00,VWS V14.01,2013-06-03 05:53:00,
2013-06-03 01:54:00,77.6,76.4,29.93,South,171,10.0,12.0,96,0.00,,BKN028,0.00,VWS V14.01,2013-06-03 05:54:00,
2013-06-03 01:55:00,77.7,76.5,29.93,South,173,9.0,12.0,96,0.00,,BKN028,0.00,VWS V14.01,2013-06-03 05:55:00,
2013-06-03 01:56:00,77.6,76.1,29.92,South,173,11.0,13.0,95,0.00,,FEW017,0.00,VWS V14.01,2013-06-03 05:56:00,
2013-06-03 01:57:00,77.6,76.4,29.92,SSE,157,13.0,13.0,96,0.00,,BKN028,0.00,VWS V14.01,2013-06-03 05:57:00,
2013-06-03 01:58:00,77.6,76.1,29.92,SSE,159,13.0,14.0,95,0.00,,BKN028,0.00,VWS V14.01,2013-06-03 05:58:00,
2013-06-03 01:59:00,77.6,76.1,29.92,SSE,165,15.0,15.0,95,0.00,,BKN028,0.00,VWS V14.01,2013-06-03 05:59:00,
2013-06-03 02:00:00,77.6,76.1,29.93,SSE,154,12.0,15.0,95,0.00,,BKN028,0.00,VWS V14.01,2013-06-03 06:00:00,
2013-06-03 02:01:00,77.6,76.4,29.93,SSE,154,12.0,13.0,96,0.00,,FEW017,0.00,VWS V14.01,2013-06-03 06:01:00,
2013-06-03 02:02:00,77.6,76.4,29.93,SSE,160,13.0,13.0,96,0.00,,BKN028,0.00,VWS V14.01,2013-06-03 06:02:00,
2013-06-03 02:03:00,77.7,76.5,29.93,SSE,147,13.0,16.0,96,0.00,,BKN028,0.00,VWS V14.01,2013-06-03 06:03:00,
2013-06-03 02:04:00,77.7,76.5,29.93,SSE,160,11.0,14.0,96,0.00,,BKN028,0.00,VWS V14.01,2013-06-03 06:04:00,
2013-06-03 02:05:00,77.7,76.5,29.92,SSE,157,14.0,14.0,96,0.00,,BKN028,0.00,VWS V14.01,2013-06-03 06:05:00,
2013-06-03 02:06:00,77.7,76.5,29.92,South,170,12.0,14.0,96,0.00,,BKN028,0.00,VWS V14.01,2013-06-03 06:06:00,
2013-06-03 02:07:00,77.6,76.4,29.92,South,169,15.0,15.0,96,0.00,,FEW017,0.00,VWS V14.01,2013-06-03 06:07:00,
2013-06-03 02:08:00,77.6,76.4,29.92,SSE,165,12.0,15.0,96,0.00,,BKN028,0.00,VWS V14.01,2013-06-03 06:08:00,
2013-06-03 02:09:00,77.6,76.4,29.93,SSE,148,11.0,13.0,96,0.00,,BKN028,0.00,VWS V14.01,2013-06-03 06:09:00,
2013-06-03 02:10:00,77.6,76.4,29.92,SSE,154,13.0,13.0,96,0.00,,BKN028,0.00,VWS V14.01,2013-06-03 06:10:00,
2013-06-03 02:11:00,77.6,76.4,29.93,South,174,13.0,14.0,96,0.00,,FEW017,0.00,VWS V14.01,2013-06-03 06:11:00,
2013-06-03 02:12:00,77.6,76.4,29.93,SSE,159,14.0,14.0,96,0.00,,BKN028,0.00,VWS V14.01,2013-06-03 06:12:00,
2013-06-03 02:13:00,77.6,76.4,29.93,South,173,11.0,14.0,96,0.00,,BKN028,0.00,VWS V14.01,2013-06-03 06:13:00,
2013-06-03 02:14:00,77.6,76.4,29.93,South,182,12.0,13.0,96,0.00,,BKN028,0.00,VWS V14.01,2013-06-03 06:14:00,
2013-06-03 02:15:00,77.6,76.4,29.93,SSE,165,14.0,15.0,96,0.00,,BKN028,0.00,VWS V14.01,2013-06-03 06:15:00,
2013-06-03 02:16:00,77.6,76.4,29.92,SE,143,15.0,15.0,96,0.00,,FEW017,0.00,VWS V14.01,2013-06-03 06:16:00,
2013-06-03 02:17:00,77.6,76.4,29.93,SSE,160,12.0,12.0,96,0.00,,BKN028,0.00,VWS V14.01,2013-06-03 06:17:00,
2013-06-03 02:18:00,77.7,76.5,29.92,SSE,158,13.0,15.0,96,0.00,,BKN028,0.00,VWS V14.01,2013-06-03 06:18:00,
2013-06-03 02:19:00,77.7,76.5,29.92,SSE,155,10.0,14.0,96,0.00,,BKN028,0.00,VWS V14.01,2013-06-03 06:19:00,
2013-06-03 02:20:00,77.7,76.5,29.92,South,169,13.0,13.0,96,0.00,,BKN028,0.00,VWS V14.01,2013-06-03 06:20:00,
2013-06-03 02:21:00,77.7,76.5,29.92,SSE,147,14.0,17.0,96,0.00,,FEW017,0.00,VWS V14.01,2013-06-03 06:21:00,
2013-06-03 02:22:00,77.7,76.5,29.92,SSE,166,12.0,16.0,96,0.00,,BKN028,0.00,VWS V14.01,2013-06-03 06:22:00,
2013-06-03 02:23:00,77.7,76.5,29.92,SSE,152,16.0,17.0,96,0.00,,BKN028,0.00,VWS V14.01,2013-06-03 06:23:00,
2013-06-03 02:24:00,77.6,76.4,29.92,SSE,155,16.0,16.0,96,0.00,,BKN028,0.00,VWS V14.01,2013-06-03 06:24:00,
2013-06-03 02:25:00,77.7,76.5,29.92,SSE,164,12.0,16.0,96,0.00,,BKN028,0.00,VWS V14.01,2013-06-03 06:25:00,
2013-06-03 02:26:00,77.7,76.5,29.92,SSE,158,11.0,13.0,96,0.00,,FEW017,0.00,VWS V14.01,2013-06-03 06:26:00,
2013-06-03 02:27:00,77.7,76.5,29.92,SSE,158,13.0,15.0,96,0.00,,BKN028,0.00,VWS V14.01,2013-06-03 06:27:00,
2013-06-03 02:28:00,77.7,76.5,29.92,SSE,155,13.0,13.0,96,0.00,,BKN028,0.00,VWS V14.01,2013-06-03 06:28:00,
2013-06-03 02:29:00,77.7,76.5,29.92,SSE,165,13.0,16.0,96,0.00,,BKN028,0.00,VWS V14.01,2013-06-03 06:29:00,
2013-06-03 02:30:00,77.7,76.5,29.92,SSE,156,16.0,16.0,96,0.00,,BKN028,0.00,VWS V14.01,2013-06-03 06:30:00,
2013-06-03 02:31:00,77.7,76.5,29.92,SSE,150,14.0,14.0,96,0.00,,FEW017,0.00,VWS V14.01,2013-06-03 06:31:00,
2013-06-03 02:32:00,77.7,76.5,29.92,SSE,150,12.0,14.0,96,0.00,,BKN028,0.00,VWS V14.01,2013-06-03 06:32:00,
2013-06-03 02:33:00,77.7,76.8,29.92,SSE,148,14.0,16.0,97,0.00,,BKN028,0.00,VWS V14.01,2013-06-03 06:33:00,
2013-06-03 02:34:00,77.6,76.4,29.92,SSE,155,17.0,18.0,96,0.00,,BKN028,0.00,VWS V14.01,2013-06-03 06:34:00,
2013-06-03 02:35:00,77.6,76.4,29.92,SSE,154,14.0,17.0,96,0.00,,BKN028,0.00,VWS V14.01,2013-06-03 06:35:00,
2013-06-03 02:36:00,77.6,76.4,29.92,SSE,165,12.0,14.0,96,0.00,,BKN028,0.00,VWS V14.01,2013-06-03 06:36:00,
2013-06-03 02:37:00,77.6,76.4,29.92,South,180,13.0,13.0,96,0.00,,FEW017,0.00,VWS V14.01,2013-06-03 06:37:00,
2013-06-03 02:38:00,77.7,76.8,29.92,South,169,15.0,15.0,97,0.00,,BKN028,0.00,VWS V14.01,2013-06-03 06:38:00,
2013-06-03 02:39:00,77.7,76.5,29.92,SSE,152,15.0,15.0,96,0.00,,BKN028,0.00,VWS V14.01,2013-06-03 06:39:00,
2013-06-03 02:40:00,77.7,76.8,29.92,SSE,167,13.0,16.0,97,0.00,,BKN028,0.00,VWS V14.01,2013-06-03 06:40:00,
2013-06-03 02:41:00,77.7,76.8,29.92,SSE,148,13.0,13.0,97,0.00,,BKN028,0.00,VWS V14.01,2013-06-03 06:41:00,
2013-06-03 02:42:00,77.7,76.8,29.92,SSE,153,14.0,14.0,97,0.00,,FEW018,0.00,VWS V14.01,2013-06-03 06:42:00,
2013-06-03 02:43:00,77.7,76.8,29.92,South,172,14.0,14.0,97,0.00,,BKN028,0.00,VWS V14.01,2013-06-03 06:43:00,
2013-06-03 02:44:00,77.7,76.5,29.92,SSE,153,14.0,16.0,96,0.00,,BKN028,0.00,VWS V14.01,2013-06-03 06:44:00,
2013-06-03 02:45:00,77.7,76.8,29.92,SSE,153,13.0,14.0,97,0.00,,BKN028,0.00,VWS V14.01,2013-06-03 06:45:00,
2013-06-03 02:46:00,77.7,76.8,29.92,SSE,167,13.0,13.0,97,0.00,,BKN028,0.00,VWS V14.01,2013-06-03 06:46:00,
2013-06-03 02:47:00,77.7,76.8,29.92,SSE,166,11.0,11.0,97,0.00,,FEW018,0.00,VWS V14.01,2013-06-03 06:47:00,
2013-06-03 02:48:00,77.7,76.8,29.92,SE,142,12.0,12.0,97,0.00,,BKN028,0.00,VWS V14.01,2013-06-03 06:48:00,
2013-06-03 02:49:00,77.7,76.8,29.92,SSE,158,11.0,14.0,97,0.00,,BKN028,0.00,VWS V14.01,2013-06-03 06:49:00,
2013-06-03 02:50:00,77.7,76.8,29.92,SSE,157,10.0,13.0,97,0.00,,BKN028,0.00,VWS V14.01,2013-06-03 06:50:00,
2013-06-03 02:51:00,77.7,76.8,29.91,SSE,161,10.0,12.0,97,0.00,,BKN028,0.00,VWS V14.01,2013-06-03 06:51:00,
2013-06-03 02:52:00,77.7,76.8,29.92,SSE,159,13.0,13.0,97,0.00,,FEW018,0.00,VWS V14.01,2013-06-03 06:52:00,
2013-06-03 02:53:00,77.7,76.8,29.91,SSE,159,10.0,13.0,97,0.00,,BKN028,0.00,VWS V14.01,2013-06-03 06:53:00,
2013-06-03 02:54:00,77.7,76.8,29.91,SSE,150,13.0,14.0,97,0.00,,BKN028,0.00,VWS V14.01,2013-06-03 06:54:00,
2013-06-03 02:55:00,77.7,76.8,29.92,SSE,156,13.0,13.0,97,0.00,,BKN028,0.00,VWS V14.01,2013-06-03 06:55:00,
2013-06-03 02:56:00,77.7,76.8,29.92,South,186,12.0,15.0,97,0.00,,BKN028,0.00,VWS V14.01,2013-06-03 06:56:00,
2013-06-03 02:57:00,77.6,76.7,29.91,South,180,13.0,13.0,97,0.00,,FEW018,0.00,VWS V14.01,2013-06-03 06:57:00,
2013-06-03 02:58:00,77.6,76.7,29.91,SSE,151,12.0,13.0,97,0.00,,BKN028,0.00,VWS V14.01,2013-06-03 06:58:00,
2013-06-03 02:59:00,77.6,76.7,29.91,SSE,165,12.0,12.0,97,0.00,,BKN028,0.00,VWS V14.01,2013-06-03 06:59:00,
2013-06-03 03:00:00,77.6,76.7,29.91,South,170,13.0,13.0,97,0.00,,BKN028,0.00,VWS V14.01,2013-06-03 07:00:00,
2013-06-03 03:01:00,77.6,76.7,29.91,South,182,7.0,13.0,97,0.00,,BKN028,0.00,VWS V14.01,2013-06-03 07:01:00,
2013-06-03 03:02:00,77.7,76.8,29.92,South,180,9.0,10.0,97,0.00,,FEW018,0.00,VWS V14.01,2013-06-03 07:02:00,
2013-06-03 03:03:00,77.7,76.8,29.92,SSE,166,15.0,15.0,97,0.00,,BKN028,0.00,VWS V14.01,2013-06-03 07:03:00,
2013-06-03 03:04:00,77.6,76.7,29.92,SSE,164,11.0,15.0,97,0.00,,BKN028,0.00,VWS V14.01,2013-06-03 07:04:00,
2013-06-03 03:05:00,77.6,76.7,29.91,SSE,163,13.0,13.0,97,0.00,,BKN028,0.00,VWS V14.01,2013-06-03 07:05:00,
2013-06-03 03:06:00,77.6,76.7,29.91,SSE,168,12.0,13.0,97,0.00,,BKN028,0.00,VWS V14.01,2013-06-03 07:06:00,
2013-06-03 03:07:00,77.6,76.7,29.91,SSE,161,10.0,12.0,97,0.00,,FEW018,0.00,VWS V14.01,2013-06-03 07:07:00,
2013-06-03 03:08:00,77.6,76.7,29.91,SSE,157,9.0,12.0,97,0.00,,BKN028,0.00,VWS V14.01,2013-06-03 07:08:00,
2013-06-03 03:09:00,77.6,76.7,29.91,South,179,9.0,12.0,97,0.00,,BKN028,0.00,VWS V14.01,2013-06-03 07:09:00,
2013-06-03 03:10:00,77.7,76.8,29.91,SSW,194,10.0,11.0,97,0.00,,BKN028,0.00,VWS V14.01,2013-06-03 07:10:00,
2013-06-03 03:11:00,77.7,76.8,29.91,South,177,11.0,13.0,97,0.00,,BKN028,0.00,VWS V14.01,2013-06-03 07:11:00,
2013-06-03 03:12:00,77.6,76.7,29.91,SSE,161,13.0,13.0,97,0.00,,FEW018,0.00,VWS V14.01,2013-06-03 07:12:00,
2013-06-03 03:13:00,77.6,76.7,29.91,SSE,167,13.0,13.0,97,0.00,,BKN028,0.00,VWS V14.01,2013-06-03 07:13:00,
2013-06-03 03:14:00,77.6,76.7,29.91,SSE,153,14.0,14.0,97,0.00,,BKN028,0.00,VWS V14.01,2013-06-03 07:14:00,
2013-06-03 03:15:00,77.6,76.7,29.91,South,169,10.0,14.0,97,0.00,,BKN028,0.00,VWS V14.01,2013-06-03 07:15:00,
2013-06-03 03:16:00,77.6,76.7,29.91,SSE,159,11.0,13.0,97,0.00,,BKN028,0.00,VWS V14.01,2013-06-03 07:16:00,
2013-06-03 03:17:00,77.7,77.1,29.91,SSE,163,11.0,12.0,98,0.00,,FEW018,0.00,VWS V14.01,2013-06-03 07:17:00,
2013-06-03 03:18:00,77.7,77.1,29.91,SSE,159,11.0,12.0,98,0.00,,BKN028,0.00,VWS V14.01,2013-06-03 07:18:00,
2013-06-03 03:19:00,77.6,76.7,29.91,South,171,12.0,14.0,97,0.00,,BKN028,0.00,VWS V14.01,2013-06-03 07:19:00,
2013-06-03 03:20:00,77.6,76.7,29.91,SSE,165,13.0,14.0,97,0.00,,BKN028,0.00,VWS V14.01,2013-06-03 07:20:00,
2013-06-03 03:21:00,77.6,76.7,29.91,South,169,11.0,13.0,97,0.00,,BKN028,0.00,VWS V14.01,2013-06-03 07:21:00,
2013-06-03 03:22:00,77.6,77.0,29.91,South,171,11.0,11.0,98,0.00,,FEW018,0.00,VWS V14.01,2013-06-03 07:22:00,
2013-06-03 03:23:00,77.6,77.0,29.91,SSE,162,12.0,12.0,98,0.00,,BKN028,0.00,VWS V14.01,2013-06-03 07:23:00,
2013-06-03 03:24:00,77.7,77.1,29.91,SSE,165,11.0,12.0,98,0.00,,BKN028,0.00,VWS V14.01,2013-06-03 07:24:00,
2013-06-03 03:25:00,77.6,77.0,29.91,South,170,13.0,14.0,98,0.00,,BKN028,0.00,VWS V14.01,2013-06-03 07:25:00,
2013-06-03 03:26:00,77.6,76.7,29.91,South,171,12.0,14.0,97,0.00,,BKN028,0.00,VWS V14.01,2013-06-03 07:26:00,
2013-06-03 03:27:00,77.6,77.0,29.91,SSE,163,11.0,11.0,98,0.00,,FEW018,0.00,VWS V14.01,2013-06-03 07:27:00,
2013-06-03 03:28:00,77.6,77.0,29.91,South,172,12.0,13.0,98,0.00,,BKN028,0.00,VWS V14.01,2013-06-03 07:28:00,
2013-06-03 03:29:00,77.6,77.0,29.91,South,173,11.0,14.0,98,0.00,,BKN028,0.00,VWS V14.01,2013-06-03 07:29:00,
2013-06-03 03:30:00,77.6,77.0,29.90,SSE,157,11.0,13.0,98,0.00,,BKN028,0.00,VWS V14.01,2013-06-03 07:30:00,
2013-06-03 03:31:00,77.6,77.0,29.90,SSW,196,11.0,11.0,98,0.00,,BKN028,0.00,VWS V14.01,2013-06-03 07:31:00,
2013-06-03 03:32:00,77.6,77.0,29.90,SSE,166,12.0,12.0,98,0.00,,FEW018,0.00,VWS V14.01,2013-06-03 07:32:00,
2013-06-03 03:33:00,77.6,77.0,29.90,South,175,12.0,12.0,98,0.00,,BKN028,0.00,VWS V14.01,2013-06-03 07:33:00,
2013-06-03 03:34:00,77.6,77.0,29.90,South,178,11.0,12.0,98,0.00,,BKN028,0.00,VWS V14.01,2013-06-03 07:34:00,
2013-06-03 03:35:00,77.6,77.0,29.90,SSE,161,11.0,11.0,98,0.00,,BKN028,0.00,VWS V14.01,2013-06-03 07:35:00,
2013-06-03 03:36:00,77.6,77.0,29.90,South,173,7.0,13.0,98,0.00,,BKN028,0.00,VWS V14.01,2013-06-03 07:36:00,
2013-06-03 03:37:00,77.6,77.0,29.90,SSE,167,9.0,10.0,98,0.00,,FEW018,0.00,VWS V14.01,2013-06-03 07:37:00,
2013-06-03 03:38:00,77.6,77.0,29.90,SSE,161,10.0,10.0,98,0.00,,BKN028,0.00,VWS V14.01,2013-06-03 07:38:00,
2013-06-03 03:39:00,77.6,77.0,29.90,SSE,155,9.0,10.0,98,0.00,,BKN028,0.00,VWS V14.01,2013-06-03 07:39:00,
2013-06-03 03:40:00,77.6,77.0,29.90,SSE,161,10.0,12.0,98,0.00,,BKN028,0.00,VWS V14.01,2013-06-03 07:40:00,
2013-06-03 03:41:00,77.6,77.0,29.90,South,188,11.0,11.0,98,0.00,,BKN028,0.00,VWS V14.01,2013-06-03 07:41:00,
2013-06-03 03:42:00,77.6,77.0,29.90,SSW,192,11.0,12.0,98,0.00,,SCT016,0.00,VWS V14.01,2013-06-03 07:42:00,
2013-06-03 03:43:00,77.6,77.0,29.90,SSE,168,10.0,12.0,98,0.00,,BKN028,0.00,VWS V14.01,2013-06-03 07:43:00,
2013-06-03 03:44:00,77.6,77.0,29.90,SSE,163,11.0,11.0,98,0.00,,BKN028,0.00,VWS V14.01,2013-06-03 07:44:00,
2013-06-03 03:45:00,77.6,76.1,29.90,SSE,161,10.0,11.0,95,0.00,,BKN028,0.00,VWS V14.01,2013-06-03 07:45:00,
2013-06-03 03:46:00,77.6,76.1,29.90,SSE,157,13.0,13.0,95,0.00,,BKN028,0.00,VWS V14.01,2013-06-03 07:46:00,
2013-06-03 03:47:00,77.6,77.0,29.89,SSE,167,14.0,14.0,98,0.00,,SCT016,0.00,VWS V14.01,2013-06-03 07:47:00,
2013-06-03 03:48:00,77.6,77.0,29.89,SSE,158,13.0,14.0,98,0.00,,BKN028,0.00,VWS V14.01,2013-06-03 07:48:00,
2013-06-03 03:49:00,77.6,77.0,29.89,SSE,160,12.0,14.0,98,0.00,,BKN028,0.00,VWS V14.01,2013-06-03 07:49:00,
2013-06-03 03:50:00,77.6,77.0,29.89,SSE,156,13.0,13.0,98,0.00,,BKN028,0.00,VWS V14.01,2013-06-03 07:50:00,
2013-06-03 03:51:00,77.6,77.0,29.89,SSE,150,15.0,15.0,98,0.00,,BKN028,0.00,VWS V14.01,2013-06-03 07:51:00,
2013-06-03 03:52:00,77.6,77.0,29.89,SE,146,16.0,16.0,98,0.00,,SCT016,0.00,VWS V14.01,2013-06-03 07:52:00,
2013-06-03 03:53:00,77.6,77.0,29.89,SSE,155,11.0,16.0,98,0.00,,BKN028,0.00,VWS V14.01,2013-06-03 07:53:00,
2013-06-03 03:54:00,77.6,77.0,29.89,SSE,155,15.0,15.0,98,0.00,,BKN028,0.00,VWS V14.01,2013-06-03 07:54:00,
2013-06-03 03:55:00,77.6,77.0,29.89,SSE,166,12.0,15.0,98,0.00,,BKN028,0.00,VWS V14.01,2013-06-03 07:55:00,
2013-06-03 03:56:00,77.6,77.0,29.89,SSE,163,11.0,14.0,98,0.00,,BKN028,0.00,VWS V14.01,2013-06-03 07:56:00,
2013-06-03 03:57:00,77.6,77.0,29.89,SSE,150,14.0,14.0,98,0.00,,SCT016,0.00,VWS V14.01,2013-06-03 07:57:00,
2013-06-03 03:58:00,77.6,77.0,29.89,South,183,12.0,14.0,98,0.00,,BKN028,0.00,VWS V14.01,2013-06-03 07:58:00,
2013-06-03 03:59:00,77.6,77.0,29.89,SSE,155,13.0,15.0,98,0.00,,BKN028,0.00,VWS V14.01,2013-06-03 07:59:00,
2013-06-03 04:00:00,77.6,77.0,29.89,SSE,152,13.0,14.0,98,0.00,,BKN028,0.00,VWS V14.01,2013-06-03 08:00:00,
2013-06-03 04:01:00,77.6,77.0,29.89,SSE,164,14.0,14.0,98,0.00,,BKN028,0.00,VWS V14.01,2013-06-03 08:01:00,
2013-06-03 04:02:00,77.6,77.3,29.89,SSE,153,13.0,15.0,99,0.00,,SCT016,0.00,VWS V14.01,2013-06-03 08:02:00,
2013-06-03 04:03:00,77.6,77.0,29.89,SSE,148,11.0,15.0,98,0.00,,BKN028,0.00,VWS V14.01,2013-06-03 08:03:00,
2013-06-03 04:04:00,77.6,77.3,29.88,SSE,155,14.0,15.0,99,0.00,,BKN028,0.00,VWS V14.01,2013-06-03 08:04:00,
2013-06-03 04:05:00,77.6,77.0,29.88,SSE,154,16.0,16.0,98,0.00,,BKN028,0.00,VWS V14.01,2013-06-03 08:05:00,
2013-06-03 04:06:00,77.6,77.3,29.88,SSE,162,13.0,16.0,99,0.01,,BKN028,0.01,VWS V14.01,2013-06-03 08:06:00,
2013-06-03 04:07:00,77.6,77.3,29.88,SSE,163,14.0,14.0,99,0.01,,SCT016,0.01,VWS V14.01,2013-06-03 08:07:00,
2013-06-03 04:08:00,77.6,77.3,29.88,SSE,155,17.0,17.0,99,0.01,,BKN028,0.01,VWS V14.01,2013-06-03 08:08:00,
2013-06-03 04:09:00,77.4,77.1,29.88,SE,143,12.0,17.0,99,0.01,,BKN028,0.01,VWS V14.01,2013-06-03 08:09:00,
2013-06-03 04:10:00,77.4,77.1,29.88,SSE,155,14.0,15.0,99,0.01,,BKN028,0.01,VWS V14.01,2013-06-03 08:10:00,
2013-06-03 04:11:00,77.4,77.1,29.88,SSE,155,15.0,16.0,99,0.01,,BKN028,0.01,VWS V14.01,2013-06-03 08:11:00,
2013-06-03 04:12:00,77.6,77.3,29.88,SSE,153,12.0,16.0,99,0.01,,SCT016,0.01,VWS V14.01,2013-06-03 08:12:00,
2013-06-03 04:13:00,77.6,77.3,29.88,SSE,152,15.0,16.0,99,0.01,,BKN028,0.01,VWS V14.01,2013-06-03 08:13:00,
2013-06-03 04:14:00,77.6,77.3,29.88,SSE,155,13.0,15.0,99,0.01,,BKN028,0.01,VWS V14.01,2013-06-03 08:14:00,
2013-06-03 04:15:00,77.6,77.3,29.88,SSE,158,10.0,14.0,99,0.01,,BKN028,0.01,VWS V14.01,2013-06-03 08:15:00,
2013-06-03 04:16:00,77.6,77.3,29.88,SSE,166,12.0,14.0,99,0.01,,BKN028,0.01,VWS V14.01,2013-06-03 08:16:00,
2013-06-03 04:17:00,77.6,77.3,29.88,SSE,164,12.0,13.0,99,0.01,,SCT016,0.01,VWS V14.01,2013-06-03 08:17:00,
2013-06-03 04:18:00,77.6,77.3,29.88,South,176,12.0,13.0,99,0.01,,BKN028,0.01,VWS V14.01,2013-06-03 08:18:00,
2013-06-03 04:19:00,77.6,77.3,29.88,SSE,163,11.0,14.0,99,0.01,,BKN028,0.01,VWS V14.01,2013-06-03 08:19:00,
2013-06-03 04:20:00,77.6,77.3,29.88,South,181,14.0,14.0,99,0.01,,BKN028,0.01,VWS V14.01,2013-06-03 08:20:00,
2013-06-03 04:21:00,77.6,77.3,29.88,SSE,159,11.0,14.0,99,0.01,,BKN028,0.01,VWS V14.01,2013-06-03 08:21:00,
2013-06-03 04:22:00,77.6,77.3,29.88,South,181,12.0,15.0,99,0.01,,SCT016,0.01,VWS V14.01,2013-06-03 08:22:00,
2013-06-03 04:23:00,77.6,77.3,29.88,SSE,161,16.0,16.0,99,0.01,,BKN028,0.01,VWS V14.01,2013-06-03 08:23:00,
2013-06-03 04:24:00,77.6,77.3,29.88,South,169,11.0,16.0,99,0.01,,BKN028,0.01,VWS V14.01,2013-06-03 08:24:00,
2013-06-03 04:25:00,77.6,77.3,29.88,SSE,161,14.0,14.0,99,0.01,,BKN028,0.01,VWS V14.01,2013-06-03 08:25:00,
2013-06-03 04:26:00,77.6,77.3,29.88,SSE,159,12.0,14.0,99,0.01,,BKN028,0.01,VWS V14.01,2013-06-03 08:26:00,
2013-06-03 04:27:00,77.6,77.3,29.88,SSE,163,15.0,16.0,99,0.01,,SCT016,0.01,VWS V14.01,2013-06-03 08:27:00,
2013-06-03 04:28:00,77.6,77.3,29.88,SSE,154,14.0,16.0,99,0.01,,BKN028,0.01,VWS V14.01,2013-06-03 08:28:00,
2013-06-03 04:29:00,77.6,77.3,29.88,SSE,150,13.0,14.0,99,0.01,,BKN028,0.01,VWS V14.01,2013-06-03 08:29:00,
2013-06-03 04:30:00,77.6,77.3,29.88,SSE,165,11.0,13.0,99,0.01,,BKN028,0.01,VWS V14.01,2013-06-03 08:30:00,
2013-06-03 04:31:00,77.6,77.3,29.88,SSE,153,12.0,14.0,99,0.01,,BKN028,0.01,VWS V14.01,2013-06-03 08:31:00,
2013-06-03 04:32:00,77.6,77.3,29.88,SSE,159,11.0,13.0,99,0.01,,SCT016,0.01,VWS V14.01,2013-06-03 08:32:00,
2013-06-03 04:33:00,77.6,77.3,29.88,SSE,165,11.0,13.0,99,0.01,,BKN028,0.01,VWS V14.01,2013-06-03 08:33:00,
2013-06-03 04:34:00,77.6,77.3,29.88,SSE,159,12.0,12.0,99,0.01,,BKN028,0.01,VWS V14.01,2013-06-03 08:34:00,
2013-06-03 04:35:00,77.6,77.3,29.88,SSE,155,9.0,13.0,99,0.01,,BKN028,0.01,VWS V14.01,2013-06-03 08:35:00,
2013-06-03 04:36:00,77.6,77.3,29.88,SSE,153,10.0,12.0,99,0.01,,BKN028,0.01,VWS V14.01,2013-06-03 08:36:00,
2013-06-03 04:37:00,77.6,77.3,29.88,South,178,10.0,13.0,99,0.01,,SCT016,0.01,VWS V14.01,2013-06-03 08:37:00,
2013-06-03 04:38:00,77.6,77.3,29.88,SSE,163,10.0,13.0,99,0.01,,BKN028,0.01,VWS V14.01,2013-06-03 08:38:00,
2013-06-03 04:39:00,77.6,77.3,29.88,SSE,155,9.0,14.0,99,0.01,,BKN028,0.01,VWS V14.01,2013-06-03 08:39:00,
2013-06-03 04:40:00,77.6,77.3,29.88,SSE,165,10.0,13.0,99,0.01,,BKN028,0.01,VWS V14.01,2013-06-03 08:40:00,
2013-06-03 04:41:00,77.6,77.3,29.88,SSE,162,9.0,13.0,99,0.01,,BKN028,0.01,VWS V14.01,2013-06-03 08:41:00,
2013-06-03 04:42:00,77.6,77.3,29.88,South,172,11.0,12.0,99,0.01,,BKN020,0.01,VWS V14.01,2013-06-03 08:42:00,
2013-06-03 04:43:00,77.6,77.3,29.88,SSE,163,11.0,12.0,99,0.01,,BKN028,0.01,VWS V14.01,2013-06-03 08:43:00,
2013-06-03 04:44:00,77.6,77.3,29.88,SSE,161,10.0,12.0,99,0.01,,BKN028,0.01,VWS V14.01,2013-06-03 08:44:00,
2013-06-03 04:45:00,77.6,77.3,29.88,SSE,159,12.0,12.0,99,0.01,,BKN028,0.01,VWS V14.01,2013-06-03 08:45:00,
2013-06-03 04:46:00,77.6,77.3,29.88,South,180,13.0,13.0,99,0.01,,BKN028,0.01,VWS V14.01,2013-06-03 08:46:00,
2013-06-03 04:47:00,77.6,77.3,29.88,SSE,162,13.0,13.0,99,0.01,,BKN020,0.01,VWS V14.01,2013-06-03 08:47:00,
2013-06-03 04:48:00,77.6,77.3,29.88,South,183,12.0,13.0,99,0.01,,BKN028,0.01,VWS V14.01,2013-06-03 08:48:00,
2013-06-03 04:49:00,77.6,77.3,29.88,SSE,164,12.0,12.0,99,0.01,,BKN028,0.01,VWS V14.01,2013-06-03 08:49:00,
2013-06-03 04:50:00,77.6,77.3,29.88,South,173,13.0,13.0,99,0.01,,BKN028,0.01,VWS V14.01,2013-06-03 08:50:00,
2013-06-03 04:51:00,77.6,77.6,29.87,SSE,165,13.0,13.0,100,0.01,,BKN028,0.01,VWS V14.01,2013-06-03 08:51:00,
2013-06-03 04:52:00,77.6,77.6,29.88,South,170,14.0,14.0,100,0.01,,BKN020,0.01,VWS V14.01,2013-06-03 08:52:00,
2013-06-03 04:53:00,77.6,77.6,29.88,South,186,11.0,14.0,100,0.01,,BKN028,0.01,VWS V14.01,2013-06-03 08:53:00,
2013-06-03 04:54:00,77.6,77.6,29.88,South,173,16.0,16.0,100,0.01,,BKN028,0.01,VWS V14.01,2013-06-03 08:54:00,
2013-06-03 04:55:00,77.6,77.3,29.88,South,175,10.0,16.0,99,0.01,,BKN028,0.01,VWS V14.01,2013-06-03 08:55:00,
2013-06-03 04:56:00,77.6,77.3,29.87,SSE,167,10.0,14.0,99,0.01,,BKN028,0.01,VWS V14.01,2013-06-03 08:56:00,
2013-06-03 04:57:00,77.6,77.6,29.87,South,174,10.0,11.0,100,0.01,,BKN043,0.01,VWS V14.01,2013-06-03 08:57:00,
2013-06-03 04:58:00,77.6,77.6,29.87,SSE,156,10.0,11.0,100,0.01,,BKN028,0.01,VWS V14.01,2013-06-03 08:58:00,
2013-06-03 04:59:00,77.7,77.7,29.87,South,169,12.0,13.0,100,0.01,,BKN028,0.01,VWS V14.01,2013-06-03 08:59:00,
2013-06-03 05:00:00,77.7,77.7,29.87,South,171,12.0,14.0,100,0.01,,BKN028,0.01,VWS V14.01,2013-06-03 09:00:00,
2013-06-03 05:01:00,77.6,77.3,29.87,SSE,157,11.0,16.0,99,0.01,,BKN028,0.01,VWS V14.01,2013-06-03 09:01:00,
2013-06-03 05:02:00,77.6,77.6,29.87,SSE,162,13.0,13.0,100,0.01,,BKN043,0.01,VWS V14.01,2013-06-03 09:02:00,
2013-06-03 05:03:00,77.6,77.6,29.87,SSE,168,8.0,13.0,100,0.01,,BKN028,0.01,VWS V14.01,2013-06-03 09:03:00,
2013-06-03 05:04:00,77.6,77.6,29.87,SSE,163,12.0,12.0,100,0.01,,BKN028,0.01,VWS V14.01,2013-06-03 09:04:00,
2013-06-03 05:05:00,77.6,77.6,29.87,South,178,9.0,14.0,100,0.01,,BKN028,0.01,VWS V14.01,2013-06-03 09:05:00,
2013-06-03 05:06:00,77.6,77.6,29.87,SSE,159,12.0,12.0,100,0.01,,BKN028,0.01,VWS V14.01,2013-06-03 09:06:00,
2013-06-03 05:07:00,77.6,77.6,29.87,South,171,13.0,13.0,100,0.00,,BKN043,0.01,VWS V14.01,2013-06-03 09:07:00,
2013-06-03 05:08:00,77.6,77.6,29.87,South,182,13.0,13.0,100,0.00,,BKN028,0.01,VWS V14.01,2013-06-03 09:08:00,
2013-06-03 05:09:00,77.6,77.6,29.87,SSE,159,12.0,14.0,100,0.00,,BKN028,0.01,VWS V14.01,2013-06-03 09:09:00,
2013-06-03 05:10:00,77.6,77.6,29.87,SSE,155,13.0,13.0,100,0.00,,BKN028,0.01,VWS V14.01,2013-06-03 09:10:00,
2013-06-03 05:11:00,77.6,77.6,29.87,SSE,164,13.0,13.0,100,0.00,,BKN028,0.01,VWS V14.01,2013-06-03 09:11:00,
2013-06-03 05:12:00,77.6,77.6,29.87,South,170,13.0,13.0,100,0.00,,BKN043,0.01,VWS V14.01,2013-06-03 09:12:00,
2013-06-03 05:13:00,77.6,77.6,29.87,SSE,155,13.0,13.0,100,0.00,,BKN028,0.01,VWS V14.01,2013-06-03 09:13:00,
2013-06-03 05:14:00,77.6,77.6,29.87,SSE,157,11.0,13.0,100,0.00,,BKN028,0.01,VWS V14.01,2013-06-03 09:14:00,
2013-06-03 05:15:00,77.6,77.6,29.87,SSE,160,11.0,11.0,100,0.00,,BKN028,0.01,VWS V14.01,2013-06-03 09:15:00,
2013-06-03 05:16:00,77.6,77.6,29.87,South,175,13.0,14.0,100,0.00,,BKN028,0.01,VWS V14.01,2013-06-03 09:16:00,
2013-06-03 05:17:00,77.6,77.6,29.87,SSE,163,12.0,13.0,100,0.00,,BKN043,0.01,VWS V14.01,2013-06-03 09:17:00,
2013-06-03 05:18:00,77.6,77.6,29.87,South,175,11.0,13.0,100,0.00,,BKN028,0.01,VWS V14.01,2013-06-03 09:18:00,
2013-06-03 05:19:00,77.6,77.6,29.87,SSE,147,9.0,11.0,100,0.00,,BKN028,0.01,VWS V14.01,2013-06-03 09:19:00,
2013-06-03 05:20:00,77.6,77.6,29.87,South,175,10.0,13.0,100,0.00,,BKN028,0.01,VWS V14.01,2013-06-03 09:20:00,
2013-06-03 05:21:00,77.6,77.6,29.87,SSE,161,12.0,12.0,100,0.00,,BKN043,0.01,VWS V14.01,2013-06-03 09:21:00,
2013-06-03 05:22:00,77.6,77.6,29.87,SSE,165,10.0,15.0,100,0.00,,BKN028,0.01,VWS V14.01,2013-06-03 09:22:00,
2013-06-03 05:23:00,77.6,77.6,29.87,SSE,157,11.0,12.0,100,0.00,,BKN028,0.01,VWS V14.01,2013-06-03 09:23:00,
2013-06-03 05:24:00,77.6,77.6,29.87,SSE,153,14.0,14.0,100,0.00,,BKN028,0.01,VWS V14.01,2013-06-03 09:24:00,
2013-06-03 05:25:00,77.6,77.6,29.87,SSE,164,13.0,17.0,100,0.00,,BKN028,0.01,VWS V14.01,2013-06-03 09:25:00,
2013-06-03 05:26:00,77.4,77.4,29.87,South,169,12.0,13.0,100,0.00,,BKN028,0.01,VWS V14.01,2013-06-03 09:26:00,
2013-06-03 05:27:00,77.6,77.6,29.87,SSE,163,12.0,14.0,100,0.00,,BKN043,0.01,VWS V14.01,2013-06-03 09:27:00,
2013-06-03 05:28:00,77.6,77.6,29.87,SSE,155,13.0,15.0,100,0.00,,BKN028,0.01,VWS V14.01,2013-06-03 09:28:00,
2013-06-03 05:29:00,77.6,77.6,29.87,SE,144,13.0,15.0,100,0.00,,BKN028,0.01,VWS V14.01,2013-06-03 09:29:00,
2013-06-03 05:30:00,77.6,77.6,29.87,South,173,11.0,14.0,100,0.00,,BKN028,0.01,VWS V14.01,2013-06-03 09:30:00,
2013-06-03 05:31:00,77.6,77.6,29.87,South,171,13.0,14.0,100,0.00,,BKN028,0.01,VWS V14.01,2013-06-03 09:31:00,
2013-06-03 05:32:00,77.6,77.6,29.87,SSE,161,12.0,14.0,100,0.00,,BKN043,0.01,VWS V14.01,2013-06-03 09:32:00,
2013-06-03 05:33:00,77.6,77.6,29.87,SSE,167,14.0,14.0,100,0.00,,BKN028,0.01,VWS V14.01,2013-06-03 09:33:00,
2013-06-03 05:34:00,77.6,77.6,29.87,SSE,165,13.0,14.0,100,0.00,,BKN028,0.01,VWS V14.01,2013-06-03 09:34:00,
2013-06-03 05:35:00,77.6,77.6,29.87,SSE,150,12.0,14.0,100,0.00,,BKN028,0.01,VWS V14.01,2013-06-03 09:35:00,
2013-06-03 05:36:00,77.6,77.6,29.87,SE,142,12.0,13.0,100,0.00,,BKN028,0.01,VWS V14.01,2013-06-03 09:36:00,
2013-06-03 05:37:00,77.6,77.6,29.87,SSE,147,12.0,14.0,100,0.00,,BKN043,0.01,VWS V14.01,2013-06-03 09:37:00,
2013-06-03 05:38:00,77.6,77.6,29.87,SE,144,13.0,14.0,100,0.00,,BKN028,0.01,VWS V14.01,2013-06-03 09:38:00,
2013-06-03 05:39:00,77.6,77.6,29.87,SSE,159,13.0,13.0,100,0.00,,BKN028,0.01,VWS V14.01,2013-06-03 09:39:00,
2013-06-03 05:40:00,77.6,77.6,29.87,SE,146,13.0,15.0,100,0.00,,BKN028,0.01,VWS V14.01,2013-06-03 09:40:00,
2013-06-03 05:41:00,77.6,77.6,29.87,SE,143,12.0,14.0,100,0.00,,BKN028,0.01,VWS V14.01,2013-06-03 09:41:00,
2013-06-03 05:42:00,77.6,77.6,29.87,SSE,162,15.0,15.0,100,0.00,,FEW055,0.01,VWS V14.01,2013-06-03 09:42:00,
2013-06-03 05:43:00,77.6,77.6,29.87,SSE,166,15.0,16.0,100,0.00,,BKN028,0.01,VWS V14.01,2013-06-03 09:43:00,
2013-06-03 05:44:00,77.6,77.6,29.87,SSE,157,14.0,15.0,100,0.00,,BKN028,0.01,VWS V14.01,2013-06-03 09:44:00,
2013-06-03 05:45:00,77.6,77.6,29.87,SSE,152,13.0,14.0,100,0.00,,BKN028,0.01,VWS V14.01,2013-06-03 09:45:00,
2013-06-03 05:46:00,77.6,77.6,29.87,SSE,161,14.0,14.0,100,0.00,,BKN028,0.01,VWS V14.01,2013-06-03 09:46:00,
2013-06-03 05:47:00,77.6,77.6,29.87,SSE,158,12.0,14.0,100,0.00,,FEW055,0.01,VWS V14.01,2013-06-03 09:47:00,
2013-06-03 05:48:00,77.6,77.6,29.87,SSE,153,14.0,15.0,100,0.00,,BKN028,0.01,VWS V14.01,2013-06-03 09:48:00,
2013-06-03 05:49:00,77.6,77.6,29.87,SSE,155,12.0,14.0,100,0.00,,BKN028,0.01,VWS V14.01,2013-06-03 09:49:00,
2013-06-03 05:50:00,77.6,77.6,29.87,SSE,151,12.0,14.0,100,0.00,,BKN028,0.01,VWS V14.01,2013-06-03 09:50:00,
2013-06-03 05:51:00,77.6,77.6,29.87,SSE,155,15.0,15.0,100,0.00,,BKN028,0.01,VWS V14.01,2013-06-03 09:51:00,
2013-06-03 05:52:00,77.6,77.6,29.87,SSE,162,13.0,15.0,100,0.00,,FEW055,0.01,VWS V14.01,2013-06-03 09:52:00,
2013-06-03 05:53:00,77.4,77.4,29.87,South,171,13.0,15.0,100,0.00,,BKN028,0.01,VWS V14.01,2013-06-03 09:53:00,
2013-06-03 05:54:00,77.4,77.4,29.87,SSE,158,13.0,15.0,100,0.00,,BKN028,0.01,VWS V14.01,2013-06-03 09:54:00,
2013-06-03 05:55:00,77.6,77.6,29.87,SSE,165,11.0,13.0,100,0.00,,BKN028,0.01,VWS V14.01,2013-06-03 09:55:00,
2013-06-03 05:56:00,77.4,77.4,29.87,SSE,153,13.0,13.0,100,0.00,,BKN028,0.01,VWS V14.01,2013-06-03 09:56:00,
2013-06-03 05:57:00,77.6,77.6,29.87,SE,145,15.0,15.0,100,0.00,,FEW055,0.01,VWS V14.01,2013-06-03 09:57:00,
2013-06-03 05:58:00,77.4,77.4,29.87,SSE,162,12.0,15.0,100,0.00,,BKN028,0.01,VWS V14.01,2013-06-03 09:58:00,
2013-06-03 05:59:00,77.4,77.4,29.87,SE,144,15.0,15.0,100,0.00,,BKN028,0.01,VWS V14.01,2013-06-03 09:59:00,
2013-06-03 06:00:00,77.4,77.4,29.87,SSE,148,13.0,16.0,100,0.00,,BKN028,0.01,VWS V14.01,2013-06-03 10:00:00,
2013-06-03 06:01:00,77.4,77.4,29.87,SSE,156,13.0,15.0,100,0.00,,BKN028,0.01,VWS V14.01,2013-06-03 10:01:00,
2013-06-03 06:02:00,77.4,77.4,29.87,SSE,147,14.0,16.0,100,0.00,,FEW055,0.01,VWS V14.01,2013-06-03 10:02:00,
2013-06-03 06:03:00,77.4,77.4,29.87,SSE,154,13.0,16.0,100,0.00,,BKN028,0.01,VWS V14.01,2013-06-03 10:03:00,
2013-06-03 06:04:00,77.4,77.4,29.87,SSE,152,13.0,13.0,100,0.00,,BKN028,0.01,VWS V14.01,2013-06-03 10:04:00,
2013-06-03 06:05:00,77.4,77.4,29.87,SSE,150,16.0,16.0,100,0.00,,BKN028,0.01,VWS V14.01,2013-06-03 10:05:00,
2013-06-03 06:06:00,77.4,77.4,29.87,SSE,161,13.0,17.0,100,0.00,,BKN028,0.01,VWS V14.01,2013-06-03 10:06:00,
2013-06-03 06:07:00,77.6,77.6,29.87,SSE,153,12.0,14.0,100,0.00,,FEW055,0.01,VWS V14.01,2013-06-03 10:07:00,
2013-06-03 06:08:00,77.6,77.6,29.87,SSE,150,13.0,14.0,100,0.00,,BKN028,0.01,VWS V14.01,2013-06-03 10:08:00,
2013-06-03 06:09:00,77.6,77.6,29.87,SSE,150,14.0,14.0,100,0.00,,BKN028,0.01,VWS V14.01,2013-06-03 10:09:00,
2013-06-03 06:10:00,77.4,77.4,29.87,SSE,153,15.0,15.0,100,0.00,,BKN028,0.01,VWS V14.01,2013-06-03 10:10:00,
2013-06-03 06:11:00,77.4,77.4,29.87,SE,139,14.0,15.0,100,0.00,,BKN028,0.01,VWS V14.01,2013-06-03 10:11:00,
2013-06-03 06:12:00,77.4,77.4,29.87,ESE,123,11.0,14.0,100,0.00,,FEW055,0.01,VWS V14.01,2013-06-03 10:12:00,
2013-06-03 06:13:00,77.4,77.4,29.87,SSE,152,12.0,14.0,100,0.00,,BKN028,0.01,VWS V14.01,2013-06-03 10:13:00,
2013-06-03 06:14:00,77.4,77.4,29.87,SSE,151,15.0,15.0,100,0.00,,BKN028,0.01,VWS V14.01,2013-06-03 10:14:00,
2013-06-03 06:15:00,77.4,77.4,29.87,SE,143,15.0,15.0,100,0.00,,BKN028,0.01,VWS V14.01,2013-06-03 10:15:00,
2013-06-03 06:16:00,77.4,77.4,29.87,SSE,147,12.0,15.0,100,0.00,,FEW055,0.01,VWS V14.01,2013-06-03 10:16:00,
2013-06-03 06:17:00,77.4,77.4,29.87,SSE,152,15.0,15.0,100,0.00,,BKN028,0.01,VWS V14.01,2013-06-03 10:17:00,
2013-06-03 06:18:00,77.4,77.4,29.87,SSE,163,13.0,15.0,100,0.00,,BKN028,0.01,VWS V14.01,2013-06-03 10:18:00,
2013-06-03 06:19:00,77.4,77.4,29.87,SE,142,14.0,14.0,100,0.00,,BKN028,0.01,VWS V14.01,2013-06-03 10:19:00,
2013-06-03 06:20:00,77.6,77.6,29.87,SSE,148,13.0,14.0,100,0.00,,BKN028,0.01,VWS V14.01,2013-06-03 10:20:00,
2013-06-03 06:21:00,77.6,77.6,29.87,SE,144,13.0,14.0,100,0.00,,FEW055,0.01,VWS V14.01,2013-06-03 10:21:00,
2013-06-03 06:22:00,77.6,77.6,29.87,SSE,161,14.0,16.0,100,0.00,,BKN028,0.01,VWS V14.01,2013-06-03 10:22:00,
2013-06-03 06:23:00,77.4,77.4,29.87,SE,140,14.0,14.0,100,0.00,,BKN028,0.01,VWS V14.01,2013-06-03 10:23:00,
2013-06-03 06:24:00,77.6,77.6,29.87,SE,138,12.0,15.0,100,0.00,,BKN028,0.01,VWS V14.01,2013-06-03 10:24:00,
2013-06-03 06:25:00,77.6,77.6,29.87,SSE,150,13.0,13.0,100,0.00,,BKN028,0.01,VWS V14.01,2013-06-03 10:25:00,
2013-06-03 06:26:00,77.6,77.6,29.87,SSE,163,15.0,15.0,100,0.00,,FEW055,0.01,VWS V14.01,2013-06-03 10:26:00,
2013-06-03 06:27:00,77.6,77.6,29.87,SE,144,13.0,15.0,100,0.00,,BKN028,0.01,VWS V14.01,2013-06-03 10:27:00,
2013-06-03 06:28:00,77.6,77.6,29.87,SSE,150,16.0,16.0,100,0.00,,BKN028,0.01,VWS V14.01,2013-06-03 10:28:00,
2013-06-03 06:29:00,77.6,77.6,29.87,SE,142,16.0,16.0,100,0.00,,BKN028,0.01,VWS V14.01,2013-06-03 10:29:00,
2013-06-03 06:30:00,77.6,77.6,29.87,SSE,152,14.0,16.0,100,0.00,,BKN028,0.01,VWS V14.01,2013-06-03 10:30:00,
2013-06-03 06:31:00,77.6,77.6,29.87,SE,142,15.0,15.0,100,0.00,,BKN028,0.01,VWS V14.01,2013-06-03 10:31:00,
2013-06-03 06:32:00,77.6,77.6,29.87,SE,133,12.0,14.0,100,0.00,,FEW055,0.01,VWS V14.01,2013-06-03 10:32:00,
2013-06-03 06:33:00,77.6,77.6,29.87,SE,140,15.0,15.0,100,0.00,,BKN028,0.01,VWS V14.01,2013-06-03 10:33:00,
2013-06-03 06:34:00,77.6,77.6,29.87,SE,146,16.0,16.0,100,0.00,,BKN028,0.01,VWS V14.01,2013-06-03 10:34:00,
2013-06-03 06:35:00,77.6,77.6,29.87,SSE,151,15.0,16.0,100,0.00,,BKN028,0.01,VWS V14.01,2013-06-03 10:35:00,
2013-06-03 06:36:00,77.6,77.6,29.87,SE,146,16.0,16.0,100,0.00,,BKN028,0.01,VWS V14.01,2013-06-03 10:36:00,
2013-06-03 06:37:00,77.6,77.6,29.87,SSE,155,12.0,16.0,100,0.00,,FEW055,0.01,VWS V14.01,2013-06-03 10:37:00,
2013-06-03 06:38:00,77.6,77.6,29.87,SSE,147,15.0,16.0,100,0.00,,BKN028,0.01,VWS V14.01,2013-06-03 10:38:00,
2013-06-03 06:39:00,77.6,77.6,29.87,SE,143,9.0,15.0,100,0.00,,BKN028,0.01,VWS V14.01,2013-06-03 10:39:00,
2013-06-03 06:40:00,77.6,77.6,29.87,SE,139,14.0,16.0,100,0.00,,BKN028,0.01,VWS V14.01,2013-06-03 10:40:00,
2013-06-03 06:41:00,77.6,77.6,29.87,SSE,153,12.0,16.0,100,0.00,,BKN028,0.01,VWS V14.01,2013-06-03 10:41:00,
2013-06-03 06:42:00,77.6,77.6,29.87,SE,146,15.0,16.0,100,0.00,,-RA,0.01,VWS V14.01,2013-06-03 10:42:00,
2013-06-03 06:43:00,77.6,77.6,29.87,SSE,165,14.0,16.0,100,0.00,,BKN028,0.01,VWS V14.01,2013-06-03 10:43:00,
2013-06-03 06:44:00,77.6,77.6,29.87,SSE,154,15.0,17.0,100,0.00,,BKN028,0.01,VWS V14.01,2013-06-03 10:44:00,
2013-06-03 06:45:00,77.6,77.6,29.87,SE,137,16.0,16.0,100,0.00,,BKN028,0.01,VWS V14.01,2013-06-03 10:45:00,
2013-06-03 06:46:00,77.6,77.6,29.87,SE,138,14.0,16.0,100,0.00,,BKN028,0.01,VWS V14.01,2013-06-03 10:46:00,
2013-06-03 06:47:00,77.6,77.6,29.87,SE,140,15.0,17.0,100,0.00,,-RA,0.01,VWS V14.01,2013-06-03 10:47:00,
2013-06-03 06:48:00,77.6,77.6,29.87,SE,142,17.0,17.0,100,0.00,,BKN028,0.01,VWS V14.01,2013-06-03 10:48:00,
2013-06-03 06:49:00,77.6,77.6,29.87,SE,145,14.0,17.0,100,0.01,,BKN028,0.02,VWS V14.01,2013-06-03 10:49:00,
2013-06-03 06:50:00,77.6,77.6,29.87,SE,140,16.0,19.0,100,0.01,,BKN028,0.02,VWS V14.01,2013-06-03 10:50:00,
2013-06-03 06:51:00,77.6,77.6,29.87,SE,140,14.0,17.0,100,0.01,,BKN028,0.02,VWS V14.01,2013-06-03 10:51:00,
2013-06-03 06:52:00,77.6,77.6,29.87,SE,136,16.0,20.0,100,0.01,,-RA,0.02,VWS V14.01,2013-06-03 10:52:00,
2013-06-03 06:53:00,77.6,77.6,29.87,SE,140,16.0,20.0,100,0.01,,BKN028,0.02,VWS V14.01,2013-06-03 10:53:00,
2013-06-03 06:54:00,77.6,77.6,29.87,SE,133,15.0,18.0,100,0.01,,BKN028,0.02,VWS V14.01,2013-06-03 10:54:00,
2013-06-03 06:55:00,77.6,77.6,29.87,SE,143,17.0,18.0,100,0.01,,BKN028,0.02,VWS V14.01,2013-06-03 10:55:00,
2013-06-03 06:56:00,77.4,77.4,29.87,SE,129,17.0,18.0,100,0.01,,BKN028,0.02,VWS V14.01,2013-06-03 10:56:00,
2013-06-03 06:57:00,77.6,77.6,29.87,SE,142,18.0,18.0,100,0.01,,-RA,0.02,VWS V14.01,2013-06-03 10:57:00,
2013-06-03 06:58:00,77.6,77.6,29.87,SSE,148,16.0,18.0,100,0.01,,BKN028,0.02,VWS V14.01,2013-06-03 10:58:00,
2013-06-03 06:59:00,77.6,77.6,29.87,SE,142,18.0,18.0,100,0.01,,BKN028,0.02,VWS V14.01,2013-06-03 10:59:00,
2013-06-03 07:00:00,77.6,77.6,29.87,SE,127,12.0,18.0,100,0.01,,BKN028,0.02,VWS V14.01,2013-06-03 11:00:00,
2013-06-03 07:01:00,77.6,77.6,29.87,SE,141,16.0,18.0,100,0.01,,BKN028,0.02,VWS V14.01,2013-06-03 11:01:00,
2013-06-03 07:02:00,77.6,77.6,29.87,SE,138,14.0,16.0,100,0.01,,-RA,0.02,VWS V14.01,2013-06-03 11:02:00,
2013-06-03 07:03:00,77.6,77.6,29.87,SE,146,15.0,16.0,100,0.01,,BKN028,0.02,VWS V14.01,2013-06-03 11:03:00,
2013-06-03 07:04:00,77.6,77.6,29.87,SSE,161,12.0,16.0,100,0.01,,BKN028,0.02,VWS V14.01,2013-06-03 11:04:00,
2013-06-03 07:05:00,77.6,77.6,29.87,SSE,157,14.0,17.0,100,0.01,,BKN028,0.02,VWS V14.01,2013-06-03 11:05:00,
2013-06-03 07:06:00,77.6,77.6,29.87,SSE,153,17.0,17.0,100,0.01,,BKN028,0.02,VWS V14.01,2013-06-03 11:06:00,
2013-06-03 07:07:00,77.6,77.6,29.87,SE,142,15.0,17.0,100,0.01,,-RA,0.02,VWS V14.01,2013-06-03 11:07:00,
2013-06-03 07:08:00,77.6,77.6,29.87,SSE,151,15.0,17.0,100,0.01,,BKN028,0.02,VWS V14.01,2013-06-03 11:08:00,
2013-06-03 07:09:00,77.6,77.6,29.87,SSE,159,16.0,16.0,100,0.01,,BKN028,0.02,VWS V14.01,2013-06-03 11:09:00,
2013-06-03 07:10:00,77.6,77.6,29.87,SE,143,16.0,16.0,100,0.01,,BKN028,0.02,VWS V14.01,2013-06-03 11:10:00,
2013-06-03 07:11:00,77.6,77.6,29.87,SSE,147,18.0,18.0,100,0.01,,BKN028,0.02,VWS V14.01,2013-06-03 11:11:00,
2013-06-03 07:12:00,77.6,77.6,29.87,SSE,153,18.0,18.0,100,0.01,,-RA,0.02,VWS V14.01,2013-06-03 11:12:00,
2013-06-03 07:13:00,77.6,77.6,29.87,SE,129,18.0,18.0,100,0.01,,BKN028,0.02,VWS V14.01,2013-06-03 11:13:00,
2013-06-03 07:14:00,77.6,77.6,29.87,SE,136,16.0,18.0,100,0.01,,BKN028,0.02,VWS V14.01,2013-06-03 11:14:00,
2013-06-03 07:15:00,77.6,77.6,29.87,SE,137,18.0,18.0,100,0.01,,BKN028,0.02,VWS V14.01,2013-06-03 11:15:00,
2013-06-03 07:16:00,77.6,77.6,29.87,SE,139,17.0,18.0,100,0.01,,BKN028,0.02,VWS V14.01,2013-06-03 11:16:00,
2013-06-03 07:17:00,77.6,77.6,29.87,SE,126,16.0,16.0,100,0.01,,-RA,0.02,VWS V14.01,2013-06-03 11:17:00,
2013-06-03 07:18:00,77.6,77.6,29.87,SE,137,15.0,16.0,100,0.01,,BKN028,0.02,VWS V14.01,2013-06-03 11:18:00,
2013-06-03 07:19:00,77.7,77.7,29.87,SE,138,18.0,18.0,100,0.01,,BKN028,0.02,VWS V14.01,2013-06-03 11:19:00,
2013-06-03 07:20:00,77.7,77.7,29.87,SE,142,16.0,18.0,100,0.01,,BKN028,0.02,VWS V14.01,2013-06-03 11:20:00,
2013-06-03 07:21:00,77.7,77.7,29.87,SE,138,15.0,16.0,100,0.01,,BKN028,0.02,VWS V14.01,2013-06-03 11:21:00,
2013-06-03 07:22:00,77.7,77.7,29.88,SE,140,17.0,17.0,100,0.01,,-RA,0.02,VWS V14.01,2013-06-03 11:22:00,
2013-06-03 07:23:00,77.7,77.7,29.88,ESE,121,13.0,17.0,100,0.01,,BKN028,0.02,VWS V14.01,2013-06-03 11:23:00,
2013-06-03 07:24:00,77.7,77.7,29.88,SE,137,17.0,17.0,100,0.01,,BKN028,0.02,VWS V14.01,2013-06-03 11:24:00,
2013-06-03 07:25:00,77.7,77.7,29.88,SE,143,14.0,17.0,100,0.01,,BKN028,0.02,VWS V14.01,2013-06-03 11:25:00,
2013-06-03 07:26:00,77.7,77.7,29.88,SE,140,11.0,14.0,100,0.01,,BKN028,0.02,VWS V14.01,2013-06-03 11:26:00,
2013-06-03 07:27:00,77.7,77.7,29.88,SSE,161,13.0,14.0,100,0.01,,-RA,0.02,VWS V14.01,2013-06-03 11:27:00,
2013-06-03 07:28:00,77.7,77.7,29.88,SSE,159,14.0,16.0,100,0.01,,BKN028,0.02,VWS V14.01,2013-06-03 11:28:00,
2013-06-03 07:29:00,77.7,77.7,29.88,SE,145,13.0,15.0,100,0.01,,BKN028,0.02,VWS V14.01,2013-06-03 11:29:00,
2013-06-03 07:30:00,77.7,77.7,29.87,SE,140,15.0,16.0,100,0.01,,BKN028,0.02,VWS V14.01,2013-06-03 11:30:00,
2013-06-03 07:31:00,77.7,77.7,29.87,SE,141,15.0,15.0,100,0.01,,BKN028,0.02,VWS V14.01,2013-06-03 11:31:00,
2013-06-03 07:32:00,77.7,77.7,29.88,SE,144,15.0,17.0,100,0.01,,-RA,0.02,VWS V14.01,2013-06-03 11:32:00,
2013-06-03 07:33:00,77.7,77.7,29.88,SE,146,15.0,17.0,100,0.01,,BKN028,0.02,VWS V14.01,2013-06-03 11:33:00,
2013-06-03 07:34:00,77.7,77.7,29.88,South,169,15.0,15.0,100,0.01,,BKN028,0.02,VWS V14.01,2013-06-03 11:34:00,
2013-06-03 07:35:00,77.7,77.7,29.88,SSE,161,15.0,15.0,100,0.01,,BKN028,0.02,VWS V14.01,2013-06-03 11:35:00,
2013-06-03 07:36:00,77.7,77.7,29.88,SE,143,15.0,15.0,100,0.01,,BKN028,0.02,VWS V14.01,2013-06-03 11:36:00,
2013-06-03 07:37:00,77.7,77.7,29.88,SE,140,14.0,14.0,100,0.01,,-RA,0.02,VWS V14.01,2013-06-03 11:37:00,
2013-06-03 07:38:00,77.9,77.9,29.88,SE,146,14.0,14.0,100,0.01,,BKN028,0.02,VWS V14.01,2013-06-03 11:38:00,
2013-06-03 07:39:00,77.9,77.9,29.88,SE,142,14.0,15.0,100,0.01,,BKN028,0.02,VWS V14.01,2013-06-03 11:39:00,
2013-06-03 07:40:00,77.9,77.9,29.88,SSE,151,15.0,17.0,100,0.01,,BKN028,0.02,VWS V14.01,2013-06-03 11:40:00,
2013-06-03 07:41:00,77.7,77.7,29.88,SSE,155,16.0,16.0,100,0.01,,BKN028,0.02,VWS V14.01,2013-06-03 11:41:00,
2013-06-03 07:42:00,77.9,77.9,29.88,SE,144,16.0,16.0,100,0.01,,BKN200,0.02,VWS V14.01,2013-06-03 11:42:00,
2013-06-03 07:43:00,77.9,77.9,29.88,SSE,148,14.0,16.0,100,0.01,,BKN028,0.02,VWS V14.01,2013-06-03 11:43:00,
2013-06-03 07:44:00,77.9,77.9,29.88,SE,146,14.0,17.0,100,0.01,,BKN028,0.02,VWS V14.01,2013-06-03 11:44:00,
2013-06-03 07:45:00,77.9,77.9,29.88,SE,137,17.0,17.0,100,0.01,,BKN028,0.02,VWS V14.01,2013-06-03 11:45:00,
2013-06-03 07:46:00,77.9,77.9,29.88,South,187,16.0,17.0,100,0.01,,BKN028,0.02,VWS V14.01,2013-06-03 11:46:00,
2013-06-03 07:47:00,77.9,77.9,29.88,SSE,150,18.0,18.0,100,0.01,,BKN200,0.02,VWS V14.01,2013-06-03 11:47:00,
2013-06-03 07:48:00,77.9,77.9,29.88,SSE,156,13.0,18.0,100,0.01,,BKN028,0.02,VWS V14.01,2013-06-03 11:48:00,
2013-06-03 07:49:00,77.9,77.9,29.88,SE,136,17.0,17.0,100,0.01,,BKN028,0.02,VWS V14.01,2013-06-03 11:49:00,
2013-06-03 07:50:00,77.9,77.9,29.88,SE,142,14.0,17.0,100,0.00,,BKN028,0.02,VWS V14.01,2013-06-03 11:50:00,
2013-06-03 07:51:00,78.1,78.1,29.88,SE,141,15.0,15.0,100,0.00,,BKN028,0.02,VWS V14.01,2013-06-03 11:51:00,
2013-06-03 07:52:00,78.1,78.1,29.89,SE,144,16.0,16.0,100,0.00,,BKN200,0.02,VWS V14.01,2013-06-03 11:52:00,
2013-06-03 07:53:00,78.1,78.1,29.89,SSE,151,15.0,16.0,100,0.00,,BKN028,0.02,VWS V14.01,2013-06-03 11:53:00,
2013-06-03 07:54:00,77.9,77.9,29.89,SSE,152,15.0,17.0,100,0.00,,BKN028,0.02,VWS V14.01,2013-06-03 11:54:00,
2013-06-03 07:55:00,78.1,78.1,29.89,SE,138,16.0,17.0,100,0.00,,BKN028,0.02,VWS V14.01,2013-06-03 11:55:00,
2013-06-03 07:56:00,78.1,78.1,29.89,SE,136,12.0,16.0,100,0.00,,BKN028,0.02,VWS V14.01,2013-06-03 11:56:00,
2013-06-03 07:57:00,78.1,78.1,29.89,SSE,153,13.0,16.0,100,0.00,,BKN200,0.02,VWS V14.01,2013-06-03 11:57:00,
2013-06-03 07:58:00,78.1,78.1,29.89,SE,144,17.0,17.0,100,0.00,,BKN028,0.02,VWS V14.01,2013-06-03 11:58:00,
2013-06-03 07:59:00,78.1,78.1,29.89,ESE,106,15.0,17.0,100,0.00,,BKN028,0.02,VWS V14.01,2013-06-03 11:59:00,
2013-06-03 08:00:00,78.1,78.1,29.89,SE,134,16.0,18.0,100,0.00,,BKN028,0.02,VWS V14.01,2013-06-03 12:00:00,
2013-06-03 08:01:00,78.3,78.3,29.89,SE,134,15.0,16.0,100,0.00,,BKN028,0.02,VWS V14.01,2013-06-03 12:01:00,
2013-06-03 08:02:00,78.1,78.1,29.89,SE,141,16.0,17.0,100,0.00,,BKN200,0.02,VWS V14.01,2013-06-03 12:02:00,
2013-06-03 08:03:00,78.1,78.1,29.89,SSE,150,18.0,18.0,100,0.00,,BKN028,0.02,VWS V14.01,2013-06-03 12:03:00,
2013-06-03 08:04:00,78.1,78.1,29.89,SE,143,14.0,18.0,100,0.00,,BKN028,0.02,VWS V14.01,2013-06-03 12:04:00,
2013-06-03 08:05:00,78.1,78.1,29.89,SSE,155,15.0,17.0,100,0.00,,BKN028,0.02,VWS V14.01,2013-06-03 12:05:00,
2013-06-03 08:07:00,78.1,78.1,29.89,SE,144,16.0,16.0,100,0.00,,BKN200,0.02,VWS V14.01,2013-06-03 12:07:00,
2013-06-03 08:08:00,78.1,78.1,29.89,SE,138,15.0,16.0,100,0.00,,BKN028,0.02,VWS V14.01,2013-06-03 12:08:00,
2013-06-03 08:09:00,78.1,78.1,29.89,SE,140,16.0,18.0,100,0.00,,BKN028,0.02,VWS V14.01,2013-06-03 12:09:00,
2013-06-03 08:11:00,77.9,77.9,29.89,SE,146,12.0,17.0,100,0.00,,BKN028,0.02,VWS V14.01,2013-06-03 12:11:00,
2013-06-03 08:12:00,77.9,77.9,29.89,SE,145,14.0,16.0,100,0.00,,BKN200,0.02,VWS V14.01,2013-06-03 12:12:00,
2013-06-03 08:13:00,77.9,77.9,29.89,SSE,157,16.0,16.0,100,0.00,,BKN028,0.02,VWS V14.01,2013-06-03 12:13:00,
2013-06-03 08:14:00,77.9,77.9,29.89,SSE,153,16.0,17.0,100,0.00,,BKN028,0.02,VWS V14.01,2013-06-03 12:14:00,
2013-06-03 08:15:00,77.9,77.9,29.89,SSE,155,16.0,16.0,100,0.00,,BKN028,0.02,VWS V14.01,2013-06-03 12:15:00,
2013-06-03 08:16:00,78.1,78.1,29.89,SSE,153,16.0,19.0,100,0.00,,BKN028,0.02,VWS V14.01,2013-06-03 12:16:00,
2013-06-03 08:17:00,78.1,78.1,29.89,SE,129,18.0,18.0,100,0.00,,BKN200,0.02,VWS V14.01,2013-06-03 12:17:00,
2013-06-03 08:18:00,78.1,78.1,29.89,SE,141,17.0,18.0,100,0.00,,BKN028,0.02,VWS V14.01,2013-06-03 12:18:00,
2013-06-03 08:19:00,78.1,78.1,29.89,SE,137,15.0,17.0,100,0.00,,BKN028,0.02,VWS V14.01,2013-06-03 12:19:00,
2013-06-03 08:20:00,78.1,78.1,29.89,SSE,147,18.0,18.0,100,0.00,,BKN028,0.02,VWS V14.01,2013-06-03 12:20:00,
2013-06-03 08:21:00,78.1,78.1,29.89,SE,146,15.0,18.0,100,0.00,,BKN028,0.02,VWS V14.01,2013-06-03 12:21:00,
2013-06-03 08:22:00,78.1,78.1,29.89,SE,138,19.0,19.0,100,0.00,,BKN200,0.02,VWS V14.01,2013-06-03 12:22:00,
2013-06-03 08:23:00,78.1,78.1,29.89,SSE,153,16.0,19.0,100,0.00,,BKN028,0.02,VWS V14.01,2013-06-03 12:23:00,
2013-06-03 08:24:00,78.1,78.1,29.89,SE,136,17.0,19.0,100,0.00,,BKN028,0.02,VWS V14.01,2013-06-03 12:24:00,
2013-06-03 08:25:00,77.9,77.9,29.89,SE,140,18.0,19.0,100,0.00,,BKN028,0.02,VWS V14.01,2013-06-03 12:25:00,
2013-06-03 08:26:00,77.9,77.9,29.89,SE,141,14.0,18.0,100,0.00,,BKN028,0.02,VWS V14.01,2013-06-03 12:26:00,
2013-06-03 08:27:00,78.1,78.1,29.89,SE,134,18.0,18.0,100,0.00,,BKN200,0.02,VWS V14.01,2013-06-03 12:27:00,
2013-06-03 08:28:00,77.9,77.9,29.89,SE,146,17.0,18.0,100,0.00,,BKN028,0.02,VWS V14.01,2013-06-03 12:28:00,
2013-06-03 08:29:00,77.9,77.9,29.89,SE,138,17.0,18.0,100,0.00,,BKN028,0.02,VWS V14.01,2013-06-03 12:29:00,
2013-06-03 08:30:00,77.9,77.9,29.89,SE,146,17.0,17.0,100,0.00,,BKN028,0.02,VWS V14.01,2013-06-03 12:30:00,
2013-06-03 08:31:00,77.9,77.9,29.89,SE,137,12.0,17.0,100,0.00,,BKN028,0.02,VWS V14.01,2013-06-03 12:31:00,
2013-06-03 08:32:00,77.9,77.9,29.89,SE,144,15.0,17.0,100,0.00,,BKN200,0.02,VWS V14.01,2013-06-03 12:32:00,
2013-06-03 08:33:00,77.9,77.9,29.89,SSE,151,14.0,17.0,100,0.00,,BKN028,0.02,VWS V14.01,2013-06-03 12:33:00,
2013-06-03 08:34:00,77.9,77.9,29.89,SE,146,16.0,16.0,100,0.00,,BKN028,0.02,VWS V14.01,2013-06-03 12:34:00,
2013-06-03 08:35:00,77.9,77.9,29.89,SE,135,11.0,16.0,100,0.00,,BKN028,0.02,VWS V14.01,2013-06-03 12:35:00,
2013-06-03 08:36:00,77.9,77.9,29.89,SE,137,16.0,16.0,100,0.00,,BKN028,0.02,VWS V14.01,2013-06-03 12:36:00,
2013-06-03 08:37:00,77.9,77.9,29.89,SSE,153,15.0,16.0,100,0.00,,BKN200,0.02,VWS V14.01,2013-06-03 12:37:00,
2013-06-03 08:38:00,77.9,77.9,29.89,SE,138,12.0,16.0,100,0.00,,BKN028,0.02,VWS V14.01,2013-06-03 12:38:00,
2013-06-03 08:39:00,77.9,77.9,29.89,SSE,155,14.0,15.0,100,0.00,,BKN028,0.02,VWS V14.01,2013-06-03 12:39:00,
2013-06-03 08:40:00,77.9,77.9,29.89,SE,142,15.0,15.0,100,0.00,,BKN028,0.02,VWS V14.01,2013-06-03 12:40:00,
2013-06-03 08:41:00,77.9,77.9,29.89,SE,132,13.0,15.0,100,0.00,,BKN028,0.02,VWS V14.01,2013-06-03 12:41:00,
2013-06-03 08:42:00,77.9,77.9,29.90,SSE,150,15.0,16.0,100,0.00,,BKN200,0.02,VWS V14.01,2013-06-03 12:42:00,
2013-06-03 08:43:00,77.9,77.9,29.90,SE,144,14.0,16.0,100,0.00,,BKN028,0.02,VWS V14.01,2013-06-03 12:43:00,
2013-06-03 08:44:00,77.9,77.9,29.90,ESE,119,16.0,17.0,100,0.00,,BKN028,0.02,VWS V14.01,2013-06-03 12:44:00,
2013-06-03 08:45:00,77.9,77.9,29.90,SE,144,15.0,16.0,100,0.00,,BKN028,0.02,VWS V14.01,2013-06-03 12:45:00,
2013-06-03 08:46:00,77.9,77.9,29.89,SE,145,15.0,17.0,100,0.00,,BKN028,0.02,VWS V14.01,2013-06-03 12:46:00,
2013-06-03 08:47:00,77.9,77.9,29.89,SE,138,15.0,15.0,100,0.00,,BKN200,0.02,VWS V14.01,2013-06-03 12:47:00,
2013-06-03 08:48:00,77.9,77.9,29.89,SE,144,16.0,16.0,100,0.00,,BKN028,0.02,VWS V14.01,2013-06-03 12:48:00,
2013-06-03 08:49:00,77.9,77.9,29.89,SE,137,15.0,16.0,100,0.00,,BKN028,0.02,VWS V14.01,2013-06-03 12:49:00,
2013-06-03 08:50:00,77.9,77.9,29.89,SE,139,13.0,15.0,100,0.00,,BKN028,0.02,VWS V14.01,2013-06-03 12:50:00,
2013-06-03 08:51:00,77.9,77.9,29.89,SE,127,14.0,15.0,100,0.00,,BKN028,0.02,VWS V14.01,2013-06-03 12:51:00,
2013-06-03 08:52:00,77.9,77.9,29.90,SSE,147,12.0,14.0,100,0.00,,BKN200,0.02,VWS V14.01,2013-06-03 12:52:00,
2013-06-03 08:53:00,77.9,77.9,29.90,SSE,148,13.0,14.0,100,0.00,,BKN028,0.02,VWS V14.01,2013-06-03 12:53:00,
2013-06-03 08:54:00,77.9,77.9,29.90,SSE,164,13.0,14.0,100,0.00,,BKN028,0.02,VWS V14.01,2013-06-03 12:54:00,
2013-06-03 08:55:00,77.9,77.9,29.90,SE,146,11.0,14.0,100,0.00,,BKN028,0.02,VWS V14.01,2013-06-03 12:55:00,
2013-06-03 08:56:00,77.9,77.9,29.90,SE,143,10.0,13.0,100,0.00,,BKN028,0.02,VWS V14.01,2013-06-03 12:56:00,
2013-06-03 08:57:00,78.1,78.1,29.90,SE,146,14.0,14.0,100,0.00,,BKN200,0.02,VWS V14.01,2013-06-03 12:57:00,
2013-06-03 08:58:00,78.1,78.1,29.90,SSE,149,11.0,14.0,100,0.00,,BKN028,0.02,VWS V14.01,2013-06-03 12:58:00,
2013-06-03 08:59:00,78.1,78.1,29.90,SSE,155,13.0,13.0,100,0.00,,BKN028,0.02,VWS V14.01,2013-06-03 12:59:00,
2013-06-03 09:00:00,78.1,77.8,29.90,SSE,165,11.0,13.0,99,0.00,,BKN028,0.02,VWS V14.01,2013-06-03 13:00:00,
2013-06-03 09:01:00,78.1,77.8,29.90,South,179,11.0,12.0,99,0.00,,BKN028,0.02,VWS V14.01,2013-06-03 13:01:00,
2013-06-03 09:02:00,78.1,77.8,29.90,SSE,163,12.0,13.0,99,0.00,,BKN200,0.02,VWS V14.01,2013-06-03 13:02:00,
2013-06-03 09:03:00,78.1,77.8,29.90,South,171,10.0,13.0,99,0.00,,BKN028,0.02,VWS V14.01,2013-06-03 13:03:00,
2013-06-03 09:04:00,78.1,77.8,29.90,South,169,10.0,11.0,99,0.00,,BKN028,0.02,VWS V14.01,2013-06-03 13:04:00,
2013-06-03 09:05:00,78.3,78.0,29.90,SSE,163,10.0,11.0,99,0.00,,BKN028,0.02,VWS V14.01,2013-06-03 13:05:00,
2013-06-03 09:06:00,78.3,78.0,29.90,South,171,12.0,12.0,99,0.00,,BKN028,0.02,VWS V14.01,2013-06-03 13:06:00,
2013-06-03 09:07:00,78.3,78.0,29.91,SSE,164,14.0,14.0,99,0.00,,BKN200,0.02,VWS V14.01,2013-06-03 13:07:00,
2013-06-03 09:08:00,78.3,78.0,29.91,South,175,12.0,14.0,99,0.00,,BKN028,0.02,VWS V14.01,2013-06-03 13:08:00,
2013-06-03 09:09:00,78.3,78.0,29.91,SSE,159,10.0,15.0,99,0.00,,BKN028,0.02,VWS V14.01,2013-06-03 13:09:00,
2013-06-03 09:10:00,78.3,78.0,29.91,SSE,165,12.0,12.0,99,0.00,,BKN028,0.02,VWS V14.01,2013-06-03 13:10:00,
2013-06-03 09:11:00,78.5,78.2,29.91,SSE,158,13.0,13.0,99,0.00,,BKN028,0.02,VWS V14.01,2013-06-03 13:11:00,
2013-06-03 09:12:00,78.3,78.0,29.91,SSE,155,10.0,12.0,99,0.00,,BKN200,0.02,VWS V14.01,2013-06-03 13:12:00,
2013-06-03 09:13:00,78.3,78.0,29.91,SSE,165,11.0,12.0,99,0.00,,BKN028,0.02,VWS V14.01,2013-06-03 13:13:00,
2013-06-03 09:14:00,78.5,78.2,29.91,South,171,11.0,11.0,99,0.00,,BKN028,0.02,VWS V14.01,2013-06-03 13:14:00,
2013-06-03 09:15:00,78.3,78.0,29.91,South,170,9.0,11.0,99,0.00,,BKN028,0.02,VWS V14.01,2013-06-03 13:15:00,
2013-06-03 09:16:00,78.3,78.0,29.91,South,181,14.0,14.0,99,0.00,,BKN028,0.02,VWS V14.01,2013-06-03 13:16:00,
2013-06-03 09:17:00,78.3,77.7,29.91,SSE,153,13.0,14.0,98,0.00,,BKN200,0.02,VWS V14.01,2013-06-03 13:17:00,
2013-06-03 09:18:00,78.3,77.7,29.91,South,174,10.0,14.0,98,0.00,,BKN028,0.02,VWS V14.01,2013-06-03 13:18:00,
2013-06-03 09:19:00,78.3,78.0,29.91,South,184,9.0,12.0,99,0.00,,BKN028,0.02,VWS V14.01,2013-06-03 13:19:00,
2013-06-03 09:20:00,78.3,78.0,29.91,South,169,12.0,14.0,99,0.00,,BKN028,0.02,VWS V14.01,2013-06-03 13:20:00,
2013-06-03 09:21:00,78.3,78.0,29.91,South,182,7.0,12.0,99,0.00,,BKN028,0.02,VWS V14.01,2013-06-03 13:21:00,
2013-06-03 09:22:00,78.3,78.0,29.91,SSE,160,12.0,12.0,99,0.00,,BKN200,0.02,VWS V14.01,2013-06-03 13:22:00,
2013-06-03 09:23:00,78.3,78.0,29.91,South,179,9.0,12.0,99,0.00,,BKN028,0.02,VWS V14.01,2013-06-03 13:23:00,
2013-06-03 09:24:00,78.3,77.7,29.91,SSE,165,10.0,13.0,98,0.00,,BKN028,0.02,VWS V14.01,2013-06-03 13:24:00,
2013-06-03 09:25:00,78.3,78.0,29.91,SSE,157,9.0,10.0,99,0.00,,BKN028,0.02,VWS V14.01,2013-06-03 13:25:00,
2013-06-03 09:26:00,78.5,78.2,29.91,South,178,13.0,13.0,99,0.00,,BKN028,0.02,VWS V14.01,2013-06-03 13:26:00,
2013-06-03 09:27:00,78.3,78.0,29.91,SSE,161,9.0,11.0,99,0.00,,BKN200,0.02,VWS V14.01,2013-06-03 13:27:00,
2013-06-03 09:28:00,78.3,78.0,29.91,South,178,12.0,12.0,99,0.00,,BKN028,0.02,VWS V14.01,2013-06-03 13:28:00,
2013-06-03 09:29:00,78.3,77.7,29.91,SSE,164,9.0,12.0,98,0.00,,BKN028,0.02,VWS V14.01,2013-06-03 13:29:00,
2013-06-03 09:30:00,78.3,78.0,29.91,SSE,167,7.0,10.0,99,0.00,,BKN028,0.02,VWS V14.01,2013-06-03 13:30:00,
2013-06-03 09:31:00,78.5,78.2,29.91,South,177,11.0,12.0,99,0.00,,BKN028,0.02,VWS V14.01,2013-06-03 13:31:00,
2013-06-03 09:32:00,78.3,77.7,29.91,South,185,15.0,15.0,98,0.00,,BKN200,0.02,VWS V14.01,2013-06-03 13:32:00,
2013-06-03 09:33:00,78.3,77.7,29.91,South,181,16.0,16.0,98,0.00,,BKN028,0.02,VWS V14.01,2013-06-03 13:33:00,
2013-06-03 09:34:00,78.3,77.7,29.91,South,185,13.0,16.0,98,0.00,,BKN028,0.02,VWS V14.01,2013-06-03 13:34:00,
2013-06-03 09:35:00,78.3,77.7,29.91,South,171,9.0,13.0,98,0.00,,BKN028,0.02,VWS V14.01,2013-06-03 13:35:00,
2013-06-03 09:36:00,78.3,78.0,29.91,South,175,10.0,15.0,99,0.00,,BKN028,0.02,VWS V14.01,2013-06-03 13:36:00,
2013-06-03 09:37:00,78.3,77.7,29.91,South,190,13.0,15.0,98,0.00,,BKN200,0.02,VWS V14.01,2013-06-03 13:37:00,
2013-06-03 09:38:00,78.3,77.7,29.91,South,177,13.0,15.0,98,0.00,,BKN028,0.02,VWS V14.01,2013-06-03 13:38:00,
2013-06-03 09:39:00,78.3,77.7,29.91,South,175,12.0,13.0,98,0.00,,BKN028,0.02,VWS V14.01,2013-06-03 13:39:00,
2013-06-03 09:40:00,78.3,77.7,29.91,SSE,167,11.0,12.0,98,0.00,,BKN028,0.02,VWS V14.01,2013-06-03 13:40:00,
2013-06-03 09:41:00,78.3,77.7,29.91,South,183,14.0,15.0,98,0.00,,BKN028,0.02,VWS V14.01,2013-06-03 13:41:00,
2013-06-03 09:42:00,78.3,77.7,29.91,SSE,167,10.0,13.0,98,0.00,,,0.02,VWS V14.01,2013-06-03 13:42:00,
2013-06-03 09:43:00,78.3,77.7,29.91,SSE,168,12.0,13.0,98,0.00,,BKN028,0.02,VWS V14.01,2013-06-03 13:43:00,
2013-06-03 09:44:00,78.3,77.7,29.91,South,170,9.0,12.0,98,0.00,,BKN028,0.02,VWS V14.01,2013-06-03 13:44:00,
2013-06-03 09:45:00,78.3,77.7,29.91,SSE,158,10.0,11.0,98,0.00,,BKN028,0.02,VWS V14.01,2013-06-03 13:45:00,
2013-06-03 09:46:00,78.5,78.2,29.91,SSE,166,10.0,11.0,99,0.00,,BKN028,0.02,VWS V14.01,2013-06-03 13:46:00,
2013-06-03 09:47:00,78.5,78.2,29.91,South,186,14.0,14.0,99,0.00,,,0.02,VWS V14.01,2013-06-03 13:47:00,
2013-06-03 09:48:00,78.5,78.2,29.91,South,173,11.0,14.0,99,0.00,,BKN028,0.02,VWS V14.01,2013-06-03 13:48:00,
2013-06-03 09:49:00,78.5,78.2,29.91,SSE,162,12.0,14.0,99,0.00,,BKN028,0.02,VWS V14.01,2013-06-03 13:49:00,
2013-06-03 09:50:00,78.5,77.9,29.91,South,181,13.0,14.0,98,0.00,,BKN028,0.02,VWS V14.01,2013-06-03 13:50:00,
2013-06-03 09:51:00,78.5,77.9,29.91,SSE,166,12.0,13.0,98,0.00,,BKN028,0.02,VWS V14.01,2013-06-03 13:51:00,
2013-06-03 09:52:00,78.5,78.2,29.91,South,181,11.0,11.0,99,0.00,,,0.02,VWS V14.01,2013-06-03 13:52:00,
2013-06-03 09:53:00,78.5,78.2,29.91,South,178,14.0,14.0,99,0.00,,BKN028,0.02,VWS V14.01,2013-06-03 13:53:00,
2013-06-03 09:54:00,78.5,77.9,29.91,South,174,12.0,14.0,98,0.00,,BKN028,0.02,VWS V14.01,2013-06-03 13:54:00,
2013-06-03 09:55:00,78.5,77.9,29.91,South,179,13.0,14.0,98,0.00,,BKN028,0.02,VWS V14.01,2013-06-03 13:55:00,
2013-06-03 09:56:00,78.3,77.7,29.91,South,171,11.0,15.0,98,0.00,,BKN028,0.02,VWS V14.01,2013-06-03 13:56:00,
2013-06-03 09:57:00,78.5,78.2,29.91,South,178,14.0,14.0,99,0.00,,,0.02,VWS V14.01,2013-06-03 13:57:00,
2013-06-03 09:58:00,78.5,78.2,29.91,South,172,10.0,14.0,99,0.00,,BKN028,0.02,VWS V14.01,2013-06-03 13:58:00,
2013-06-03 09:59:00,78.5,77.9,29.91,South,184,11.0,15.0,98,0.00,,BKN028,0.02,VWS V14.01,2013-06-03 13:59:00,
2013-06-03 10:00:00,78.5,78.2,29.91,South,178,10.0,11.0,99,0.00,,BKN028,0.02,VWS V14.01,2013-06-03 14:00:00,
2013-06-03 10:01:00,78.5,78.2,29.91,SSE,165,12.0,13.0,99,0.00,,BKN028,0.02,VWS V14.01,2013-06-03 14:01:00,
2013-06-03 10:02:00,78.5,77.9,29.91,South,177,14.0,14.0,98,0.00,,,0.02,VWS V14.01,2013-06-03 14:02:00,
2013-06-03 10:03:00,78.5,77.9,29.91,South,171,13.0,14.0,98,0.00,,BKN028,0.02,VWS V14.01,2013-06-03 14:03:00,
2013-06-03 10:04:00,78.5,77.9,29.91,SSE,165,12.0,15.0,98,0.00,,BKN028,0.02,VWS V14.01,2013-06-03 14:04:00,
2013-06-03 10:05:00,78.5,77.9,29.91,South,184,14.0,17.0,98,0.00,,BKN028,0.02,VWS V14.01,2013-06-03 14:05:00,
2013-06-03 10:06:00,78.5,77.9,29.91,SSE,165,13.0,14.0,98,0.00,,BKN028,0.02,VWS V14.01,2013-06-03 14:06:00,
2013-06-03 10:07:00,78.5,78.2,29.91,South,182,15.0,16.0,99,0.00,,,0.02,VWS V14.01,2013-06-03 14:07:00,
2013-06-03 10:08:00,78.5,77.9,29.91,South,178,16.0,16.0,98,0.00,,BKN028,0.02,VWS V14.01,2013-06-03 14:08:00,
2013-06-03 10:09:00,78.5,77.9,29.91,South,179,13.0,16.0,98,0.00,,BKN028,0.02,VWS V14.01,2013-06-03 14:09:00,
2013-06-03 10:10:00,78.5,78.2,29.91,SSE,161,11.0,13.0,99,0.00,,BKN028,0.02,VWS V14.01,2013-06-03 14:10:00,
2013-06-03 10:11:00,78.6,78.0,29.91,South,181,9.0,16.0,98,0.00,,BKN028,0.02,VWS V14.01,2013-06-03 14:11:00,
2013-06-03 10:12:00,78.6,78.3,29.91,South,181,15.0,15.0,99,0.00,,,0.02,VWS V14.01,2013-06-03 14:12:00,
2013-06-03 10:13:00,78.6,78.3,29.91,South,176,14.0,16.0,99,0.00,,BKN028,0.02,VWS V14.01,2013-06-03 14:13:00,
2013-06-03 10:14:00,78.6,78.0,29.91,South,175,14.0,14.0,98,0.00,,BKN028,0.02,VWS V14.01,2013-06-03 14:14:00,
2013-06-03 10:15:00,78.6,78.0,29.91,South,189,15.0,16.0,98,0.00,,BKN028,0.02,VWS V14.01,2013-06-03 14:15:00,
2013-06-03 10:16:00,78.6,78.0,29.91,South,188,17.0,17.0,98,0.00,,BKN028,0.02,VWS V14.01,2013-06-03 14:16:00,
2013-06-03 10:17:00,78.6,78.0,29.91,SSE,163,12.0,16.0,98,0.00,,,0.02,VWS V14.01,2013-06-03 14:17:00,
2013-06-03 10:18:00,78.6,78.0,29.91,South,178,10.0,16.0,98,0.00,,BKN028,0.02,VWS V14.01,2013-06-03 14:18:00,
2013-06-03 10:19:00,78.6,78.0,29.91,South,172,12.0,14.0,98,0.00,,BKN028,0.02,VWS V14.01,2013-06-03 14:19:00,
2013-06-03 10:20:00,78.8,78.2,29.91,South,169,11.0,14.0,98,0.00,,BKN028,0.02,VWS V14.01,2013-06-03 14:20:00,
2013-06-03 10:21:00,78.8,78.2,29.91,South,181,16.0,16.0,98,0.00,,BKN028,0.02,VWS V14.01,2013-06-03 14:21:00,
2013-06-03 10:22:00,78.8,78.2,29.91,SSW,200,15.0,15.0,98,0.00,,,0.02,VWS V14.01,2013-06-03 14:22:00,
2013-06-03 10:23:00,78.6,78.0,29.91,SSW,192,10.0,15.0,98,0.00,,BKN028,0.02,VWS V14.01,2013-06-03 14:23:00,
2013-06-03 10:24:00,78.6,78.0,29.91,SSW,200,12.0,14.0,98,0.00,,BKN028,0.02,VWS V14.01,2013-06-03 14:24:00,
2013-06-03 10:25:00,78.6,78.0,29.91,South,182,11.0,14.0,98,0.00,,BKN028,0.02,VWS V14.01,2013-06-03 14:25:00,
2013-06-03 10:26:00,78.6,78.0,29.91,South,182,10.0,14.0,98,0.00,,BKN028,0.02,VWS V14.01,2013-06-03 14:26:00,
2013-06-03 10:27:00,78.6,78.0,29.91,South,183,13.0,15.0,98,0.00,,,0.02,VWS V14.01,2013-06-03 14:27:00,
2013-06-03 10:28:00,78.6,78.0,29.91,South,190,11.0,15.0,98,0.00,,BKN028,0.02,VWS V14.01,2013-06-03 14:28:00,
2013-06-03 10:29:00,78.6,78.0,29.91,SSW,193,13.0,15.0,98,0.00,,BKN028,0.02,VWS V14.01,2013-06-03 14:29:00,
2013-06-03 10:30:00,78.6,78.0,29.91,South,170,14.0,14.0,98,0.00,,BKN028,0.02,VWS V14.01,2013-06-03 14:30:00,
2013-06-03 10:31:00,78.8,78.2,29.91,South,182,16.0,16.0,98,0.00,,BKN028,0.02,VWS V14.01,2013-06-03 14:31:00,
2013-06-03 10:32:00,78.8,77.9,29.91,South,178,14.0,14.0,97,0.00,,,0.02,VWS V14.01,2013-06-03 14:32:00,
2013-06-03 10:33:00,78.8,77.9,29.91,SSW,199,12.0,14.0,97,0.00,,BKN028,0.02,VWS V14.01,2013-06-03 14:33:00,
2013-06-03 10:34:00,78.8,77.9,29.91,South,189,15.0,15.0,97,0.00,,BKN028,0.02,VWS V14.01,2013-06-03 14:34:00,
2013-06-03 10:35:00,78.8,77.9,29.91,SSW,194,12.0,15.0,97,0.00,,BKN028,0.02,VWS V14.01,2013-06-03 14:35:00,
2013-06-03 10:36:00,79.0,78.1,29.91,SSW,192,10.0,14.0,97,0.00,,BKN028,0.02,VWS V14.01,2013-06-03 14:36:00,
2013-06-03 10:37:00,79.2,78.6,29.91,SSW,202,13.0,15.0,98,0.00,,,0.02,VWS V14.01,2013-06-03 14:37:00,
2013-06-03 10:38:00,79.2,78.6,29.91,SSW,204,13.0,15.0,98,0.00,,BKN028,0.02,VWS V14.01,2013-06-03 14:38:00,
2013-06-03 10:39:00,79.2,78.3,29.91,South,182,15.0,15.0,97,0.00,,BKN028,0.02,VWS V14.01,2013-06-03 14:39:00,
2013-06-03 10:40:00,79.2,78.3,29.91,South,184,13.0,16.0,97,0.00,,BKN028,0.02,VWS V14.01,2013-06-03 14:40:00,
2013-06-03 10:41:00,79.2,78.3,29.91,SSE,161,13.0,14.0,97,0.00,,BKN028,0.02,VWS V14.01,2013-06-03 14:41:00,
2013-06-03 10:42:00,79.0,78.1,29.91,South,173,12.0,17.0,97,0.00,,OVC200,0.02,VWS V14.01,2013-06-03 14:42:00,
2013-06-03 10:43:00,79.0,78.1,29.91,SSW,205,15.0,17.0,97,0.00,,BKN028,0.02,VWS V14.01,2013-06-03 14:43:00,
2013-06-03 10:44:00,79.0,78.1,29.91,South,186,15.0,19.0,97,0.00,,BKN028,0.02,VWS V14.01,2013-06-03 14:44:00,
2013-06-03 10:45:00,79.0,78.1,29.91,South,175,11.0,16.0,97,0.00,,BKN028,0.02,VWS V14.01,2013-06-03 14:45:00,
2013-06-03 10:46:00,79.0,78.1,29.91,SSW,209,14.0,16.0,97,0.00,,BKN028,0.02,VWS V14.01,2013-06-03 14:46:00,
2013-06-03 10:47:00,79.0,78.1,29.91,South,175,14.0,17.0,97,0.00,,OVC200,0.02,VWS V14.01,2013-06-03 14:47:00,
2013-06-03 10:48:00,79.0,78.1,29.91,SSW,194,12.0,17.0,97,0.00,,BKN028,0.02,VWS V14.01,2013-06-03 14:48:00,
2013-06-03 10:49:00,79.0,78.1,29.91,SSW,205,13.0,15.0,97,0.00,,BKN028,0.02,VWS V14.01,2013-06-03 14:49:00,
2013-06-03 10:50:00,79.2,78.3,29.91,South,179,15.0,15.0,97,0.00,,BKN028,0.02,VWS V14.01,2013-06-03 14:50:00,
2013-06-03 10:51:00,79.2,78.3,29.91,South,172,16.0,16.0,97,0.00,,BKN028,0.02,VWS V14.01,2013-06-03 14:51:00,
2013-06-03 10:52:00,79.2,78.3,29.91,SW,226,14.0,14.0,97,0.00,,OVC200,0.02,VWS V14.01,2013-06-03 14:52:00,
2013-06-03 10:53:00,79.2,78.0,29.91,SSW,199,14.0,14.0,96,0.00,,BKN028,0.02,VWS V14.01,2013-06-03 14:53:00,
2013-06-03 10:54:00,79.2,78.0,29.90,SSW,205,14.0,15.0,96,0.00,,BKN028,0.02,VWS V14.01,2013-06-03 14:54:00,
2013-06-03 10:55:00,79.2,78.0,29.90,South,180,14.0,15.0,96,0.00,,BKN028,0.02,VWS V14.01,2013-06-03 14:55:00,
2013-06-03 10:56:00,79.2,78.0,29.90,SW,216,12.0,16.0,96,0.00,,BKN028,0.02,VWS V14.01,2013-06-03 14:56:00,
2013-06-03 10:57:00,79.2,78.0,29.90,SSW,195,13.0,17.0,96,0.00,,OVC200,0.02,VWS V14.01,2013-06-03 14:57:00,
2013-06-03 10:58:00,79.2,78.0,29.90,South,188,16.0,17.0,96,0.00,,BKN028,0.02,VWS V14.01,2013-06-03 14:58:00,
2013-06-03 10:59:00,79.2,78.0,29.90,SSE,159,14.0,16.0,96,0.00,,BKN028,0.02,VWS V14.01,2013-06-03 14:59:00,
2013-06-03 11:00:00,79.4,78.2,29.90,South,174,13.0,14.0,96,0.00,,BKN028,0.02,VWS V14.01,2013-06-03 15:00:00,
2013-06-03 11:01:00,79.4,78.2,29.90,SSW,192,15.0,15.0,96,0.00,,BKN028,0.02,VWS V14.01,2013-06-03 15:01:00,
2013-06-03 11:02:00,79.4,77.8,29.90,South,180,16.0,16.0,95,0.00,,OVC200,0.02,VWS V14.01,2013-06-03 15:02:00,
2013-06-03 11:03:00,79.4,78.2,29.90,South,180,14.0,17.0,96,0.00,,BKN028,0.02,VWS V14.01,2013-06-03 15:03:00,
2013-06-03 11:04:00,79.6,78.4,29.90,South,186,11.0,16.0,96,0.00,,BKN028,0.02,VWS V14.01,2013-06-03 15:04:00,
2013-06-03 11:05:00,79.8,78.6,29.90,SSW,194,17.0,17.0,96,0.00,,BKN028,0.02,VWS V14.01,2013-06-03 15:05:00,
2013-06-03 11:06:00,79.8,78.6,29.90,South,176,13.0,17.0,96,0.00,,BKN028,0.02,VWS V14.01,2013-06-03 15:06:00,
2013-06-03 11:07:00,79.9,78.7,29.90,South,172,12.0,12.0,96,0.00,,OVC200,0.02,VWS V14.01,2013-06-03 15:07:00,
2013-06-03 11:08:00,79.9,78.7,29.90,SSE,165,12.0,17.0,96,0.00,,BKN028,0.02,VWS V14.01,2013-06-03 15:08:00,
2013-06-03 11:09:00,79.9,78.3,29.90,South,185,13.0,15.0,95,0.00,,BKN028,0.02,VWS V14.01,2013-06-03 15:09:00,
2013-06-03 11:10:00,80.1,78.5,29.90,South,181,17.0,17.0,95,0.00,,BKN028,0.02,VWS V14.01,2013-06-03 15:10:00,
2013-06-03 11:11:00,79.9,78.3,29.91,SSW,204,15.0,17.0,95,0.00,,BKN028,0.02,VWS V14.01,2013-06-03 15:11:00,
2013-06-03 11:12:00,79.9,78.0,29.90,South,179,14.0,14.0,94,0.00,,OVC200,0.02,VWS V14.01,2013-06-03 15:12:00,
2013-06-03 11:13:00,80.1,78.5,29.90,South,186,15.0,18.0,95,0.00,,BKN028,0.02,VWS V14.01,2013-06-03 15:13:00,
2013-06-03 11:14:00,80.1,78.5,29.90,South,182,17.0,17.0,95,0.00,,BKN028,0.02,VWS V14.01,2013-06-03 15:14:00,
2013-06-03 11:15:00,80.1,78.5,29.90,South,169,15.0,17.0,95,0.00,,BKN028,0.02,VWS V14.01,2013-06-03 15:15:00,
2013-06-03 11:16:00,80.1,78.5,29.91,South,173,14.0,15.0,95,0.00,,BKN028,0.02,VWS V14.01,2013-06-03 15:16:00,
2013-06-03 11:17:00,80.3,78.7,29.91,South,182,16.0,16.0,95,0.00,,OVC200,0.02,VWS V14.01,2013-06-03 15:17:00,
2013-06-03 11:18:00,80.3,78.7,29.91,South,169,12.0,16.0,95,0.00,,BKN028,0.02,VWS V14.01,2013-06-03 15:18:00,
2013-06-03 11:19:00,80.3,78.4,29.91,South,179,13.0,14.0,94,0.00,,BKN028,0.02,VWS V14.01,2013-06-03 15:19:00,
2013-06-03 11:20:00,80.3,78.4,29.91,SSW,200,12.0,14.0,94,0.00,,BKN028,0.02,VWS V14.01,2013-06-03 15:20:00,
2013-06-03 11:21:00,80.3,78.4,29.91,South,188,13.0,15.0,94,0.00,,BKN028,0.02,VWS V14.01,2013-06-03 15:21:00,
2013-06-03 11:22:00,80.1,78.2,29.91,South,181,11.0,16.0,94,0.00,,OVC200,0.02,VWS V14.01,2013-06-03 15:22:00,
2013-06-03 11:23:00,80.1,78.2,29.91,South,184,16.0,16.0,94,0.00,,BKN028,0.02,VWS V14.01,2013-06-03 15:23:00,
2013-06-03 11:24:00,80.1,78.2,29.91,South,177,16.0,16.0,94,0.00,,BKN028,0.02,VWS V14.01,2013-06-03 15:24:00,
2013-06-03 11:25:00,80.3,78.4,29.91,SSE,167,13.0,16.0,94,0.00,,BKN028,0.02,VWS V14.01,2013-06-03 15:25:00,
2013-06-03 11:26:00,80.3,78.4,29.91,South,174,10.0,15.0,94,0.00,,BKN028,0.02,VWS V14.01,2013-06-03 15:26:00,
2013-06-03 11:27:00,80.5,78.6,29.91,SSW,194,13.0,13.0,94,0.00,,OVC200,0.02,VWS V14.01,2013-06-03 15:27:00,
2013-06-03 11:28:00,80.5,78.6,29.91,SSW,192,14.0,14.0,94,0.00,,BKN028,0.02,VWS V14.01,2013-06-03 15:28:00,
2013-06-03 11:29:00,80.5,78.6,29.91,South,171,15.0,15.0,94,0.00,,BKN028,0.02,VWS V14.01,2013-06-03 15:29:00,
2013-06-03 11:30:00,80.5,78.6,29.91,South,185,16.0,17.0,94,0.00,,BKN028,0.02,VWS V14.01,2013-06-03 15:30:00,
2013-06-03 11:31:00,80.5,78.3,29.91,South,186,15.0,16.0,93,0.00,,BKN028,0.02,VWS V14.01,2013-06-03 15:31:00,
2013-06-03 11:32:00,80.5,78.6,29.91,SSW,194,14.0,15.0,94,0.00,,OVC200,0.02,VWS V14.01,2013-06-03 15:32:00,
2013-06-03 11:33:00,80.5,78.6,29.91,SSW,200,14.0,15.0,94,0.00,,BKN028,0.02,VWS V14.01,2013-06-03 15:33:00,
2013-06-03 11:34:00,80.5,78.3,29.91,South,185,15.0,16.0,93,0.00,,BKN028,0.02,VWS V14.01,2013-06-03 15:34:00,
2013-06-03 11:35:00,80.3,78.1,29.91,South,184,15.0,15.0,93,0.00,,BKN028,0.02,VWS V14.01,2013-06-03 15:35:00,
2013-06-03 11:36:00,80.3,78.4,29.91,SSW,199,15.0,15.0,94,0.00,,BKN028,0.02,VWS V14.01,2013-06-03 15:36:00,
2013-06-03 11:37:00,80.3,78.1,29.91,South,180,16.0,16.0,93,0.00,,OVC200,0.02,VWS V14.01,2013-06-03 15:37:00,
2013-06-03 11:38:00,80.3,78.4,29.91,South,176,14.0,16.0,94,0.00,,BKN028,0.02,VWS V14.01,2013-06-03 15:38:00,
2013-06-03 11:39:00,80.3,78.4,29.91,South,181,14.0,15.0,94,0.00,,BKN028,0.02,VWS V14.01,2013-06-03 15:39:00,
2013-06-03 11:40:00,80.5,78.9,29.91,SSE,166,10.0,14.0,95,0.00,,BKN028,0.02,VWS V14.01,2013-06-03 15:40:00,
2013-06-03 11:41:00,80.5,78.6,29.91,SSW,196,11.0,16.0,94,0.00,,BKN028,0.02,VWS V14.01,2013-06-03 15:41:00,
2013-06-03 11:42:00,80.7,78.8,29.91,South,178,16.0,16.0,94,0.00,,OVC200,0.02,VWS V14.01,2013-06-03 15:42:00,
2013-06-03 11:43:00,80.5,78.6,29.91,South,175,13.0,16.0,94,0.00,,BKN028,0.02,VWS V14.01,2013-06-03 15:43:00,
2013-06-03 11:44:00,80.5,78.6,29.91,South,184,15.0,17.0,94,0.00,,BKN028,0.02,VWS V14.01,2013-06-03 15:44:00,
2013-06-03 11:45:00,80.5,78.6,29.91,SSE,165,15.0,17.0,94,0.00,,BKN028,0.02,VWS V14.01,2013-06-03 15:45:00,
2013-06-03 11:46:00,80.5,78.6,29.91,South,180,13.0,17.0,94,0.00,,BKN028,0.02,VWS V14.01,2013-06-03 15:46:00,
2013-06-03 11:47:00,80.5,78.6,29.91,South,180,16.0,16.0,94,0.00,,OVC200,0.02,VWS V14.01,2013-06-03 15:47:00,
2013-06-03 11:48:00,80.5,78.6,29.91,South,182,15.0,16.0,94,0.00,,BKN028,0.02,VWS V14.01,2013-06-03 15:48:00,
2013-06-03 11:49:00,80.3,78.1,29.91,South,174,14.0,15.0,93,0.00,,BKN028,0.02,VWS V14.01,2013-06-03 15:49:00,
2013-06-03 11:50:00,80.3,78.4,29.91,South,186,13.0,15.0,94,0.00,,BKN028,0.02,VWS V14.01,2013-06-03 15:50:00,
2013-06-03 11:51:00,80.3,78.4,29.91,SSE,161,12.0,13.0,94,0.00,,BKN028,0.02,VWS V14.01,2013-06-03 15:51:00,
2013-06-03 11:52:00,80.5,78.6,29.91,South,170,13.0,17.0,94,0.00,,OVC200,0.02,VWS V14.01,2013-06-03 15:52:00,
2013-06-03 11:53:00,80.5,78.6,29.91,South,183,16.0,17.0,94,0.00,,BKN028,0.02,VWS V14.01,2013-06-03 15:53:00,
2013-06-03 11:54:00,80.5,78.6,29.91,South,182,17.0,20.0,94,0.00,,BKN028,0.02,VWS V14.01,2013-06-03 15:54:00,
2013-06-03 11:55:00,80.5,78.6,29.91,SSW,192,13.0,17.0,94,0.00,,BKN028,0.02,VWS V14.01,2013-06-03 15:55:00,
2013-06-03 11:56:00,80.5,78.3,29.91,South,187,16.0,16.0,93,0.00,,BKN028,0.02,VWS V14.01,2013-06-03 15:56:00,
2013-06-03 11:57:00,80.3,78.1,29.91,SSW,196,15.0,15.0,93,0.00,,OVC200,0.02,VWS V14.01,2013-06-03 15:57:00,
2013-06-03 11:58:00,80.3,78.1,29.91,South,173,14.0,15.0,93,0.00,,BKN028,0.02,VWS V14.01,2013-06-03 15:58:00,
2013-06-03 11:59:00,80.3,78.1,29.91,South,180,13.0,14.0,93,0.00,,BKN028,0.02,VWS V14.01,2013-06-03 15:59:00,
2013-06-03 12:00:00,80.5,78.6,29.91,South,169,13.0,15.0,94,0.00,,BKN028,0.02,VWS V14.01,2013-06-03 16:00:00,
2013-06-03 12:01:00,80.5,78.6,29.91,South,181,17.0,17.0,94,0.00,,BKN028,0.02,VWS V14.01,2013-06-03 16:01:00,
2013-06-03 12:02:00,80.7,78.8,29.91,South,176,14.0,14.0,94,0.00,,OVC200,0.02,VWS V14.01,2013-06-03 16:02:00,
2013-06-03 12:03:00,80.7,78.8,29.91,South,185,16.0,16.0,94,0.00,,BKN028,0.02,VWS V14.01,2013-06-03 16:03:00,
2013-06-03 12:04:00,80.7,78.5,29.91,South,191,14.0,16.0,93,0.00,,BKN028,0.02,VWS V14.01,2013-06-03 16:04:00,
2013-06-03 12:05:00,80.7,78.5,29.91,South,176,15.0,17.0,93,0.00,,BKN028,0.02,VWS V14.01,2013-06-03 16:05:00,
2013-06-03 12:06:00,80.7,78.8,29.91,South,186,12.0,17.0,94,0.00,,BKN028,0.02,VWS V14.01,2013-06-03 16:06:00,
2013-06-03 12:07:00,80.9,78.7,29.91,South,178,14.0,15.0,93,0.00,,OVC200,0.02,VWS V14.01,2013-06-03 16:07:00,
2013-06-03 12:08:00,80.9,78.7,29.91,South,180,14.0,15.0,93,0.00,,BKN028,0.02,VWS V14.01,2013-06-03 16:08:00,
2013-06-03 12:09:00,80.9,78.7,29.91,South,185,12.0,18.0,93,0.00,,BKN028,0.02,VWS V14.01,2013-06-03 16:09:00,
2013-06-03 12:10:00,80.9,78.7,29.91,South,180,11.0,13.0,93,0.00,,BKN028,0.02,VWS V14.01,2013-06-03 16:10:00,
2013-06-03 12:11:00,81.1,79.2,29.91,South,182,13.0,13.0,94,0.00,,BKN028,0.02,VWS V14.01,2013-06-03 16:11:00,
2013-06-03 12:12:00,81.1,78.9,29.91,South,180,14.0,17.0,93,0.00,,OVC200,0.02,VWS V14.01,2013-06-03 16:12:00,
2013-06-03 12:13:00,81.1,78.9,29.91,South,176,14.0,17.0,93,0.00,,BKN028,0.02,VWS V14.01,2013-06-03 16:13:00,
2013-06-03 12:14:00,80.9,78.7,29.91,SSE,159,10.0,14.0,93,0.00,,BKN028,0.02,VWS V14.01,2013-06-03 16:14:00,
2013-06-03 12:15:00,81.1,78.9,29.91,South,178,11.0,12.0,93,0.00,,BKN028,0.02,VWS V14.01,2013-06-03 16:15:00,
2013-06-03 12:16:00,81.1,78.9,29.91,South,173,11.0,17.0,93,0.00,,BKN028,0.02,VWS V14.01,2013-06-03 16:16:00,
2013-06-03 12:17:00,80.9,78.4,29.91,South,178,16.0,16.0,92,0.00,,OVC200,0.02,VWS V14.01,2013-06-03 16:17:00,
2013-06-03 12:18:00,80.9,78.4,29.91,South,178,14.0,16.0,92,0.00,,BKN028,0.02,VWS V14.01,2013-06-03 16:18:00,
2013-06-03 12:19:00,80.9,78.7,29.90,SSE,166,11.0,17.0,93,0.00,,BKN028,0.02,VWS V14.01,2013-06-03 16:19:00,
2013-06-03 12:20:00,80.9,78.4,29.90,South,172,15.0,16.0,92,0.00,,BKN028,0.02,VWS V14.01,2013-06-03 16:20:00,
2013-06-03 12:21:00,81.1,78.9,29.90,SSE,165,12.0,15.0,93,0.00,,BKN028,0.02,VWS V14.01,2013-06-03 16:21:00,
2013-06-03 12:22:00,81.1,78.9,29.90,South,181,16.0,16.0,93,0.00,,OVC200,0.02,VWS V14.01,2013-06-03 16:22:00,
2013-06-03 12:23:00,81.1,78.6,29.90,South,186,14.0,17.0,92,0.00,,BKN028,0.02,VWS V14.01,2013-06-03 16:23:00,
2013-06-03 12:24:00,81.1,78.6,29.90,South,173,12.0,14.0,92,0.00,,BKN028,0.02,VWS V14.01,2013-06-03 16:24:00,
2013-06-03 12:25:00,81.1,78.6,29.90,SSE,165,13.0,15.0,92,0.00,,BKN028,0.02,VWS V14.01,2013-06-03 16:25:00,
2013-06-03 12:26:00,81.1,78.6,29.90,South,174,13.0,15.0,92,0.00,,BKN028,0.02,VWS V14.01,2013-06-03 16:26:00,
2013-06-03 12:27:00,81.1,78.2,29.90,South,182,14.0,15.0,91,0.00,,OVC200,0.02,VWS V14.01,2013-06-03 16:27:00,
2013-06-03 12:28:00,81.1,78.6,29.90,South,178,14.0,15.0,92,0.00,,BKN028,0.02,VWS V14.01,2013-06-03 16:28:00,
2013-06-03 12:29:00,81.1,78.2,29.90,South,169,12.0,16.0,91,0.00,,BKN028,0.02,VWS V14.01,2013-06-03 16:29:00,
2013-06-03 12:30:00,81.1,78.6,29.90,South,188,15.0,15.0,92,0.00,,BKN028,0.02,VWS V14.01,2013-06-03 16:30:00,
2013-06-03 12:31:00,81.1,78.6,29.90,South,181,11.0,15.0,92,0.00,,BKN028,0.02,VWS V14.01,2013-06-03 16:31:00,
2013-06-03 12:32:00,81.1,78.6,29.90,South,183,13.0,14.0,92,0.00,,OVC200,0.02,VWS V14.01,2013-06-03 16:32:00,
2013-06-03 12:33:00,81.1,78.6,29.90,SSW,209,16.0,16.0,92,0.00,,BKN028,0.02,VWS V14.01,2013-06-03 16:33:00,
2013-06-03 12:34:00,81.1,78.6,29.90,SSW,193,12.0,16.0,92,0.00,,BKN028,0.02,VWS V14.01,2013-06-03 16:34:00,
2013-06-03 12:35:00,81.1,78.2,29.90,South,180,15.0,15.0,91,0.00,,BKN028,0.02,VWS V14.01,2013-06-03 16:35:00,
2013-06-03 12:36:00,80.9,78.0,29.90,South,182,13.0,15.0,91,0.00,,BKN028,0.02,VWS V14.01,2013-06-03 16:36:00,
2013-06-03 12:37:00,80.9,78.0,29.90,SSW,194,13.0,14.0,91,0.00,,OVC200,0.02,VWS V14.01,2013-06-03 16:37:00,
2013-06-03 12:38:00,80.9,78.0,29.90,SSW,200,13.0,14.0,91,0.00,,BKN028,0.02,VWS V14.01,2013-06-03 16:38:00,
2013-06-03 12:39:00,81.1,78.6,29.90,South,177,11.0,14.0,92,0.00,,BKN028,0.02,VWS V14.01,2013-06-03 16:39:00,
2013-06-03 12:40:00,81.1,78.6,29.90,SSW,194,15.0,15.0,92,0.00,,BKN028,0.02,VWS V14.01,2013-06-03 16:40:00,
2013-06-03 12:41:00,81.1,78.2,29.90,SSW,208,12.0,15.0,91,0.00,,BKN028,0.02,VWS V14.01,2013-06-03 16:41:00,
2013-06-03 12:42:00,81.1,78.6,29.90,SSW,202,13.0,14.0,92,0.00,,BKN200,0.02,VWS V14.01,2013-06-03 16:42:00,
2013-06-03 12:43:00,81.1,78.6,29.90,SSW,210,13.0,14.0,92,0.00,,BKN028,0.02,VWS V14.01,2013-06-03 16:43:00,
2013-06-03 12:44:00,81.1,78.2,29.90,SSW,200,11.0,13.0,91,0.00,,BKN028,0.02,VWS V14.01,2013-06-03 16:44:00,
2013-06-03 12:45:00,81.1,78.2,29.90,SSW,207,11.0,11.0,91,0.00,,BKN028,0.02,VWS V14.01,2013-06-03 16:45:00,
2013-06-03 12:46:00,81.2,78.3,29.90,SSW,207,10.0,11.0,91,0.00,,BKN028,0.02,VWS V14.01,2013-06-03 16:46:00,
2013-06-03 12:47:00,81.4,78.9,29.89,South,178,8.0,11.0,92,0.00,,BKN200,0.02,VWS V14.01,2013-06-03 16:47:00,
2013-06-03 12:48:00,81.4,78.9,29.89,South,182,12.0,14.0,92,0.00,,BKN028,0.02,VWS V14.01,2013-06-03 16:48:00,
2013-06-03 12:49:00,81.2,78.7,29.90,South,184,11.0,14.0,92,0.00,,BKN028,0.02,VWS V14.01,2013-06-03 16:49:00,
2013-06-03 12:50:00,81.2,78.3,29.89,SSW,208,15.0,15.0,91,0.00,,BKN028,0.02,VWS V14.01,2013-06-03 16:50:00,
2013-06-03 12:51:00,81.2,78.3,29.89,SSW,198,10.0,15.0,91,0.00,,BKN028,0.02,VWS V14.01,2013-06-03 16:51:00,
2013-06-03 12:52:00,81.2,78.3,29.89,SSW,192,11.0,12.0,91,0.00,,BKN200,0.02,VWS V14.01,2013-06-03 16:52:00,
2013-06-03 12:53:00,81.2,78.3,29.89,South,178,13.0,13.0,91,0.00,,BKN028,0.02,VWS V14.01,2013-06-03 16:53:00,
2013-06-03 12:54:00,81.2,78.3,29.89,South,184,12.0,13.0,91,0.00,,BKN028,0.02,VWS V14.01,2013-06-03 16:54:00,
2013-06-03 12:55:00,81.2,78.3,29.89,South,184,13.0,13.0,91,0.00,,BKN028,0.02,VWS V14.01,2013-06-03 16:55:00,
2013-06-03 12:56:00,81.2,78.3,29.89,South,184,14.0,14.0,91,0.00,,BKN028,0.02,VWS V14.01,2013-06-03 16:56:00,
2013-06-03 12:57:00,81.2,78.3,29.89,South,186,10.0,12.0,91,0.00,,BKN200,0.02,VWS V14.01,2013-06-03 16:57:00,
2013-06-03 12:58:00,81.2,78.3,29.89,South,182,14.0,14.0,91,0.00,,BKN028,0.02,VWS V14.01,2013-06-03 16:58:00,
2013-06-03 12:59:00,81.2,78.3,29.89,South,174,11.0,14.0,91,0.00,,BKN028,0.02,VWS V14.01,2013-06-03 16:59:00,
2013-06-03 13:00:00,81.2,78.3,29.89,South,186,12.0,13.0,91,0.00,,BKN028,0.02,VWS V14.01,2013-06-03 17:00:00,
2013-06-03 13:01:00,81.4,78.5,29.89,SSE,162,7.0,12.0,91,0.00,,BKN028,0.02,VWS V14.01,2013-06-03 17:01:00,
2013-06-03 13:02:00,81.4,78.5,29.89,South,188,14.0,14.0,91,0.00,,BKN200,0.02,VWS V14.01,2013-06-03 17:02:00,
2013-06-03 13:03:00,81.6,78.7,29.89,South,174,13.0,14.0,91,0.00,,BKN028,0.02,VWS V14.01,2013-06-03 17:03:00,
2013-06-03 13:04:00,81.6,78.7,29.89,South,180,13.0,13.0,91,0.00,,BKN028,0.02,VWS V14.01,2013-06-03 17:04:00,
2013-06-03 13:05:00,81.6,78.7,29.89,South,190,14.0,16.0,91,0.00,,BKN028,0.02,VWS V14.01,2013-06-03 17:05:00,
2013-06-03 13:06:00,81.6,78.4,29.89,SSE,164,14.0,15.0,90,0.00,,BKN028,0.02,VWS V14.01,2013-06-03 17:06:00,
2013-06-03 13:07:00,81.8,78.9,29.89,South,180,14.0,16.0,91,0.00,,BKN200,0.02,VWS V14.01,2013-06-03 17:07:00,
2013-06-03 13:08:00,81.8,78.9,29.89,SSE,154,12.0,16.0,91,0.00,,BKN028,0.02,VWS V14.01,2013-06-03 17:08:00,
2013-06-03 13:09:00,82.0,78.8,29.89,South,175,11.0,16.0,90,0.00,,BKN028,0.02,VWS V14.01,2013-06-03 17:09:00,
2013-06-03 13:10:00,82.0,78.8,29.89,South,182,15.0,15.0,90,0.00,,BKN028,0.02,VWS V14.01,2013-06-03 17:10:00,
2013-06-03 13:11:00,82.0,78.4,29.89,South,184,15.0,15.0,89,0.00,,BKN028,0.02,VWS V14.01,2013-06-03 17:11:00,
2013-06-03 13:12:00,82.0,78.8,29.89,South,187,14.0,15.0,90,0.00,,BKN200,0.02,VWS V14.01,2013-06-03 17:12:00,
2013-06-03 13:13:00,82.0,78.8,29.89,South,188,14.0,15.0,90,0.00,,BKN028,0.02,VWS V14.01,2013-06-03 17:13:00,
2013-06-03 13:14:00,81.8,78.6,29.90,South,174,14.0,14.0,90,0.00,,BKN028,0.02,VWS V14.01,2013-06-03 17:14:00,
2013-06-03 13:15:00,81.6,78.1,29.89,South,184,14.0,14.0,89,0.00,,BKN028,0.02,VWS V14.01,2013-06-03 17:15:00,
2013-06-03 13:16:00,81.6,78.4,29.90,South,179,11.0,14.0,90,0.00,,BKN028,0.02,VWS V14.01,2013-06-03 17:16:00,
2013-06-03 13:17:00,81.6,78.4,29.90,South,184,15.0,15.0,90,0.00,,BKN200,0.02,VWS V14.01,2013-06-03 17:17:00,
2013-06-03 13:18:00,81.6,78.4,29.90,South,169,12.0,15.0,90,0.00,,BKN028,0.02,VWS V14.01,2013-06-03 17:18:00,
2013-06-03 13:19:00,81.6,78.7,29.89,SSW,198,15.0,15.0,91,0.00,,BKN028,0.02,VWS V14.01,2013-06-03 17:19:00,
2013-06-03 13:20:00,81.6,78.4,29.89,SSW,192,15.0,15.0,90,0.00,,BKN028,0.02,VWS V14.01,2013-06-03 17:20:00,
2013-06-03 13:21:00,81.6,78.4,29.89,South,173,7.0,15.0,90,0.00,,BKN028,0.02,VWS V14.01,2013-06-03 17:21:00,
2013-06-03 13:22:00,81.8,78.6,29.89,SSW,195,16.0,16.0,90,0.00,,BKN200,0.02,VWS V14.01,2013-06-03 17:22:00,
2013-06-03 13:23:00,81.8,78.6,29.89,South,188,14.0,16.0,90,0.00,,BKN028,0.02,VWS V14.01,2013-06-03 17:23:00,
2013-06-03 13:24:00,81.6,78.4,29.89,South,184,11.0,14.0,90,0.00,,BKN028,0.02,VWS V14.01,2013-06-03 17:24:00,
2013-06-03 13:25:00,81.6,78.4,29.89,South,188,12.0,12.0,90,0.00,,BKN028,0.02,VWS V14.01,2013-06-03 17:25:00,
2013-06-03 13:26:00,81.8,78.9,29.89,South,184,13.0,16.0,91,0.00,,BKN028,0.02,VWS V14.01,2013-06-03 17:26:00,
2013-06-03 13:27:00,81.8,78.9,29.89,SSW,198,15.0,15.0,91,0.00,,BKN200,0.02,VWS V14.01,2013-06-03 17:27:00,
2013-06-03 13:28:00,81.6,78.7,29.89,SSW,194,16.0,16.0,91,0.00,,BKN028,0.02,VWS V14.01,2013-06-03 17:28:00,
2013-06-03 13:29:00,81.6,78.4,29.89,South,186,14.0,16.0,90,0.00,,BKN028,0.02,VWS V14.01,2013-06-03 17:29:00,
2013-06-03 13:30:00,81.6,78.4,29.89,South,181,13.0,14.0,90,0.00,,BKN028,0.02,VWS V14.01,2013-06-03 17:30:00,
2013-06-03 13:31:00,81.8,78.9,29.89,South,171,9.0,13.0,91,0.00,,BKN028,0.02,VWS V14.01,2013-06-03 17:31:00,
2013-06-03 13:32:00,82.0,78.8,29.89,South,169,13.0,13.0,90,0.00,,BKN200,0.02,VWS V14.01,2013-06-03 17:32:00,
2013-06-03 13:33:00,82.0,78.8,29.88,South,176,14.0,14.0,90,0.00,,BKN028,0.02,VWS V14.01,2013-06-03 17:33:00,
2013-06-03 13:34:00,82.2,79.0,29.88,SSE,164,12.0,14.0,90,0.00,,BKN028,0.02,VWS V14.01,2013-06-03 17:34:00,
2013-06-03 13:35:00,82.2,79.0,29.89,South,187,13.0,13.0,90,0.00,,BKN028,0.02,VWS V14.01,2013-06-03 17:35:00,
2013-06-03 13:36:00,82.2,79.0,29.89,SSE,156,9.0,13.0,90,0.00,,BKN028,0.02,VWS V14.01,2013-06-03 17:36:00,
2013-06-03 13:37:00,82.6,79.4,29.88,SSE,163,12.0,12.0,90,0.00,,BKN200,0.02,VWS V14.01,2013-06-03 17:37:00,
2013-06-03 13:38:00,82.6,79.4,29.88,South,169,11.0,12.0,90,0.00,,BKN028,0.02,VWS V14.01,2013-06-03 17:38:00,
2013-06-03 13:39:00,82.4,78.8,29.88,SSE,161,10.0,14.0,89,0.00,,BKN028,0.02,VWS V14.01,2013-06-03 17:39:00,
2013-06-03 13:40:00,82.4,78.8,29.88,SSE,161,12.0,14.0,89,0.00,,BKN028,0.02,VWS V14.01,2013-06-03 17:40:00,
2013-06-03 13:41:00,82.6,79.0,29.88,SSE,163,13.0,13.0,89,0.00,,BKN028,0.02,VWS V14.01,2013-06-03 17:41:00,
2013-06-03 13:42:00,82.6,79.0,29.88,South,178,14.0,14.0,89,0.00,,BKN200,0.02,VWS V14.01,2013-06-03 17:42:00,
2013-06-03 13:43:00,82.6,79.0,29.88,South,173,13.0,14.0,89,0.00,,BKN028,0.02,VWS V14.01,2013-06-03 17:43:00,
2013-06-03 13:44:00,82.6,78.7,29.88,SSE,165,11.0,15.0,88,0.00,,BKN028,0.02,VWS V14.01,2013-06-03 17:44:00,
2013-06-03 13:45:00,82.6,79.0,29.88,SSE,164,11.0,12.0,89,0.00,,BKN028,0.02,VWS V14.01,2013-06-03 17:45:00,
2013-06-03 13:46:00,82.6,78.7,29.88,SSE,163,12.0,13.0,88,0.00,,BKN028,0.02,VWS V14.01,2013-06-03 17:46:00,
2013-06-03 13:47:00,82.6,78.7,29.88,South,169,10.0,12.0,88,0.00,,BKN200,0.02,VWS V14.01,2013-06-03 17:47:00,
2013-06-03 13:48:00,82.6,78.7,29.88,South,174,14.0,14.0,88,0.00,,BKN028,0.02,VWS V14.01,2013-06-03 17:48:00,
2013-06-03 13:49:00,82.6,79.0,29.88,South,173,11.0,15.0,89,0.00,,BKN028,0.02,VWS V14.01,2013-06-03 17:49:00,
2013-06-03 13:50:00,82.6,78.7,29.88,SSE,163,12.0,13.0,88,0.00,,BKN028,0.02,VWS V14.01,2013-06-03 17:50:00,
2013-06-03 13:51:00,82.6,79.0,29.88,South,172,9.0,15.0,89,0.00,,BKN028,0.02,VWS V14.01,2013-06-03 17:51:00,
2013-06-03 13:52:00,82.6,79.0,29.88,South,173,9.0,13.0,89,0.00,,BKN200,0.02,VWS V14.01,2013-06-03 17:52:00,
2013-06-03 13:53:00,82.6,79.0,29.88,SSE,150,11.0,13.0,89,0.00,,BKN028,0.02,VWS V14.01,2013-06-03 17:53:00,
2013-06-03 13:54:00,82.6,79.0,29.88,South,172,15.0,16.0,89,0.00,,BKN028,0.02,VWS V14.01,2013-06-03 17:54:00,
2013-06-03 13:55:00,82.6,79.0,29.88,SSE,166,13.0,17.0,89,0.00,,BKN028,0.02,VWS V14.01,2013-06-03 17:55:00,
2013-06-03 13:56:00,82.6,79.0,29.88,SSE,161,15.0,16.0,89,0.00,,BKN028,0.02,VWS V14.01,2013-06-03 17:56:00,
2013-06-03 13:57:00,82.6,79.0,29.88,South,182,16.0,16.0,89,0.00,,BKN200,0.02,VWS V14.01,2013-06-03 17:57:00,
2013-06-03 13:58:00,82.6,78.7,29.88,SSE,161,15.0,16.0,88,0.00,,BKN028,0.02,VWS V14.01,2013-06-03 17:58:00,
2013-06-03 13:59:00,82.4,78.8,29.88,SSE,163,11.0,15.0,89,0.00,,BKN028,0.02,VWS V14.01,2013-06-03 17:59:00,
2013-06-03 14:00:00,82.6,79.0,29.88,SSE,159,12.0,14.0,89,0.00,,BKN028,0.02,VWS V14.01,2013-06-03 18:00:00,
2013-06-03 14:01:00,82.6,79.0,29.88,SSE,166,12.0,13.0,89,0.00,,BKN028,0.02,VWS V14.01,2013-06-03 18:01:00,
2013-06-03 14:02:00,82.6,79.0,29.88,SSE,166,11.0,13.0,89,0.00,,BKN200,0.02,VWS V14.01,2013-06-03 18:02:00,
2013-06-03 14:03:00,82.6,79.0,29.88,South,175,17.0,17.0,89,0.00,,BKN028,0.02,VWS V14.01,2013-06-03 18:03:00,
2013-06-03 14:04:00,82.4,78.5,29.88,South,173,16.0,17.0,88,0.00,,BKN028,0.02,VWS V14.01,2013-06-03 18:04:00,
2013-06-03 14:05:00,82.4,78.8,29.88,South,178,13.0,16.0,89,0.00,,BKN028,0.02,VWS V14.01,2013-06-03 18:05:00,
2013-06-03 14:06:00,82.4,78.8,29.88,South,173,13.0,13.0,89,0.00,,BKN028,0.02,VWS V14.01,2013-06-03 18:06:00,
2013-06-03 14:07:00,82.6,79.0,29.88,SSE,155,11.0,14.0,89,0.00,,BKN200,0.02,VWS V14.01,2013-06-03 18:07:00,
2013-06-03 14:08:00,82.6,79.0,29.88,South,175,15.0,15.0,89,0.00,,BKN028,0.02,VWS V14.01,2013-06-03 18:08:00,
2013-06-03 14:09:00,82.6,79.0,29.88,SSE,159,14.0,15.0,89,0.00,,BKN028,0.02,VWS V14.01,2013-06-03 18:09:00,
2013-06-03 14:10:00,82.6,78.7,29.88,SSE,161,12.0,14.0,88,0.00,,BKN028,0.02,VWS V14.01,2013-06-03 18:10:00,
2013-06-03 14:11:00,82.6,78.7,29.88,SSE,167,12.0,13.0,88,0.00,,BKN028,0.02,VWS V14.01,2013-06-03 18:11:00,
2013-06-03 14:12:00,82.6,78.7,29.88,SSE,165,13.0,15.0,88,0.00,,BKN200,0.02,VWS V14.01,2013-06-03 18:12:00,
2013-06-03 14:13:00,82.6,78.7,29.88,SSE,157,13.0,15.0,88,0.00,,BKN028,0.02,VWS V14.01,2013-06-03 18:13:00,
2013-06-03 14:14:00,82.6,79.0,29.88,SSE,163,14.0,14.0,89,0.00,,BKN028,0.02,VWS V14.01,2013-06-03 18:14:00,
2013-06-03 14:15:00,82.8,79.2,29.88,South,175,13.0,15.0,89,0.00,,BKN028,0.02,VWS V14.01,2013-06-03 18:15:00,
2013-06-03 14:16:00,82.6,79.0,29.88,SSE,167,11.0,15.0,89,0.00,,BKN028,0.02,VWS V14.01,2013-06-03 18:16:00,
2013-06-03 14:17:00,82.8,79.6,29.88,SSE,163,11.0,13.0,90,0.00,,BKN200,0.02,VWS V14.01,2013-06-03 18:17:00,
2013-06-03 14:18:00,82.8,79.6,29.88,SSE,160,13.0,13.0,90,0.00,,BKN028,0.02,VWS V14.01,2013-06-03 18:18:00,
2013-06-03 14:19:00,82.6,79.0,29.88,South,175,12.0,14.0,89,0.00,,BKN028,0.02,VWS V14.01,2013-06-03 18:19:00,
2013-06-03 14:20:00,82.6,79.4,29.88,SSE,155,16.0,16.0,90,0.00,,BKN028,0.02,VWS V14.01,2013-06-03 18:20:00,
2013-06-03 14:21:00,82.4,78.8,29.88,SSE,165,15.0,16.0,89,0.00,,BKN028,0.02,VWS V14.01,2013-06-03 18:21:00,
2013-06-03 14:22:00,82.4,79.2,29.88,SSE,159,14.0,15.0,90,0.00,,BKN200,0.02,VWS V14.01,2013-06-03 18:22:00,
2013-06-03 14:23:00,82.4,79.2,29.88,SSE,159,15.0,15.0,90,0.00,,BKN028,0.02,VWS V14.01,2013-06-03 18:23:00,
2013-06-03 14:24:00,82.6,79.7,29.88,South,175,15.0,15.0,91,0.00,,BKN028,0.02,VWS V14.01,2013-06-03 18:24:00,
2013-06-03 14:25:00,82.4,79.2,29.88,SSE,165,15.0,15.0,90,0.00,,BKN028,0.02,VWS V14.01,2013-06-03 18:25:00,
2013-06-03 14:26:00,82.4,79.2,29.88,South,170,13.0,15.0,90,0.00,,BKN028,0.02,VWS V14.01,2013-06-03 18:26:00,
2013-06-03 14:27:00,82.2,79.0,29.87,SSE,164,11.0,15.0,90,0.00,,BKN200,0.02,VWS V14.01,2013-06-03 18:27:00,
2013-06-03 14:28:00,82.2,79.0,29.87,SSE,165,14.0,15.0,90,0.00,,BKN028,0.02,VWS V14.01,2013-06-03 18:28:00,
2013-06-03 14:29:00,82.4,79.2,29.87,SSE,153,14.0,14.0,90,0.00,,BKN028,0.02,VWS V14.01,2013-06-03 18:29:00,
2013-06-03 14:30:00,82.4,79.5,29.88,South,169,14.0,15.0,91,0.00,,BKN028,0.02,VWS V14.01,2013-06-03 18:30:00,
2013-06-03 14:31:00,82.2,79.0,29.87,SSE,166,14.0,16.0,90,0.00,,BKN028,0.02,VWS V14.01,2013-06-03 18:31:00,
2013-06-03 14:32:00,82.2,79.0,29.87,SSE,165,14.0,15.0,90,0.00,,BKN200,0.02,VWS V14.01,2013-06-03 18:32:00,
2013-06-03 14:33:00,82.2,79.0,29.87,SSE,167,14.0,15.0,90,0.00,,BKN028,0.02,VWS V14.01,2013-06-03 18:33:00,
2013-06-03 14:34:00,82.2,79.0,29.87,SSE,156,13.0,18.0,90,0.00,,BKN028,0.02,VWS V14.01,2013-06-03 18:34:00,
2013-06-03 14:35:00,82.2,79.0,29.87,SSE,162,15.0,15.0,90,0.00,,BKN028,0.02,VWS V14.01,2013-06-03 18:35:00,
2013-06-03 14:36:00,82.2,79.3,29.87,SSE,166,13.0,15.0,91,0.00,,BKN028,0.02,VWS V14.01,2013-06-03 18:36:00,
2013-06-03 14:37:00,82.2,79.0,29.87,SSE,159,13.0,13.0,90,0.00,,BKN200,0.02,VWS V14.01,2013-06-03 18:37:00,
2013-06-03 14:38:00,82.2,79.0,29.87,South,174,12.0,13.0,90,0.00,,BKN028,0.02,VWS V14.01,2013-06-03 18:38:00,
2013-06-03 14:39:00,82.2,79.3,29.87,SSE,159,11.0,13.0,91,0.00,,BKN028,0.02,VWS V14.01,2013-06-03 18:39:00,
2013-06-03 14:40:00,82.2,79.3,29.87,SSE,167,13.0,14.0,91,0.00,,BKN028,0.02,VWS V14.01,2013-06-03 18:40:00,
2013-06-03 14:41:00,82.2,79.3,29.87,South,169,16.0,17.0,91,0.00,,BKN028,0.02,VWS V14.01,2013-06-03 18:41:00,
2013-06-03 14:42:00,82.2,79.3,29.87,SSE,168,15.0,18.0,91,0.00,,BKN200,0.02,VWS V14.01,2013-06-03 18:42:00,
2013-06-03 14:43:00,82.2,79.3,29.87,SSE,168,15.0,18.0,91,0.00,,BKN028,0.02,VWS V14.01,2013-06-03 18:43:00,
2013-06-03 14:44:00,82.2,79.3,29.87,SSE,168,9.0,15.0,91,0.00,,BKN028,0.02,VWS V14.01,2013-06-03 18:44:00,
2013-06-03 14:45:00,82.2,79.0,29.86,South,182,12.0,14.0,90,0.00,,BKN028,0.02,VWS V14.01,2013-06-03 18:45:00,
2013-06-03 14:46:00,82.2,79.0,29.86,SSE,168,15.0,16.0,90,0.00,,BKN028,0.02,VWS V14.01,2013-06-03 18:46:00,
2013-06-03 14:47:00,82.2,79.0,29.87,SW,221,13.0,14.0,90,0.00,,BKN200,0.02,VWS V14.01,2013-06-03 18:47:00,
2013-06-03 14:48:00,82.2,79.3,29.87,South,169,12.0,14.0,91,0.00,,BKN028,0.02,VWS V14.01,2013-06-03 18:48:00,
2013-06-03 14:49:00,82.2,79.0,29.87,South,182,11.0,17.0,90,0.00,,BKN028,0.02,VWS V14.01,2013-06-03 18:49:00,
2013-06-03 14:50:00,82.2,79.0,29.86,SSE,154,15.0,15.0,90,0.00,,BKN028,0.02,VWS V14.01,2013-06-03 18:50:00,
2013-06-03 14:51:00,82.4,79.2,29.86,SSE,152,12.0,15.0,90,0.00,,BKN028,0.02,VWS V14.01,2013-06-03 18:51:00,
2013-06-03 14:52:00,82.4,79.2,29.86,SSE,156,11.0,14.0,90,0.00,,BKN200,0.02,VWS V14.01,2013-06-03 18:52:00,
2013-06-03 14:53:00,82.4,79.2,29.86,SSE,156,11.0,14.0,90,0.00,,BKN028,0.02,VWS V14.01,2013-06-03 18:53:00,
2013-06-03 14:54:00,82.4,79.2,29.86,South,175,13.0,15.0,90,0.00,,BKN028,0.02,VWS V14.01,2013-06-03 18:54:00,
2013-06-03 14:55:00,82.4,79.2,29.86,South,173,13.0,13.0,90,0.00,,BKN028,0.02,VWS V14.01,2013-06-03 18:55:00,
2013-06-03 14:56:00,82.2,79.0,29.86,SSE,164,12.0,15.0,90,0.00,,BKN028,0.02,VWS V14.01,2013-06-03 18:56:00,
2013-06-03 14:57:00,82.2,79.0,29.86,SSE,167,13.0,15.0,90,0.00,,BKN200,0.02,VWS V14.01,2013-06-03 18:57:00,
2013-06-03 14:58:00,82.2,79.0,29.86,SSE,164,11.0,15.0,90,0.00,,BKN028,0.02,VWS V14.01,2013-06-03 18:58:00,
2013-06-03 14:59:00,82.2,79.0,29.86,SSE,161,16.0,17.0,90,0.00,,BKN028,0.02,VWS V14.01,2013-06-03 18:59:00,
2013-06-03 15:00:00,82.0,78.4,29.86,South,173,14.0,17.0,89,0.00,,BKN028,0.02,VWS V14.01,2013-06-03 19:00:00,
2013-06-03 15:01:00,81.8,78.6,29.86,South,179,12.0,14.0,90,0.00,,BKN028,0.02,VWS V14.01,2013-06-03 19:01:00,
2013-06-03 15:02:00,81.8,78.9,29.86,SSE,165,12.0,12.0,91,0.00,,BKN200,0.02,VWS V14.01,2013-06-03 19:02:00,
2013-06-03 15:03:00,81.8,78.9,29.86,SSE,165,12.0,12.0,91,0.00,,BKN028,0.02,VWS V14.01,2013-06-03 19:03:00,
2013-06-03 15:04:00,81.8,78.9,29.86,South,182,12.0,15.0,91,0.00,,BKN028,0.02,VWS V14.01,2013-06-03 19:04:00,
2013-06-03 15:05:00,81.8,77.9,29.86,SSE,163,14.0,14.0,88,0.00,,BKN028,0.02,VWS V14.01,2013-06-03 19:05:00,
2013-06-03 15:06:00,81.8,78.9,29.86,South,179,13.0,14.0,91,0.00,,BKN028,0.02,VWS V14.01,2013-06-03 19:06:00,
2013-06-03 15:07:00,81.8,78.6,29.86,South,184,13.0,15.0,90,0.00,,BKN200,0.02,VWS V14.01,2013-06-03 19:07:00,
2013-06-03 15:08:00,81.8,78.6,29.86,South,184,13.0,15.0,90,0.00,,BKN028,0.02,VWS V14.01,2013-06-03 19:08:00,
2013-06-03 15:09:00,81.8,78.9,29.87,South,173,16.0,16.0,91,0.00,,BKN028,0.02,VWS V14.01,2013-06-03 19:09:00,
2013-06-03 15:10:00,81.8,78.9,29.86,South,185,19.0,19.0,91,0.00,,BKN028,0.02,VWS V14.01,2013-06-03 19:10:00,
2013-06-03 15:11:00,81.8,78.9,29.86,South,173,12.0,19.0,91,0.00,,BKN028,0.02,VWS V14.01,2013-06-03 19:11:00,
2013-06-03 15:12:00,81.6,78.4,29.86,South,180,19.0,20.0,90,0.00,,BKN200,0.02,VWS V14.01,2013-06-03 19:12:00,
2013-06-03 15:13:00,81.6,78.4,29.86,South,175,19.0,20.0,90,0.00,,BKN028,0.02,VWS V14.01,2013-06-03 19:13:00,
2013-06-03 15:14:00,81.4,78.2,29.86,SSE,162,14.0,19.0,90,0.00,,BKN028,0.02,VWS V14.01,2013-06-03 19:14:00,
2013-06-03 15:15:00,81.4,78.2,29.86,SSE,166,14.0,14.0,90,0.00,,BKN028,0.02,VWS V14.01,2013-06-03 19:15:00,
2013-06-03 15:16:00,81.6,79.1,29.86,South,176,10.0,14.0,92,0.00,,BKN028,0.02,VWS V14.01,2013-06-03 19:16:00,
2013-06-03 15:17:00,81.8,78.9,29.86,South,169,13.0,16.0,91,0.00,,BKN200,0.02,VWS V14.01,2013-06-03 19:17:00,
2013-06-03 15:18:00,81.8,78.9,29.86,South,169,13.0,16.0,91,0.00,,BKN028,0.02,VWS V14.01,2013-06-03 19:18:00,
2013-06-03 15:19:00,81.8,78.9,29.86,South,177,16.0,16.0,91,0.00,,BKN028,0.02,VWS V14.01,2013-06-03 19:19:00,
2013-06-03 15:20:00,81.8,78.9,29.86,SE,142,14.0,16.0,91,0.00,,BKN028,0.02,VWS V14.01,2013-06-03 19:20:00,
2013-06-03 15:21:00,81.8,78.9,29.86,SSE,147,10.0,14.0,91,0.00,,BKN028,0.02,VWS V14.01,2013-06-03 19:21:00,
2013-06-03 15:22:00,82.0,79.1,29.86,SSW,198,13.0,15.0,91,0.00,,BKN200,0.02,VWS V14.01,2013-06-03 19:22:00,
2013-06-03 15:23:00,82.0,79.1,29.86,SSW,198,13.0,15.0,91,0.00,,BKN028,0.02,VWS V14.01,2013-06-03 19:23:00,
2013-06-03 15:24:00,82.0,79.1,29.86,South,170,11.0,13.0,91,0.00,,BKN028,0.02,VWS V14.01,2013-06-03 19:24:00,
2013-06-03 15:25:00,82.0,79.1,29.86,SSE,161,11.0,12.0,91,0.00,,BKN028,0.02,VWS V14.01,2013-06-03 19:25:00,
2013-06-03 15:26:00,82.0,79.1,29.86,South,169,12.0,15.0,91,0.00,,BKN028,0.02,VWS V14.01,2013-06-03 19:26:00,
2013-06-03 15:27:00,82.0,78.8,29.86,South,171,13.0,13.0,90,0.00,,BKN200,0.02,VWS V14.01,2013-06-03 19:27:00,
2013-06-03 15:28:00,82.0,78.8,29.86,South,171,13.0,13.0,90,0.00,,BKN028,0.02,VWS V14.01,2013-06-03 19:28:00,
2013-06-03 15:29:00,82.0,79.1,29.86,SSE,164,13.0,13.0,91,0.00,,BKN028,0.02,VWS V14.01,2013-06-03 19:29:00,
2013-06-03 15:30:00,81.8,78.9,29.87,SSE,164,13.0,13.0,91,0.00,,BKN028,0.02,VWS V14.01,2013-06-03 19:30:00,
2013-06-03 15:31:00,81.8,78.9,29.87,SSE,161,14.0,15.0,91,0.00,,BKN028,0.02,VWS V14.01,2013-06-03 19:31:00,
2013-06-03 15:32:00,81.6,78.7,29.86,SSE,162,14.0,15.0,91,0.00,,BKN200,0.02,VWS V14.01,2013-06-03 19:32:00,
2013-06-03 15:33:00,81.6,78.7,29.86,SSE,162,14.0,15.0,91,0.00,,BKN028,0.02,VWS V14.01,2013-06-03 19:33:00,
2013-06-03 15:34:00,81.4,78.5,29.86,South,178,17.0,17.0,91,0.00,,BKN028,0.02,VWS V14.01,2013-06-03 19:34:00,
2013-06-03 15:35:00,81.2,78.3,29.86,SSE,166,13.0,17.0,91,0.00,,BKN028,0.02,VWS V14.01,2013-06-03 19:35:00,
2013-06-03 15:36:00,81.2,78.3,29.86,SSE,157,10.0,15.0,91,0.00,,BKN028,0.02,VWS V14.01,2013-06-03 19:36:00,
2013-06-03 15:37:00,81.2,78.7,29.86,SSE,159,12.0,15.0,92,0.00,,BKN200,0.02,VWS V14.01,2013-06-03 19:37:00,
2013-06-03 15:38:00,81.2,78.7,29.86,SSE,159,12.0,15.0,92,0.00,,BKN028,0.02,VWS V14.01,2013-06-03 19:38:00,
2013-06-03 15:39:00,81.1,78.6,29.86,SSE,155,12.0,14.0,92,0.00,,BKN028,0.02,VWS V14.01,2013-06-03 19:39:00,
2013-06-03 15:40:00,81.1,78.6,29.86,SSE,151,9.0,12.0,92,0.00,,BKN028,0.02,VWS V14.01,2013-06-03 19:40:00,
2013-06-03 15:41:00,81.1,78.6,29.86,South,171,13.0,15.0,92,0.00,,BKN028,0.02,VWS V14.01,2013-06-03 19:41:00,
2013-06-03 15:42:00,80.9,78.4,29.86,South,171,13.0,15.0,92,0.00,,BKN200,0.02,VWS V14.01,2013-06-03 19:42:00,
2013-06-03 15:43:00,80.9,78.4,29.86,SSE,167,11.0,15.0,92,0.00,,BKN028,0.02,VWS V14.01,2013-06-03 19:43:00,
2013-06-03 15:44:00,80.7,78.2,29.86,SSE,149,14.0,14.0,92,0.00,,BKN028,0.02,VWS V14.01,2013-06-03 19:44:00,
2013-06-03 15:45:00,80.7,78.2,29.86,SSE,167,14.0,14.0,92,0.00,,BKN028,0.02,VWS V14.01,2013-06-03 19:45:00,
2013-06-03 15:46:00,80.5,78.3,29.86,SSE,162,12.0,14.0,93,0.00,,BKN028,0.02,VWS V14.01,2013-06-03 19:46:00,
2013-06-03 15:47:00,80.5,78.3,29.86,SSE,151,11.0,14.0,93,0.00,,BKN200,0.02,VWS V14.01,2013-06-03 19:47:00,
2013-06-03 15:48:00,80.5,78.3,29.86,SSE,153,11.0,14.0,93,0.00,,BKN028,0.02,VWS V14.01,2013-06-03 19:48:00,
2013-06-03 15:49:00,80.5,78.3,29.87,South,170,18.0,18.0,93,0.00,,BKN028,0.02,VWS V14.01,2013-06-03 19:49:00,
2013-06-03 15:50:00,80.5,78.3,29.87,South,174,15.0,18.0,93,0.00,,BKN028,0.02,VWS V14.01,2013-06-03 19:50:00,
2013-06-03 15:51:00,80.3,78.1,29.87,SSE,161,15.0,15.0,93,0.00,,BKN028,0.02,VWS V14.01,2013-06-03 19:51:00,
2013-06-03 15:52:00,80.5,78.6,29.87,South,172,12.0,15.0,94,0.00,,BKN200,0.02,VWS V14.01,2013-06-03 19:52:00,
2013-06-03 15:53:00,80.5,78.6,29.87,South,172,12.0,15.0,94,0.00,,BKN028,0.02,VWS V14.01,2013-06-03 19:53:00,
2013-06-03 15:54:00,80.5,78.6,29.87,SSE,165,16.0,18.0,94,0.00,,BKN028,0.02,VWS V14.01,2013-06-03 19:54:00,
2013-06-03 15:55:00,80.3,78.4,29.87,SSE,155,13.0,16.0,94,0.00,,BKN028,0.02,VWS V14.01,2013-06-03 19:55:00,
2013-06-03 15:56:00,80.3,78.4,29.87,South,172,14.0,15.0,94,0.00,,BKN028,0.02,VWS V14.01,2013-06-03 19:56:00,
2013-06-03 15:57:00,80.1,78.2,29.86,South,171,14.0,16.0,94,0.00,,BKN200,0.02,VWS V14.01,2013-06-03 19:57:00,
2013-06-03 15:58:00,80.1,78.2,29.86,South,171,14.0,16.0,94,0.00,,BKN028,0.02,VWS V14.01,2013-06-03 19:58:00,
2013-06-03 15:59:00,80.1,78.2,29.86,SSE,155,13.0,15.0,94,0.00,,BKN028,0.02,VWS V14.01,2013-06-03 19:59:00,
2013-06-03 16:00:00,80.1,78.5,29.86,SSE,167,14.0,14.0,95,0.00,,BKN028,0.02,VWS V14.01,2013-06-03 20:00:00,
2013-06-03 16:01:00,80.1,78.5,29.86,South,174,10.0,15.0,95,0.00,,BKN028,0.02,VWS V14.01,2013-06-03 20:01:00,
2013-06-03 16:02:00,80.1,78.2,29.87,SSW,206,18.0,18.0,94,0.00,,BKN200,0.02,VWS V14.01,2013-06-03 20:02:00,
2013-06-03 16:03:00,80.1,78.2,29.87,SSW,206,18.0,18.0,94,0.00,,BKN028,0.02,VWS V14.01,2013-06-03 20:03:00,
2013-06-03 16:04:00,79.9,78.3,29.87,South,179,19.0,19.0,95,0.00,,BKN028,0.02,VWS V14.01,2013-06-03 20:04:00,
2013-06-03 16:05:00,79.9,78.0,29.87,SSW,208,12.0,19.0,94,0.00,,BKN028,0.02,VWS V14.01,2013-06-03 20:05:00,
2013-06-03 16:06:00,79.8,78.2,29.87,South,188,12.0,15.0,95,0.00,,BKN028,0.02,VWS V14.01,2013-06-03 20:06:00,
2013-06-03 16:07:00,79.8,78.2,29.87,SSW,210,14.0,14.0,95,0.00,,BKN200,0.02,VWS V14.01,2013-06-03 20:07:00,
2013-06-03 16:08:00,79.8,78.2,29.87,SSW,210,14.0,14.0,95,0.00,,BKN028,0.02,VWS V14.01,2013-06-03 20:08:00,
2013-06-03 16:09:00,79.8,78.2,29.86,SSW,196,14.0,14.0,95,0.01,,BKN028,0.03,VWS V14.01,2013-06-03 20:09:00,
2013-06-03 16:10:00,79.8,78.2,29.86,South,185,13.0,16.0,95,0.01,,BKN028,0.03,VWS V14.01,2013-06-03 20:10:00,
2013-06-03 16:11:00,79.8,78.6,29.86,South,186,16.0,16.0,96,0.01,,BKN028,0.03,VWS V14.01,2013-06-03 20:11:00,
2013-06-03 16:12:00,79.6,78.4,29.86,SSW,192,17.0,17.0,96,0.01,,BKN200,0.03,VWS V14.01,2013-06-03 20:12:00,
2013-06-03 16:13:00,79.6,78.4,29.86,SSW,192,17.0,17.0,96,0.01,,BKN028,0.03,VWS V14.01,2013-06-03 20:13:00,
2013-06-03 16:14:00,79.6,78.4,29.86,South,184,17.0,18.0,96,0.02,,BKN028,0.04,VWS V14.01,2013-06-03 20:14:00,
2013-06-03 16:15:00,79.4,78.2,29.86,SSW,197,18.0,19.0,96,0.02,,BKN028,0.04,VWS V14.01,2013-06-03 20:15:00,
2013-06-03 16:16:00,79.4,78.2,29.86,South,189,16.0,18.0,96,0.02,,BKN028,0.04,VWS V14.01,2013-06-03 20:16:00,
2013-06-03 16:17:00,79.2,78.0,29.86,South,173,17.0,19.0,96,0.02,,BKN200,0.04,VWS V14.01,2013-06-03 20:17:00,
2013-06-03 16:18:00,79.2,78.0,29.86,South,173,17.0,19.0,96,0.02,,BKN028,0.04,VWS V14.01,2013-06-03 20:18:00,
2013-06-03 16:19:00,79.2,78.3,29.86,South,186,18.0,18.0,97,0.02,,BKN028,0.04,VWS V14.01,2013-06-03 20:19:00,
2013-06-03 16:20:00,79.2,78.3,29.86,South,181,18.0,19.0,97,0.02,,BKN028,0.04,VWS V14.01,2013-06-03 20:20:00,
2013-06-03 16:21:00,79.2,78.3,29.86,South,170,18.0,19.0,97,0.02,,BKN028,0.04,VWS V14.01,2013-06-03 20:21:00,
2013-06-03 16:22:00,79.2,78.3,29.86,South,189,16.0,21.0,97,0.02,,BKN200,0.04,VWS V14.01,2013-06-03 20:22:00,
2013-06-03 16:23:00,79.2,78.3,29.86,South,189,16.0,21.0,97,0.02,,BKN028,0.04,VWS V14.01,2013-06-03 20:23:00,
2013-06-03 16:24:00,79.2,78.3,29.86,South,177,13.0,17.0,97,0.02,,BKN028,0.04,VWS V14.01,2013-06-03 20:24:00,
2013-06-03 16:25:00,79.2,78.3,29.86,South,175,14.0,20.0,97,0.02,,BKN028,0.04,VWS V14.01,2013-06-03 20:25:00,
2013-06-03 16:26:00,79.2,78.6,29.85,South,173,11.0,17.0,98,0.02,,BKN028,0.04,VWS V14.01,2013-06-03 20:26:00,
2013-06-03 16:27:00,79.4,78.8,29.85,SSE,166,12.0,12.0,98,0.02,,BKN200,0.04,VWS V14.01,2013-06-03 20:27:00,
2013-06-03 16:28:00,79.4,78.8,29.85,SSE,165,12.0,17.0,98,0.02,,BKN028,0.04,VWS V14.01,2013-06-03 20:28:00,
2013-06-03 16:29:00,79.4,78.8,29.85,South,181,15.0,15.0,98,0.02,,BKN028,0.04,VWS V14.01,2013-06-03 20:29:00,
2013-06-03 16:30:00,79.4,78.8,29.85,SSE,161,10.0,15.0,98,0.02,,BKN028,0.04,VWS V14.01,2013-06-03 20:30:00,
2013-06-03 16:31:00,79.4,78.8,29.85,South,178,18.0,18.0,98,0.02,,BKN028,0.04,VWS V14.01,2013-06-03 20:31:00,
2013-06-03 16:32:00,79.4,78.8,29.85,South,171,15.0,15.0,98,0.02,,BKN200,0.04,VWS V14.01,2013-06-03 20:32:00,
2013-06-03 16:33:00,79.4,78.8,29.85,SSW,194,11.0,13.0,98,0.02,,BKN028,0.04,VWS V14.01,2013-06-03 20:33:00,
2013-06-03 16:34:00,79.4,78.8,29.85,South,171,10.0,15.0,98,0.02,,BKN028,0.04,VWS V14.01,2013-06-03 20:34:00,
2013-06-03 16:35:00,79.4,78.8,29.85,SSE,163,9.0,13.0,98,0.02,,BKN028,0.04,VWS V14.01,2013-06-03 20:35:00,
2013-06-03 16:36:00,79.4,78.8,29.85,South,170,12.0,12.0,98,0.02,,BKN028,0.04,VWS V14.01,2013-06-03 20:36:00,
2013-06-03 16:37:00,79.4,78.5,29.85,South,171,9.0,11.0,97,0.02,,BKN200,0.04,VWS V14.01,2013-06-03 20:37:00,
2013-06-03 16:38:00,79.4,78.5,29.85,South,171,9.0,11.0,97,0.02,,BKN028,0.04,VWS V14.01,2013-06-03 20:38:00,
2013-06-03 16:39:00,79.6,79.0,29.85,SSE,163,6.0,11.0,98,0.02,,BKN028,0.04,VWS V14.01,2013-06-03 20:39:00,
2013-06-03 16:40:00,79.6,79.0,29.85,SSE,155,11.0,11.0,98,0.02,,BKN028,0.04,VWS V14.01,2013-06-03 20:40:00,
2013-06-03 16:41:00,79.6,79.0,29.85,SSE,154,11.0,11.0,98,0.02,,BKN028,0.04,VWS V14.01,2013-06-03 20:41:00,
2013-06-03 16:42:00,79.8,79.2,29.85,SSW,194,9.0,10.0,98,0.02,,BKN200,0.04,VWS V14.01,2013-06-03 20:42:00,
2013-06-03 16:43:00,79.8,79.2,29.85,SSW,194,9.0,10.0,98,0.02,,BKN028,0.04,VWS V14.01,2013-06-03 20:43:00,
2013-06-03 16:44:00,79.8,79.2,29.85,South,170,12.0,12.0,98,0.02,,BKN028,0.04,VWS V14.01,2013-06-03 20:44:00,
2013-06-03 16:45:00,79.9,79.3,29.85,SSE,157,10.0,12.0,98,0.02,,BKN028,0.04,VWS V14.01,2013-06-03 20:45:00,
2013-06-03 16:46:00,79.9,79.3,29.85,SSE,167,10.0,10.0,98,0.02,,BKN028,0.04,VWS V14.01,2013-06-03 20:46:00,
2013-06-03 16:47:00,79.8,78.9,29.85,SSE,153,10.0,11.0,97,0.02,,BKN200,0.04,VWS V14.01,2013-06-03 20:47:00,
2013-06-03 16:48:00,79.8,78.9,29.85,SSE,167,11.0,12.0,97,0.02,,BKN028,0.04,VWS V14.01,2013-06-03 20:48:00,
2013-06-03 16:49:00,79.9,79.0,29.85,SSE,160,11.0,11.0,97,0.02,,BKN028,0.04,VWS V14.01,2013-06-03 20:49:00,
2013-06-03 16:50:00,79.8,79.2,29.85,South,173,14.0,14.0,98,0.02,,BKN028,0.04,VWS V14.01,2013-06-03 20:50:00,
2013-06-03 16:51:00,79.8,78.9,29.84,SSE,151,11.0,14.0,97,0.02,,BKN028,0.04,VWS V14.01,2013-06-03 20:51:00,
2013-06-03 16:52:00,79.8,78.9,29.84,SE,146,12.0,14.0,97,0.02,,BKN200,0.04,VWS V14.01,2013-06-03 20:52:00,
2013-06-03 16:53:00,79.8,78.9,29.84,SE,146,12.0,14.0,97,0.02,,BKN028,0.04,VWS V14.01,2013-06-03 20:53:00,
2013-06-03 16:54:00,79.8,78.9,29.84,SSE,160,14.0,14.0,97,0.02,,BKN028,0.04,VWS V14.01,2013-06-03 20:54:00,
2013-06-03 16:55:00,79.8,78.9,29.84,SSE,167,14.0,14.0,97,0.02,,BKN028,0.04,VWS V14.01,2013-06-03 20:55:00,
2013-06-03 16:56:00,79.8,78.9,29.84,SSE,153,12.0,14.0,97,0.02,,BKN028,0.04,VWS V14.01,2013-06-03 20:56:00,
2013-06-03 16:57:00,79.8,78.9,29.84,SSE,153,11.0,11.0,97,0.02,,BKN200,0.04,VWS V14.01,2013-06-03 20:57:00,
2013-06-03 16:58:00,79.8,78.9,29.84,SSE,155,10.0,14.0,97,0.02,,BKN028,0.04,VWS V14.01,2013-06-03 20:58:00,
2013-06-03 16:59:00,79.8,78.9,29.84,South,170,13.0,14.0,97,0.02,,BKN028,0.04,VWS V14.01,2013-06-03 20:59:00,
2013-06-03 17:00:00,79.8,78.9,29.84,SSE,165,12.0,13.0,97,0.02,,BKN028,0.04,VWS V14.01,2013-06-03 21:00:00,
2013-06-03 17:01:00,79.8,78.6,29.84,SSE,157,14.0,14.0,96,0.02,,BKN028,0.04,VWS V14.01,2013-06-03 21:01:00,
2013-06-03 17:02:00,79.8,78.6,29.85,SSE,150,12.0,13.0,96,0.02,,BKN200,0.04,VWS V14.01,2013-06-03 21:02:00,
2013-06-03 17:03:00,79.8,78.9,29.85,SSE,161,13.0,13.0,97,0.02,,BKN028,0.04,VWS V14.01,2013-06-03 21:03:00,
2013-06-03 17:04:00,79.8,78.6,29.85,SSE,156,13.0,14.0,96,0.02,,BKN028,0.04,VWS V14.01,2013-06-03 21:04:00,
2013-06-03 17:05:00,79.9,78.7,29.84,South,185,11.0,13.0,96,0.02,,BKN028,0.04,VWS V14.01,2013-06-03 21:05:00,
2013-06-03 17:06:00,79.8,78.6,29.85,South,177,12.0,12.0,96,0.02,,BKN028,0.04,VWS V14.01,2013-06-03 21:06:00,
2013-06-03 17:07:00,79.8,78.6,29.85,SSE,157,12.0,12.0,96,0.02,,BKN200,0.04,VWS V14.01,2013-06-03 21:07:00,
2013-06-03 17:08:00,79.8,78.6,29.85,SSE,156,11.0,13.0,96,0.02,,BKN028,0.04,VWS V14.01,2013-06-03 21:08:00,
2013-06-03 17:09:00,79.8,78.2,29.85,SSE,154,12.0,13.0,95,0.02,,BKN028,0.04,VWS V14.01,2013-06-03 21:09:00,
2013-06-03 17:10:00,79.8,78.2,29.85,South,181,14.0,14.0,95,0.01,,BKN028,0.04,VWS V14.01,2013-06-03 21:10:00,
2013-06-03 17:11:00,79.8,78.2,29.85,SSE,151,14.0,14.0,95,0.01,,BKN028,0.04,VWS V14.01,2013-06-03 21:11:00,
2013-06-03 17:12:00,79.9,78.7,29.85,SSE,164,11.0,12.0,96,0.01,,BKN200,0.04,VWS V14.01,2013-06-03 21:12:00,
2013-06-03 17:13:00,79.9,78.7,29.85,SSE,151,12.0,15.0,96,0.01,,BKN028,0.04,VWS V14.01,2013-06-03 21:13:00,
2013-06-03 17:14:00,80.1,78.5,29.85,South,179,13.0,13.0,95,0.01,,BKN028,0.04,VWS V14.01,2013-06-03 21:14:00,
2013-06-03 17:15:00,80.1,78.5,29.85,SSE,159,13.0,15.0,95,0.00,,BKN028,0.04,VWS V14.01,2013-06-03 21:15:00,
2013-06-03 17:16:00,79.9,78.0,29.85,SSE,159,11.0,15.0,94,0.00,,BKN028,0.04,VWS V14.01,2013-06-03 21:16:00,
2013-06-03 17:17:00,80.1,78.5,29.85,SSE,165,10.0,10.0,95,0.00,,BKN200,0.04,VWS V14.01,2013-06-03 21:17:00,
2013-06-03 17:18:00,80.1,78.5,29.85,SSE,164,10.0,11.0,95,0.00,,BKN028,0.04,VWS V14.01,2013-06-03 21:18:00,
2013-06-03 17:19:00,80.1,78.5,29.85,SSE,160,10.0,10.0,95,0.00,,BKN028,0.04,VWS V14.01,2013-06-03 21:19:00,
2013-06-03 17:20:00,80.1,78.5,29.85,SSE,164,14.0,14.0,95,0.00,,BKN028,0.04,VWS V14.01,2013-06-03 21:20:00,
2013-06-03 17:21:00,79.9,78.0,29.85,South,172,14.0,14.0,94,0.00,,BKN028,0.04,VWS V14.01,2013-06-03 21:21:00,
2013-06-03 17:22:00,79.9,78.3,29.85,South,180,12.0,12.0,95,0.00,,BKN200,0.04,VWS V14.01,2013-06-03 21:22:00,
2013-06-03 17:23:00,79.9,78.3,29.85,SSE,155,11.0,12.0,95,0.00,,BKN028,0.04,VWS V14.01,2013-06-03 21:23:00,
2013-06-03 17:24:00,79.9,78.0,29.85,SSE,155,13.0,13.0,94,0.00,,BKN028,0.04,VWS V14.01,2013-06-03 21:24:00,
2013-06-03 17:25:00,79.8,77.9,29.85,SSE,166,11.0,14.0,94,0.00,,BKN028,0.04,VWS V14.01,2013-06-03 21:25:00,
2013-06-03 17:26:00,79.8,77.9,29.85,SSE,149,12.0,13.0,94,0.00,,BKN028,0.04,VWS V14.01,2013-06-03 21:26:00,
2013-06-03 17:27:00,79.9,78.0,29.85,SE,144,10.0,10.0,94,0.00,,BKN200,0.04,VWS V14.01,2013-06-03 21:27:00,
2013-06-03 17:29:00,79.9,78.0,29.85,SSE,155,12.0,14.0,94,0.00,,BKN028,0.04,VWS V14.01,2013-06-03 21:29:00,
2013-06-03 17:30:00,79.9,77.7,29.85,SE,140,11.0,13.0,93,0.00,,BKN028,0.04,VWS V14.01,2013-06-03 21:30:00,
2013-06-03 17:31:00,80.1,78.2,29.85,SSE,155,12.0,13.0,94,0.00,,BKN028,0.04,VWS V14.01,2013-06-03 21:31:00,
2013-06-03 17:32:00,79.9,77.7,29.85,SSE,153,12.0,12.0,93,0.00,,BKN200,0.04,VWS V14.01,2013-06-03 21:32:00,
2013-06-03 17:34:00,79.9,77.7,29.85,SE,143,12.0,15.0,93,0.00,,BKN028,0.04,VWS V14.01,2013-06-03 21:34:00,
2013-06-03 17:35:00,79.9,77.7,29.85,SSE,159,14.0,14.0,93,0.00,,BKN028,0.04,VWS V14.01,2013-06-03 21:35:00,
2013-06-03 17:36:00,79.9,77.7,29.85,SE,143,13.0,15.0,93,0.00,,BKN028,0.04,VWS V14.01,2013-06-03 21:36:00,
2013-06-03 17:37:00,79.9,77.4,29.85,SE,130,13.0,14.0,92,0.00,,BKN200,0.04,VWS V14.01,2013-06-03 21:37:00,
2013-06-03 17:38:00,79.9,77.4,29.85,SE,130,13.0,14.0,92,0.00,,BKN028,0.04,VWS V14.01,2013-06-03 21:38:00,
2013-06-03 17:39:00,79.9,77.7,29.85,SSE,156,14.0,14.0,93,0.00,,BKN028,0.04,VWS V14.01,2013-06-03 21:39:00,
2013-06-03 17:40:00,80.1,77.9,29.85,SSE,159,11.0,14.0,93,0.00,,BKN028,0.04,VWS V14.01,2013-06-03 21:40:00,
2013-06-03 17:41:00,80.1,77.9,29.85,SSE,162,10.0,13.0,93,0.00,,BKN028,0.04,VWS V14.01,2013-06-03 21:41:00,
2013-06-03 17:42:00,80.1,77.6,29.85,SSE,147,13.0,14.0,92,0.00,,BKN200,0.04,VWS V14.01,2013-06-03 21:42:00,
2013-06-03 17:43:00,80.1,77.9,29.85,SE,146,14.0,15.0,93,0.00,,BKN028,0.04,VWS V14.01,2013-06-03 21:43:00,
2013-06-03 17:44:00,79.9,77.4,29.85,SSE,151,14.0,14.0,92,0.00,,BKN028,0.04,VWS V14.01,2013-06-03 21:44:00,
2013-06-03 17:45:00,79.9,77.4,29.85,SE,143,11.0,14.0,92,0.00,,BKN028,0.04,VWS V14.01,2013-06-03 21:45:00,
2013-06-03 17:46:00,80.1,77.9,29.85,SSE,153,10.0,13.0,93,0.00,,BKN028,0.04,VWS V14.01,2013-06-03 21:46:00,
2013-06-03 17:47:00,80.1,77.6,29.85,SSE,156,11.0,13.0,92,0.00,,BKN200,0.04,VWS V14.01,2013-06-03 21:47:00,
2013-06-03 17:48:00,80.1,77.6,29.85,SSE,153,13.0,13.0,92,0.00,,BKN028,0.04,VWS V14.01,2013-06-03 21:48:00,
2013-06-03 17:49:00,80.1,77.6,29.85,SSE,155,13.0,13.0,92,0.00,,BKN028,0.04,VWS V14.01,2013-06-03 21:49:00,
2013-06-03 17:50:00,80.1,77.6,29.85,SSE,149,14.0,15.0,92,0.00,,BKN028,0.04,VWS V14.01,2013-06-03 21:50:00,
2013-06-03 17:51:00,80.1,77.6,29.85,SSE,159,12.0,14.0,92,0.00,,BKN028,0.04,VWS V14.01,2013-06-03 21:51:00,
2013-06-03 17:52:00,80.1,77.6,29.85,SE,144,13.0,13.0,92,0.00,,BKN200,0.04,VWS V14.01,2013-06-03 21:52:00,
2013-06-03 17:53:00,80.1,77.6,29.85,SSE,153,13.0,13.0,92,0.00,,BKN028,0.04,VWS V14.01,2013-06-03 21:53:00,
2013-06-03 17:54:00,80.1,77.9,29.85,SSE,154,11.0,13.0,93,0.00,,BKN028,0.04,VWS V14.01,2013-06-03 21:54:00,
2013-06-03 17:55:00,80.3,78.1,29.85,SE,146,11.0,13.0,93,0.00,,BKN028,0.04,VWS V14.01,2013-06-03 21:55:00,
2013-06-03 17:56:00,80.3,78.1,29.85,SSE,151,10.0,13.0,93,0.00,,BKN028,0.04,VWS V14.01,2013-06-03 21:56:00,
2013-06-03 17:57:00,80.3,78.1,29.85,SE,138,14.0,14.0,93,0.00,,BKN200,0.04,VWS V14.01,2013-06-03 21:57:00,
2013-06-03 17:58:00,80.3,78.1,29.85,SSE,147,12.0,15.0,93,0.00,,BKN028,0.04,VWS V14.01,2013-06-03 21:58:00,
2013-06-03 17:59:00,80.1,77.6,29.85,SSE,150,15.0,15.0,92,0.00,,BKN028,0.04,VWS V14.01,2013-06-03 21:59:00,
2013-06-03 18:00:00,80.1,77.9,29.85,SSE,149,15.0,16.0,93,0.00,,BKN028,0.04,VWS V14.01,2013-06-03 22:00:00,
2013-06-03 18:01:00,80.1,77.9,29.85,SSE,150,12.0,16.0,93,0.00,,BKN028,0.04,VWS V14.01,2013-06-03 22:01:00,
2013-06-03 18:02:00,79.9,77.7,29.85,SE,145,11.0,12.0,93,0.00,,BKN200,0.04,VWS V14.01,2013-06-03 22:02:00,
2013-06-03 18:03:00,79.9,77.7,29.84,SE,141,12.0,15.0,93,0.00,,BKN028,0.04,VWS V14.01,2013-06-03 22:03:00,
2013-06-03 18:04:00,80.1,78.2,29.85,SSE,153,9.0,13.0,94,0.00,,BKN028,0.04,VWS V14.01,2013-06-03 22:04:00,
2013-06-03 18:05:00,80.1,78.2,29.85,SSE,163,13.0,13.0,94,0.00,,BKN028,0.04,VWS V14.01,2013-06-03 22:05:00,
2013-06-03 18:06:00,80.1,77.9,29.85,SSE,160,11.0,13.0,93,0.00,,BKN028,0.04,VWS V14.01,2013-06-03 22:06:00,
2013-06-03 18:07:00,80.3,78.4,29.84,SSE,157,12.0,13.0,94,0.00,,BKN200,0.04,VWS V14.01,2013-06-03 22:07:00,
2013-06-03 18:08:00,80.3,78.4,29.84,SSE,157,12.0,13.0,94,0.00,,BKN028,0.04,VWS V14.01,2013-06-03 22:08:00,
2013-06-03 18:09:00,80.3,78.1,29.84,SSE,158,12.0,12.0,93,0.00,,BKN028,0.04,VWS V14.01,2013-06-03 22:09:00,
2013-06-03 18:10:00,80.3,78.1,29.84,South,173,12.0,13.0,93,0.00,,BKN028,0.04,VWS V14.01,2013-06-03 22:10:00,
2013-06-03 18:11:00,80.3,78.1,29.84,SSE,155,13.0,13.0,93,0.00,,BKN028,0.04,VWS V14.01,2013-06-03 22:11:00,
2013-06-03 18:12:00,80.3,78.1,29.84,SSE,166,11.0,14.0,93,0.00,,BKN200,0.04,VWS V14.01,2013-06-03 22:12:00,
2013-06-03 18:13:00,80.3,78.1,29.84,SSE,166,11.0,14.0,93,0.00,,BKN028,0.04,VWS V14.01,2013-06-03 22:13:00,
2013-06-03 18:14:00,80.1,77.6,29.84,South,172,11.0,12.0,92,0.00,,BKN028,0.04,VWS V14.01,2013-06-03 22:14:00,
2013-06-03 18:15:00,80.1,77.6,29.84,South,171,14.0,14.0,92,0.00,,BKN028,0.04,VWS V14.01,2013-06-03 22:15:00,
2013-06-03 18:16:00,80.1,77.6,29.84,SSE,156,12.0,14.0,92,0.00,,BKN028,0.04,VWS V14.01,2013-06-03 22:16:00,
2013-06-03 18:17:00,80.1,77.9,29.84,South,172,11.0,11.0,93,0.00,,BKN200,0.04,VWS V14.01,2013-06-03 22:17:00,
2013-06-03 18:18:00,80.1,77.9,29.84,SSE,159,10.0,13.0,93,0.00,,BKN028,0.04,VWS V14.01,2013-06-03 22:18:00,
2013-06-03 18:19:00,80.1,77.9,29.84,SSE,153,13.0,13.0,93,0.00,,BKN028,0.04,VWS V14.01,2013-06-03 22:19:00,
2013-06-03 18:20:00,80.1,77.6,29.84,SSE,163,12.0,14.0,92,0.00,,BKN028,0.04,VWS V14.01,2013-06-03 22:20:00,
2013-06-03 18:21:00,79.9,77.7,29.84,SSE,167,10.0,13.0,93,0.00,,BKN028,0.04,VWS V14.01,2013-06-03 22:21:00,
2013-06-03 18:22:00,80.1,77.9,29.84,South,173,10.0,12.0,93,0.00,,BKN200,0.04,VWS V14.01,2013-06-03 22:22:00,
2013-06-03 18:23:00,80.1,77.9,29.84,SSW,199,12.0,14.0,93,0.00,,BKN028,0.04,VWS V14.01,2013-06-03 22:23:00,
2013-06-03 18:24:00,80.1,77.9,29.84,SSE,167,12.0,15.0,93,0.00,,BKN028,0.04,VWS V14.01,2013-06-03 22:24:00,
2013-06-03 18:25:00,80.1,77.9,29.84,SSE,165,12.0,12.0,93,0.00,,BKN028,0.04,VWS V14.01,2013-06-03 22:25:00,
2013-06-03 18:26:00,80.1,77.9,29.84,SSE,167,12.0,12.0,93,0.00,,BKN028,0.04,VWS V14.01,2013-06-03 22:26:00,
2013-06-03 18:27:00,79.9,77.7,29.85,SSE,147,12.0,12.0,93,0.00,,BKN200,0.04,VWS V14.01,2013-06-03 22:27:00,
2013-06-03 18:28:00,79.9,77.7,29.85,South,175,9.0,11.0,93,0.00,,BKN028,0.04,VWS V14.01,2013-06-03 22:28:00,
2013-06-03 18:29:00,79.9,77.7,29.85,SSE,161,9.0,12.0,93,0.00,,BKN028,0.04,VWS V14.01,2013-06-03 22:29:00,
2013-06-03 18:30:00,79.8,77.6,29.85,South,180,10.0,14.0,93,0.00,,BKN028,0.04,VWS V14.01,2013-06-03 22:30:00,
2013-06-03 18:31:00,79.8,77.6,29.85,South,182,13.0,13.0,93,0.00,,BKN028,0.04,VWS V14.01,2013-06-03 22:31:00,
2013-06-03 18:32:00,79.8,77.6,29.85,SSE,157,10.0,11.0,93,0.00,,BKN200,0.04,VWS V14.01,2013-06-03 22:32:00,
2013-06-03 18:33:00,79.8,77.6,29.84,SSE,164,11.0,12.0,93,0.00,,BKN028,0.04,VWS V14.01,2013-06-03 22:33:00,
2013-06-03 18:34:00,79.8,77.6,29.85,SSE,162,9.0,12.0,93,0.00,,BKN028,0.04,VWS V14.01,2013-06-03 22:34:00,
2013-06-03 18:35:00,79.8,77.9,29.85,SSE,165,10.0,10.0,94,0.00,,BKN028,0.04,VWS V14.01,2013-06-03 22:35:00,
2013-06-03 18:36:00,79.8,77.9,29.85,SSE,155,10.0,10.0,94,0.00,,BKN028,0.04,VWS V14.01,2013-06-03 22:36:00,
2013-06-03 18:37:00,79.8,77.9,29.85,SSE,157,7.0,10.0,94,0.00,,BKN200,0.04,VWS V14.01,2013-06-03 22:37:00,
2013-06-03 18:38:00,79.8,77.9,29.85,SSE,150,10.0,10.0,94,0.00,,BKN028,0.04,VWS V14.01,2013-06-03 22:38:00,
2013-06-03 18:39:00,79.8,77.6,29.85,SSE,150,6.0,10.0,93,0.00,,BKN028,0.04,VWS V14.01,2013-06-03 22:39:00,
2013-06-03 18:40:00,79.8,77.9,29.85,SE,144,4.0,8.0,94,0.00,,BKN028,0.04,VWS V14.01,2013-06-03 22:40:00,
2013-06-03 18:41:00,79.8,77.9,29.85,SE,125,6.0,8.0,94,0.00,,BKN028,0.04,VWS V14.01,2013-06-03 22:41:00,
2013-06-03 18:42:00,79.6,77.7,29.86,ESE,121,6.0,7.0,94,0.00,,BKN200,0.04,VWS V14.01,2013-06-03 22:42:00,
2013-06-03 18:43:00,79.6,77.7,29.86,SE,132,7.0,8.0,94,0.00,,BKN028,0.04,VWS V14.01,2013-06-03 22:43:00,
2013-06-03 18:44:00,79.6,77.7,29.86,SE,125,7.0,8.0,94,0.00,,BKN028,0.04,VWS V14.01,2013-06-03 22:44:00,
2013-06-03 18:45:00,79.6,77.4,29.86,ESE,121,5.0,7.0,93,0.00,,BKN028,0.04,VWS V14.01,2013-06-03 22:45:00,
2013-06-03 18:46:00,79.4,77.5,29.86,ESE,109,6.0,6.0,94,0.00,,BKN028,0.04,VWS V14.01,2013-06-03 22:46:00,
2013-06-03 18:47:00,79.6,77.7,29.86,ESE,111,7.0,8.0,94,0.00,,BKN200,0.04,VWS V14.01,2013-06-03 22:47:00,
2013-06-03 18:48:00,79.6,77.7,29.86,ESE,107,8.0,8.0,94,0.00,,BKN028,0.04,VWS V14.01,2013-06-03 22:48:00,
2013-06-03 18:49:00,79.6,77.7,29.86,ESE,116,7.0,8.0,94,0.00,,BKN028,0.04,VWS V14.01,2013-06-03 22:49:00,
2013-06-03 18:50:00,79.6,77.7,29.86,East,96,5.0,9.0,94,0.00,,BKN028,0.04,VWS V14.01,2013-06-03 22:50:00,
2013-06-03 18:51:00,79.6,78.1,29.86,ESE,104,6.0,6.0,95,0.00,,BKN028,0.04,VWS V14.01,2013-06-03 22:51:00,
2013-06-03 18:52:00,79.6,78.1,29.86,ESE,118,10.0,10.0,95,0.00,,BKN200,0.04,VWS V14.01,2013-06-03 22:52:00,
2013-06-03 18:53:00,79.6,78.1,29.86,ESE,118,10.0,10.0,95,0.00,,BKN028,0.04,VWS V14.01,2013-06-03 22:53:00,
2013-06-03 18:54:00,79.6,78.1,29.86,ESE,114,12.0,13.0,95,0.00,,BKN028,0.04,VWS V14.01,2013-06-03 22:54:00,
2013-06-03 18:55:00,79.6,78.1,29.86,ESE,116,12.0,12.0,95,0.00,,BKN028,0.04,VWS V14.01,2013-06-03 22:55:00,
2013-06-03 18:56:00,79.4,77.5,29.86,SE,131,12.0,12.0,94,0.00,,BKN028,0.04,VWS V14.01,2013-06-03 22:56:00,
2013-06-03 18:57:00,79.2,77.3,29.86,SE,132,12.0,13.0,94,0.00,,BKN200,0.04,VWS V14.01,2013-06-03 22:57:00,
2013-06-03 18:58:00,79.2,77.3,29.86,SE,132,12.0,13.0,94,0.00,,BKN028,0.04,VWS V14.01,2013-06-03 22:58:00,
2013-06-03 18:59:00,79.2,77.3,29.86,SE,144,11.0,12.0,94,0.00,,BKN028,0.04,VWS V14.01,2013-06-03 22:59:00,
2013-06-03 19:01:00,79.2,77.7,29.86,SSE,150,11.0,11.0,95,0.00,,BKN028,0.04,VWS V14.01,2013-06-03 23:01:00,
2013-06-03 19:02:00,79.2,77.7,29.87,SSE,154,11.0,11.0,95,0.00,,BKN200,0.04,VWS V14.01,2013-06-03 23:02:00,
2013-06-03 19:03:00,79.2,77.7,29.86,SSE,147,11.0,12.0,95,0.00,,BKN028,0.04,VWS V14.01,2013-06-03 23:03:00,
2013-06-03 19:04:00,79.2,77.7,29.87,SSE,151,11.0,11.0,95,0.00,,BKN028,0.04,VWS V14.01,2013-06-03 23:04:00,
2013-06-03 19:05:00,79.2,77.7,29.87,SSE,152,11.0,13.0,95,0.00,,BKN028,0.04,VWS V14.01,2013-06-03 23:05:00,
2013-06-03 19:07:00,79.4,77.8,29.87,SE,139,10.0,10.0,95,0.00,,BKN200,0.04,VWS V14.01,2013-06-03 23:07:00,
2013-06-03 19:08:00,79.4,77.8,29.87,SE,144,10.0,12.0,95,0.00,,BKN028,0.04,VWS V14.01,2013-06-03 23:08:00,
2013-06-03 19:09:00,79.4,77.8,29.87,SE,142,11.0,11.0,95,0.00,,BKN028,0.04,VWS V14.01,2013-06-03 23:09:00,
2013-06-03 19:10:00,79.4,77.8,29.87,SE,136,10.0,11.0,95,0.00,,BKN028,0.04,VWS V14.01,2013-06-03 23:10:00,
2013-06-03 19:11:00,79.4,77.8,29.87,SE,138,10.0,11.0,95,0.00,,BKN028,0.04,VWS V14.01,2013-06-03 23:11:00,
2013-06-03 19:12:00,79.4,77.8,29.87,SE,138,11.0,11.0,95,0.00,,BKN200,0.04,VWS V14.01,2013-06-03 23:12:00,
2013-06-03 19:13:00,79.4,77.8,29.87,SE,125,11.0,11.0,95,0.00,,BKN028,0.04,VWS V14.01,2013-06-03 23:13:00,
2013-06-03 19:14:00,79.4,77.8,29.87,SE,130,10.0,11.0,95,0.00,,BKN028,0.04,VWS V14.01,2013-06-03 23:14:00,
2013-06-03 19:15:00,79.2,77.7,29.88,SE,124,9.0,10.0,95,0.00,,BKN028,0.04,VWS V14.01,2013-06-03 23:15:00,
2013-06-03 19:16:00,79.2,77.7,29.88,SE,125,7.0,10.0,95,0.00,,BKN028,0.04,VWS V14.01,2013-06-03 23:16:00,
2013-06-03 19:17:00,79.2,77.7,29.88,ESE,105,5.0,6.0,95,0.00,,BKN200,0.04,VWS V14.01,2013-06-03 23:17:00,
2013-06-03 19:18:00,79.2,77.7,29.88,ESE,112,6.0,9.0,95,0.00,,BKN028,0.04,VWS V14.01,2013-06-03 23:18:00,
2013-06-03 19:19:00,79.2,77.7,29.88,ESE,113,5.0,6.0,95,0.00,,BKN028,0.04,VWS V14.01,2013-06-03 23:19:00,
2013-06-03 19:20:00,79.2,77.7,29.88,ESE,119,6.0,7.0,95,0.00,,BKN028,0.04,VWS V14.01,2013-06-03 23:20:00,
2013-06-03 19:21:00,79.2,77.7,29.88,East,101,6.0,6.0,95,0.00,,BKN028,0.04,VWS V14.01,2013-06-03 23:21:00,
2013-06-03 19:22:00,79.0,76.2,29.88,ESE,103,5.0,6.0,91,0.00,,BKN200,0.04,VWS V14.01,2013-06-03 23:22:00,
2013-06-03 19:23:00,79.0,76.2,29.88,ESE,103,5.0,6.0,91,0.00,,BKN028,0.04,VWS V14.01,2013-06-03 23:23:00,
2013-06-03 19:24:00,79.0,77.4,29.88,ESE,104,3.0,5.0,95,0.00,,BKN028,0.04,VWS V14.01,2013-06-03 23:24:00,
2013-06-03 19:25:00,79.0,77.4,29.88,ESE,105,4.0,6.0,95,0.00,,BKN028,0.04,VWS V14.01,2013-06-03 23:25:00,
2013-06-03 19:26:00,78.8,77.2,29.88,ESE,103,5.0,5.0,95,0.00,,BKN028,0.04,VWS V14.01,2013-06-03 23:26:00,
2013-06-03 19:27:00,78.8,77.2,29.88,ESE,109,4.0,4.0,95,0.00,,BKN200,0.04,VWS V14.01,2013-06-03 23:27:00,
2013-06-03 19:28:00,78.8,77.2,29.88,ESE,110,4.0,5.0,95,0.00,,BKN028,0.04,VWS V14.01,2013-06-03 23:28:00,
2013-06-03 19:31:00,78.8,76.9,29.89,ESE,110,4.0,5.0,94,0.00,,BKN028,0.04,VWS V14.01,2013-06-03 23:31:00,
2013-06-03 19:32:00,78.8,77.2,29.89,ESE,115,2.0,2.0,95,0.00,,BKN200,0.04,VWS V14.01,2013-06-03 23:32:00,
2013-06-03 19:33:00,78.8,77.2,29.89,ESE,115,2.0,2.0,95,0.00,,BKN028,0.04,VWS V14.01,2013-06-03 23:33:00,
2013-06-03 19:34:00,78.8,77.2,29.89,ESE,115,3.0,3.0,95,0.00,,BKN028,0.04,VWS V14.01,2013-06-03 23:34:00,
2013-06-03 19:35:00,78.8,76.9,29.89,ESE,115,1.0,3.0,94,0.00,,BKN028,0.04,VWS V14.01,2013-06-03 23:35:00,
2013-06-03 19:37:00,78.8,76.9,29.89,SE,135,2.0,3.0,94,0.00,,BKN200,0.04,VWS V14.01,2013-06-03 23:37:00,
2013-06-03 19:38:00,78.8,76.9,29.89,SE,135,3.0,3.0,94,0.00,,BKN028,0.04,VWS V14.01,2013-06-03 23:38:00,
2013-06-03 19:39:00,78.8,76.9,29.89,SE,135,2.0,3.0,94,0.00,,BKN028,0.04,VWS V14.01,2013-06-03 23:39:00,
2013-06-03 19:40:00,78.8,76.9,29.90,SE,135,2.0,2.0,94,0.00,,BKN028,0.04,VWS V14.01,2013-06-03 23:40:00,
2013-06-03 19:41:00,78.8,76.9,29.90,SE,135,2.0,3.0,94,0.00,,BKN028,0.04,VWS V14.01,2013-06-03 23:41:00,
2013-06-03 19:42:00,78.8,76.9,29.90,SE,135,2.0,3.0,94,0.00,,BKN200,0.04,VWS V14.01,2013-06-03 23:42:00,
2013-06-03 19:43:00,78.8,76.9,29.90,SE,135,2.0,3.0,94,0.00,,BKN028,0.04,VWS V14.01,2013-06-03 23:43:00,
2013-06-03 19:44:00,78.8,76.9,29.90,SE,135,0.0,2.0,94,0.00,,BKN028,0.04,VWS V14.01,2013-06-03 23:44:00,
2013-06-03 19:45:00,78.8,76.9,29.90,SE,135,1.0,1.0,94,0.00,,BKN028,0.04,VWS V14.01,2013-06-03 23:45:00,
2013-06-03 19:46:00,78.8,76.9,29.90,SE,135,3.0,3.0,94,0.00,,BKN028,0.04,VWS V14.01,2013-06-03 23:46:00,
2013-06-03 19:47:00,78.8,76.9,29.90,SE,135,3.0,4.0,94,0.00,,BKN200,0.04,VWS V14.01,2013-06-03 23:47:00,
2013-06-03 19:48:00,78.8,76.9,29.90,SE,135,3.0,4.0,94,0.00,,BKN028,0.04,VWS V14.01,2013-06-03 23:48:00,
2013-06-03 19:49:00,78.8,76.9,29.90,SE,135,2.0,3.0,94,0.00,,BKN028,0.04,VWS V14.01,2013-06-03 23:49:00,
2013-06-03 19:50:00,79.0,77.1,29.90,SE,135,4.0,4.0,94,0.00,,BKN028,0.04,VWS V14.01,2013-06-03 23:50:00,
2013-06-03 19:51:00,79.0,77.1,29.90,SE,125,5.0,5.0,94,0.00,,BKN028,0.04,VWS V14.01,2013-06-03 23:51:00,
2013-06-03 19:52:00,79.0,77.1,29.90,ESE,121,6.0,6.0,94,0.00,,BKN200,0.04,VWS V14.01,2013-06-03 23:52:00,
2013-06-03 19:53:00,79.0,77.1,29.90,ESE,121,6.0,6.0,94,0.00,,BKN028,0.04,VWS V14.01,2013-06-03 23:53:00,
2013-06-03 19:54:00,79.0,77.1,29.90,ESE,114,7.0,7.0,94,0.00,,BKN028,0.04,VWS V14.01,2013-06-03 23:54:00,
2013-06-03 19:55:00,79.0,77.1,29.90,ESE,120,7.0,7.0,94,0.00,,BKN028,0.04,VWS V14.01,2013-06-03 23:55:00,
2013-06-03 19:56:00,79.0,77.1,29.90,ESE,116,7.0,7.0,94,0.00,,BKN028,0.04,VWS V14.01,2013-06-03 23:56:00,
2013-06-03 19:57:00,79.0,77.1,29.90,SE,125,9.0,9.0,94,0.00,,BKN200,0.04,VWS V14.01,2013-06-03 23:57:00,
2013-06-03 19:58:00,79.0,77.1,29.90,SE,125,9.0,9.0,94,0.00,,BKN028,0.04,VWS V14.01,2013-06-03 23:58:00,
2013-06-03 19:59:00,79.0,77.1,29.90,SE,133,9.0,10.0,94,0.00,,BKN028,0.04,VWS V14.01,2013-06-03 23:59:00,
2013-06-03 20:00:00,79.0,77.1,29.90,SE,131,5.0,10.0,94,0.00,,BKN028,0.04,VWS V14.01,2013-06-04 00:00:00,
2013-06-03 20:01:00,79.0,77.1,29.90,ESE,116,9.0,9.0,94,0.00,,BKN028,0.04,VWS V14.01,2013-06-04 00:01:00,
2013-06-03 20:02:00,79.0,77.1,29.90,ESE,117,10.0,10.0,94,0.00,,BKN200,0.04,VWS V14.01,2013-06-04 00:02:00,
2013-06-03 20:03:00,79.0,77.1,29.90,ESE,120,9.0,10.0,94,0.00,,BKN028,0.04,VWS V14.01,2013-06-04 00:03:00,
2013-06-03 20:04:00,79.0,77.1,29.90,ESE,118,11.0,11.0,94,0.00,,BKN028,0.04,VWS V14.01,2013-06-04 00:04:00,
2013-06-03 20:05:00,79.0,77.1,29.90,SE,124,10.0,11.0,94,0.00,,BKN028,0.04,VWS V14.01,2013-06-04 00:05:00,
2013-06-03 20:06:00,79.0,77.1,29.90,SE,126,9.0,11.0,94,0.00,,BKN028,0.04,VWS V14.01,2013-06-04 00:06:00,
2013-06-03 20:07:00,79.0,77.1,29.90,SE,136,11.0,11.0,94,0.00,,BKN200,0.04,VWS V14.01,2013-06-04 00:07:00,
2013-06-03 20:08:00,79.0,77.1,29.90,SE,132,10.0,10.0,94,0.00,,BKN028,0.04,VWS V14.01,2013-06-04 00:08:00,
2013-06-03 20:09:00,79.0,77.1,29.90,SE,142,8.0,11.0,94,0.00,,BKN028,0.04,VWS V14.01,2013-06-04 00:09:00,
2013-06-03 20:10:00,79.0,77.1,29.90,SE,138,9.0,12.0,94,0.00,,BKN028,0.04,VWS V14.01,2013-06-04 00:10:00,
2013-06-03 20:11:00,79.0,77.1,29.90,SE,144,7.0,10.0,94,0.00,,BKN028,0.04,VWS V14.01,2013-06-04 00:11:00,
2013-06-03 20:12:00,79.0,77.1,29.90,South,169,5.0,7.0,94,0.00,,BKN200,0.04,VWS V14.01,2013-06-04 00:12:00,
2013-06-03 20:13:00,79.0,77.1,29.90,South,175,7.0,8.0,94,0.00,,BKN028,0.04,VWS V14.01,2013-06-04 00:13:00,
2013-06-03 20:14:00,79.0,77.4,29.90,SSE,157,7.0,9.0,95,0.00,,BKN028,0.04,VWS V14.01,2013-06-04 00:14:00,
2013-06-03 20:15:00,79.0,77.1,29.90,South,169,6.0,9.0,94,0.00,,BKN028,0.04,VWS V14.01,2013-06-04 00:15:00,
2013-06-03 20:16:00,79.0,77.1,29.90,SSE,159,7.0,7.0,94,0.00,,BKN028,0.04,VWS V14.01,2013-06-04 00:16:00,
2013-06-03 20:17:00,79.0,77.1,29.90,SSE,165,8.0,9.0,94,0.00,,BKN200,0.04,VWS V14.01,2013-06-04 00:17:00,
2013-06-03 20:18:00,79.0,77.1,29.90,SSE,165,8.0,9.0,94,0.00,,BKN028,0.04,VWS V14.01,2013-06-04 00:18:00,
2013-06-03 20:19:00,79.0,77.1,29.90,SSE,165,9.0,10.0,94,0.00,,BKN028,0.04,VWS V14.01,2013-06-04 00:19:00,
2013-06-03 20:20:00,79.0,77.1,29.90,SSE,155,6.0,9.0,94,0.00,,BKN028,0.04,VWS V14.01,2013-06-04 00:20:00,
2013-06-03 20:21:00,79.0,77.1,29.89,South,177,10.0,10.0,94,0.00,,BKN028,0.04,VWS V14.01,2013-06-04 00:21:00,
2013-06-03 20:22:00,79.0,77.4,29.89,South,183,10.0,10.0,95,0.00,,BKN200,0.04,VWS V14.01,2013-06-04 00:22:00,
2013-06-03 20:23:00,79.0,77.4,29.89,South,183,10.0,10.0,95,0.00,,BKN028,0.04,VWS V14.01,2013-06-04 00:23:00,
2013-06-03 20:24:00,79.0,77.1,29.89,South,179,9.0,11.0,94,0.00,,BKN028,0.04,VWS V14.01,2013-06-04 00:24:00,
2013-06-03 20:25:00,79.0,77.4,29.89,South,178,9.0,9.0,95,0.00,,BKN028,0.04,VWS V14.01,2013-06-04 00:25:00,
2013-06-03 20:26:00,79.0,77.4,29.89,SSE,167,8.0,11.0,95,0.00,,BKN028,0.04,VWS V14.01,2013-06-04 00:26:00,
2013-06-03 20:27:00,79.0,77.1,29.89,South,173,13.0,13.0,94,0.00,,BKN200,0.04,VWS V14.01,2013-06-04 00:27:00,
2013-06-03 20:28:00,79.0,77.1,29.89,South,173,13.0,13.0,94,0.00,,BKN028,0.04,VWS V14.01,2013-06-04 00:28:00,
2013-06-03 20:29:00,79.0,77.1,29.89,South,175,12.0,13.0,94,0.00,,BKN028,0.04,VWS V14.01,2013-06-04 00:29:00,
2013-06-03 20:30:00,79.0,77.4,29.89,SSE,168,7.0,12.0,95,0.00,,BKN028,0.04,VWS V14.01,2013-06-04 00:30:00,
2013-06-03 20:31:00,79.0,77.4,29.89,South,171,12.0,13.0,95,0.00,,BKN028,0.04,VWS V14.01,2013-06-04 00:31:00,
2013-06-03 20:32:00,79.0,77.1,29.89,South,175,10.0,11.0,94,0.00,,BKN200,0.04,VWS V14.01,2013-06-04 00:32:00,
2013-06-03 20:33:00,79.0,77.1,29.89,South,175,10.0,11.0,94,0.00,,BKN028,0.04,VWS V14.01,2013-06-04 00:33:00,
2013-06-03 20:34:00,78.8,76.9,29.89,South,186,10.0,11.0,94,0.00,,BKN028,0.04,VWS V14.01,2013-06-04 00:34:00,
2013-06-03 20:35:00,78.8,76.9,29.89,South,171,10.0,12.0,94,0.00,,BKN028,0.04,VWS V14.01,2013-06-04 00:35:00,
2013-06-03 20:36:00,79.0,77.1,29.88,SSW,200,13.0,14.0,94,0.00,,BKN028,0.04,VWS V14.01,2013-06-04 00:36:00,
2013-06-03 20:37:00,78.8,76.9,29.88,South,171,10.0,12.0,94,0.00,,BKN200,0.04,VWS V14.01,2013-06-04 00:37:00,
2013-06-03 20:38:00,78.8,76.9,29.88,South,171,10.0,12.0,94,0.00,,BKN028,0.04,VWS V14.01,2013-06-04 00:38:00,
2013-06-03 20:39:00,79.0,77.1,29.88,South,176,10.0,13.0,94,0.00,,BKN028,0.04,VWS V14.01,2013-06-04 00:39:00,
2013-06-03 20:40:00,79.0,77.1,29.88,South,181,10.0,11.0,94,0.00,,BKN028,0.04,VWS V14.01,2013-06-04 00:40:00,
2013-06-03 20:41:00,79.0,77.1,29.88,South,183,10.0,11.0,94,0.00,,BKN028,0.04,VWS V14.01,2013-06-04 00:41:00,
2013-06-03 20:42:00,79.0,77.1,29.89,SSW,194,9.0,10.0,94,0.00,,BKN200,0.04,VWS V14.01,2013-06-04 00:42:00,
2013-06-03 20:43:00,79.0,77.1,29.89,SSW,194,9.0,10.0,94,0.00,,BKN028,0.04,VWS V14.01,2013-06-04 00:43:00,
2013-06-03 20:44:00,79.0,77.1,29.89,SSW,205,10.0,10.0,94,0.00,,BKN028,0.04,VWS V14.01,2013-06-04 00:44:00,
2013-06-03 20:45:00,79.0,77.1,29.89,South,189,9.0,10.0,94,0.00,,BKN028,0.04,VWS V14.01,2013-06-04 00:45:00,
2013-06-03 20:46:00,79.0,77.1,29.89,SSW,195,10.0,10.0,94,0.00,,BKN028,0.04,VWS V14.01,2013-06-04 00:46:00,
2013-06-03 20:47:00,79.0,77.1,29.89,SSW,207,10.0,11.0,94,0.00,,BKN200,0.04,VWS V14.01,2013-06-04 00:47:00,
2013-06-03 20:48:00,79.0,77.1,29.89,SSW,207,10.0,11.0,94,0.00,,BKN028,0.04,VWS V14.01,2013-06-04 00:48:00,
2013-06-03 20:49:00,79.0,77.1,29.89,SSW,211,15.0,15.0,94,0.00,,BKN028,0.04,VWS V14.01,2013-06-04 00:49:00,
2013-06-03 20:50:00,79.0,77.1,29.89,SW,222,12.0,15.0,94,0.00,,BKN028,0.04,VWS V14.01,2013-06-04 00:50:00,
2013-06-03 20:51:00,79.0,77.1,29.89,SW,223,11.0,12.0,94,0.00,,BKN028,0.04,VWS V14.01,2013-06-04 00:51:00,
2013-06-03 20:52:00,79.0,77.4,29.89,SSW,202,12.0,12.0,95,0.00,,BKN200,0.04,VWS V14.01,2013-06-04 00:52:00,
2013-06-03 20:53:00,79.0,77.4,29.89,SSW,202,12.0,12.0,95,0.00,,BKN028,0.04,VWS V14.01,2013-06-04 00:53:00,
2013-06-03 20:54:00,79.0,77.1,29.89,WSW,239,3.0,12.0,94,0.00,,BKN028,0.04,VWS V14.01,2013-06-04 00:54:00,
2013-06-03 20:55:00,79.0,77.1,29.89,SW,223,5.0,12.0,94,0.00,,BKN028,0.04,VWS V14.01,2013-06-04 00:55:00,
2013-06-03 20:56:00,79.0,77.1,29.89,SW,229,9.0,9.0,94,0.00,,BKN028,0.04,VWS V14.01,2013-06-04 00:56:00,
2013-06-03 20:57:00,79.0,77.1,29.89,SSW,205,10.0,11.0,94,0.00,,BKN200,0.04,VWS V14.01,2013-06-04 00:57:00,
2013-06-03 20:58:00,79.0,77.1,29.89,SSW,205,10.0,11.0,94,0.00,,BKN028,0.04,VWS V14.01,2013-06-04 00:58:00,
2013-06-03 20:59:00,79.0,77.1,29.89,SW,214,10.0,13.0,94,0.00,,BKN028,0.04,VWS V14.01,2013-06-04 00:59:00,
2013-06-03 21:00:00,79.0,77.1,29.89,SW,223,9.0,13.0,94,0.00,,BKN028,0.04,VWS V14.01,2013-06-04 01:00:00,
2013-06-03 21:01:00,79.0,77.1,29.89,SSW,211,11.0,11.0,94,0.00,,BKN028,0.04,VWS V14.01,2013-06-04 01:01:00,
2013-06-03 21:02:00,79.2,77.3,29.88,SSW,202,14.0,14.0,94,0.00,,BKN200,0.04,VWS V14.01,2013-06-04 01:02:00,
2013-06-03 21:03:00,79.2,77.3,29.88,SSW,202,14.0,14.0,94,0.00,,BKN028,0.04,VWS V14.01,2013-06-04 01:03:00,
2013-06-03 21:04:00,79.2,77.3,29.89,SSW,207,6.0,14.0,94,0.00,,BKN028,0.04,VWS V14.01,2013-06-04 01:04:00,
2013-06-03 21:05:00,79.2,77.3,29.88,SSW,212,12.0,12.0,94,0.00,,BKN028,0.04,VWS V14.01,2013-06-04 01:05:00,
2013-06-03 21:06:00,79.0,77.1,29.88,SW,215,11.0,13.0,94,0.00,,BKN028,0.04,VWS V14.01,2013-06-04 01:06:00,
2013-06-03 21:07:00,79.0,77.1,29.88,SSW,198,17.0,17.0,94,0.00,,BKN200,0.04,VWS V14.01,2013-06-04 01:07:00,
2013-06-03 21:08:00,79.0,77.1,29.88,SSW,194,12.0,17.0,94,0.00,,BKN028,0.04,VWS V14.01,2013-06-04 01:08:00,
2013-06-03 21:09:00,79.0,77.1,29.88,SSW,212,15.0,15.0,94,0.00,,BKN028,0.04,VWS V14.01,2013-06-04 01:09:00,
2013-06-03 21:10:00,79.2,77.3,29.89,SW,222,9.0,15.0,94,0.00,,BKN028,0.04,VWS V14.01,2013-06-04 01:10:00,
2013-06-03 21:11:00,79.2,77.3,29.89,SSW,211,12.0,14.0,94,0.00,,BKN028,0.04,VWS V14.01,2013-06-04 01:11:00,
2013-06-03 21:12:00,79.2,77.3,29.89,SSW,192,14.0,16.0,94,0.00,,BKN200,0.04,VWS V14.01,2013-06-04 01:12:00,
2013-06-03 21:13:00,79.2,77.3,29.89,SSW,192,14.0,16.0,94,0.00,,BKN028,0.04,VWS V14.01,2013-06-04 01:13:00,
2013-06-03 21:14:00,79.2,77.0,29.89,SW,215,14.0,16.0,93,0.00,,BKN028,0.04,VWS V14.01,2013-06-04 01:14:00,
2013-06-03 21:15:00,79.2,77.3,29.89,SSW,209,15.0,15.0,94,0.00,,BKN028,0.04,VWS V14.01,2013-06-04 01:15:00,
2013-06-03 21:16:00,79.2,77.0,29.89,SSW,197,12.0,17.0,93,0.00,,BKN028,0.04,VWS V14.01,2013-06-04 01:16:00,
2013-06-03 21:17:00,79.4,77.5,29.88,SSW,196,12.0,12.0,94,0.00,,BKN200,0.04,VWS V14.01,2013-06-04 01:17:00,
2013-06-03 21:18:00,79.4,77.5,29.88,SSW,196,12.0,12.0,94,0.00,,BKN028,0.04,VWS V14.01,2013-06-04 01:18:00,
2013-06-03 21:19:00,79.4,77.5,29.88,SSW,202,13.0,15.0,94,0.00,,BKN028,0.04,VWS V14.01,2013-06-04 01:19:00,
2013-06-03 21:20:00,79.4,77.2,29.88,SSW,194,9.0,13.0,93,0.00,,BKN028,0.04,VWS V14.01,2013-06-04 01:20:00,
2013-06-03 21:21:00,79.4,77.5,29.88,SW,235,14.0,15.0,94,0.00,,BKN028,0.04,VWS V14.01,2013-06-04 01:21:00,
2013-06-03 21:22:00,79.4,77.2,29.88,SSW,209,18.0,18.0,93,0.00,,BKN200,0.04,VWS V14.01,2013-06-04 01:22:00,
2013-06-03 21:23:00,79.4,77.2,29.88,SSW,209,18.0,18.0,93,0.00,,BKN028,0.04,VWS V14.01,2013-06-04 01:23:00,
2013-06-03 21:24:00,79.4,77.2,29.88,SW,222,12.0,18.0,93,0.00,,BKN028,0.04,VWS V14.01,2013-06-04 01:24:00,
2013-06-03 21:25:00,79.4,77.5,29.88,SSW,210,14.0,14.0,94,0.00,,BKN028,0.04,VWS V14.01,2013-06-04 01:25:00,
2013-06-03 21:26:00,79.6,77.7,29.89,SSW,193,15.0,16.0,94,0.00,,BKN028,0.04,VWS V14.01,2013-06-04 01:26:00,
2013-06-03 21:27:00,79.4,77.2,29.89,SSW,194,11.0,19.0,93,0.00,,BKN200,0.04,VWS V14.01,2013-06-04 01:27:00,
2013-06-03 21:28:00,79.4,77.2,29.89,SSW,194,11.0,19.0,93,0.00,,BKN028,0.04,VWS V14.01,2013-06-04 01:28:00,
2013-06-03 21:29:00,79.6,77.4,29.89,SW,225,16.0,17.0,93,0.00,,BKN028,0.04,VWS V14.01,2013-06-04 01:29:00,
2013-06-03 21:30:00,79.6,77.4,29.89,SSW,203,12.0,18.0,93,0.00,,BKN028,0.04,VWS V14.01,2013-06-04 01:30:00,
2013-06-03 21:31:00,79.6,77.4,29.89,SSW,207,14.0,15.0,93,0.00,,BKN028,0.04,VWS V14.01,2013-06-04 01:31:00,
2013-06-03 21:32:00,79.6,77.7,29.89,SSW,196,17.0,17.0,94,0.00,,BKN200,0.04,VWS V14.01,2013-06-04 01:32:00,
2013-06-03 21:33:00,79.6,77.7,29.89,SSW,196,17.0,17.0,94,0.00,,BKN028,0.04,VWS V14.01,2013-06-04 01:33:00,
2013-06-03 21:34:00,79.6,77.7,29.89,SSW,211,11.0,17.0,94,0.00,,BKN028,0.04,VWS V14.01,2013-06-04 01:34:00,
2013-06-03 21:35:00,79.8,77.9,29.89,SW,224,14.0,14.0,94,0.00,,BKN028,0.04,VWS V14.01,2013-06-04 01:35:00,
2013-06-03 21:36:00,79.8,77.9,29.89,SSW,200,12.0,14.0,94,0.00,,BKN028,0.04,VWS V14.01,2013-06-04 01:36:00,
2013-06-03 21:37:00,79.8,77.9,29.89,SSW,203,15.0,16.0,94,0.00,,BKN200,0.04,VWS V14.01,2013-06-04 01:37:00,
2013-06-03 21:38:00,79.8,77.9,29.89,SSW,203,15.0,16.0,94,0.00,,BKN028,0.04,VWS V14.01,2013-06-04 01:38:00,
2013-06-03 21:39:00,79.8,77.9,29.90,SW,225,17.0,18.0,94,0.00,,BKN028,0.04,VWS V14.01,2013-06-04 01:39:00,
2013-06-03 21:40:00,79.6,77.7,29.89,SSW,206,16.0,18.0,94,0.00,,BKN028,0.04,VWS V14.01,2013-06-04 01:40:00,
2013-06-03 21:41:00,79.6,77.7,29.89,SW,226,12.0,17.0,94,0.00,,BKN028,0.04,VWS V14.01,2013-06-04 01:41:00,
2013-06-03 21:42:00,79.6,77.7,29.89,SSW,211,16.0,17.0,94,0.00,,BKN200,0.04,VWS V14.01,2013-06-04 01:42:00,
2013-06-03 21:43:00,79.6,77.7,29.89,SSW,192,12.0,17.0,94,0.00,,BKN028,0.04,VWS V14.01,2013-06-04 01:43:00,
2013-06-03 21:44:00,79.6,77.7,29.89,SSW,212,15.0,15.0,94,0.00,,BKN028,0.04,VWS V14.01,2013-06-04 01:44:00,
2013-06-03 21:45:00,79.6,77.7,29.89,SW,229,16.0,16.0,94,0.00,,BKN028,0.04,VWS V14.01,2013-06-04 01:45:00,
2013-06-03 21:46:00,79.6,77.7,29.89,SSW,205,14.0,16.0,94,0.00,,BKN028,0.04,VWS V14.01,2013-06-04 01:46:00,
2013-06-03 21:47:00,79.6,77.7,29.89,SSW,201,14.0,16.0,94,0.00,,BKN200,0.04,VWS V14.01,2013-06-04 01:47:00,
2013-06-03 21:48:00,79.6,77.7,29.89,SSW,201,14.0,16.0,94,0.00,,BKN028,0.04,VWS V14.01,2013-06-04 01:48:00,
2013-06-03 21:49:00,79.6,77.7,29.89,SW,224,15.0,18.0,94,0.00,,BKN028,0.04,VWS V14.01,2013-06-04 01:49:00,
2013-06-03 21:50:00,79.6,77.7,29.89,South,190,16.0,16.0,94,0.00,,BKN028,0.04,VWS V14.01,2013-06-04 01:50:00,
2013-06-03 21:51:00,79.6,77.7,29.89,SW,234,16.0,16.0,94,0.00,,BKN028,0.04,VWS V14.01,2013-06-04 01:51:00,
2013-06-03 21:52:00,79.6,77.7,29.90,SW,223,11.0,15.0,94,0.00,,BKN200,0.04,VWS V14.01,2013-06-04 01:52:00,
2013-06-03 21:53:00,79.6,77.7,29.90,SW,223,11.0,15.0,94,0.00,,BKN028,0.04,VWS V14.01,2013-06-04 01:53:00,
2013-06-03 21:54:00,79.6,77.7,29.90,SW,234,14.0,14.0,94,0.00,,BKN028,0.04,VWS V14.01,2013-06-04 01:54:00,
2013-06-03 21:55:00,79.6,77.7,29.90,SW,227,12.0,15.0,94,0.00,,BKN028,0.04,VWS V14.01,2013-06-04 01:55:00,
2013-06-03 21:56:00,79.6,77.7,29.90,SSW,205,14.0,15.0,94,0.00,,BKN028,0.04,VWS V14.01,2013-06-04 01:56:00,
2013-06-03 21:57:00,79.8,78.2,29.90,SW,235,15.0,17.0,95,0.00,,BKN200,0.04,VWS V14.01,2013-06-04 01:57:00,
2013-06-03 21:58:00,79.8,78.2,29.90,SW,235,15.0,17.0,95,0.00,,BKN028,0.04,VWS V14.01,2013-06-04 01:58:00,
2013-06-03 21:59:00,79.8,78.2,29.90,SW,216,14.0,17.0,95,0.00,,BKN028,0.04,VWS V14.01,2013-06-04 01:59:00,
2013-06-03 22:00:00,79.8,78.2,29.90,SW,227,14.0,18.0,95,0.00,,BKN028,0.04,VWS V14.01,2013-06-04 02:00:00,
2013-06-03 22:01:00,79.8,78.2,29.90,SW,214,14.0,20.0,95,0.00,,BKN028,0.04,VWS V14.01,2013-06-04 02:01:00,
2013-06-03 22:02:00,79.8,77.9,29.90,SSW,196,16.0,21.0,94,0.00,,BKN200,0.04,VWS V14.01,2013-06-04 02:02:00,
2013-06-03 22:03:00,79.8,77.9,29.90,SSW,196,16.0,21.0,94,0.00,,BKN028,0.04,VWS V14.01,2013-06-04 02:03:00,
2013-06-03 22:04:00,79.8,77.9,29.90,SW,215,17.0,19.0,94,0.00,,BKN028,0.04,VWS V14.01,2013-06-04 02:04:00,
2013-06-03 22:05:00,79.8,77.9,29.90,SSW,201,17.0,19.0,94,0.00,,BKN028,0.04,VWS V14.01,2013-06-04 02:05:00,
2013-06-03 22:06:00,79.8,77.9,29.90,SW,232,20.0,20.0,94,0.00,,BKN028,0.04,VWS V14.01,2013-06-04 02:06:00,
2013-06-03 22:07:00,79.8,77.9,29.90,SSW,208,19.0,19.0,94,0.00,,BKN200,0.04,VWS V14.01,2013-06-04 02:07:00,
2013-06-03 22:08:00,79.8,77.9,29.90,SW,221,12.0,19.0,94,0.00,,BKN028,0.04,VWS V14.01,2013-06-04 02:08:00,
2013-06-03 22:09:00,79.8,77.9,29.90,SSW,206,18.0,20.0,94,0.00,,BKN028,0.04,VWS V14.01,2013-06-04 02:09:00,
2013-06-03 22:10:00,79.8,77.9,29.90,SW,227,16.0,19.0,94,0.00,,BKN028,0.04,VWS V14.01,2013-06-04 02:10:00,
2013-06-03 22:11:00,79.8,77.9,29.90,SW,217,16.0,19.0,94,0.00,,BKN028,0.04,VWS V14.01,2013-06-04 02:11:00,
2013-06-03 22:12:00,79.8,77.9,29.91,SW,217,18.0,20.0,94,0.00,,BKN200,0.04,VWS V14.01,2013-06-04 02:12:00,
2013-06-03 22:13:00,79.8,77.9,29.91,SW,234,16.0,20.0,94,0.00,,BKN028,0.04,VWS V14.01,2013-06-04 02:13:00,
2013-06-03 22:14:00,79.8,77.9,29.91,SW,219,12.0,16.0,94,0.00,,BKN028,0.04,VWS V14.01,2013-06-04 02:14:00,
2013-06-03 22:15:00,79.8,77.9,29.91,SSW,195,14.0,15.0,94,0.00,,BKN028,0.04,VWS V14.01,2013-06-04 02:15:00,
2013-06-03 22:16:00,79.9,78.3,29.91,SW,232,14.0,14.0,95,0.00,,BKN028,0.04,VWS V14.01,2013-06-04 02:16:00,
2013-06-03 22:17:00,79.8,77.9,29.91,WSW,247,11.0,11.0,94,0.00,,BKN200,0.04,VWS V14.01,2013-06-04 02:17:00,
2013-06-03 22:18:00,79.8,77.9,29.91,SSW,205,11.0,11.0,94,0.00,,BKN028,0.04,VWS V14.01,2013-06-04 02:18:00,
2013-06-03 22:19:00,79.8,77.9,29.91,SW,217,13.0,13.0,94,0.00,,BKN028,0.04,VWS V14.01,2013-06-04 02:19:00,
2013-06-03 22:20:00,79.8,78.2,29.91,SW,221,5.0,13.0,95,0.00,,BKN028,0.04,VWS V14.01,2013-06-04 02:20:00,
2013-06-03 22:21:00,79.8,77.9,29.91,SW,227,5.0,10.0,94,0.00,,BKN028,0.04,VWS V14.01,2013-06-04 02:21:00,
2013-06-03 22:22:00,79.8,78.2,29.91,SSW,211,6.0,10.0,95,0.00,,BKN200,0.04,VWS V14.01,2013-06-04 02:22:00,
2013-06-03 22:23:00,79.8,78.2,29.91,WSW,246,5.0,10.0,95,0.00,,BKN028,0.04,VWS V14.01,2013-06-04 02:23:00,
2013-06-03 22:24:00,79.8,78.2,29.91,WSW,248,7.0,9.0,95,0.00,,BKN028,0.04,VWS V14.01,2013-06-04 02:24:00,
2013-06-03 22:25:00,79.8,78.2,29.91,South,184,6.0,10.0,95,0.00,,BKN028,0.04,VWS V14.01,2013-06-04 02:25:00,
2013-06-03 22:26:00,79.8,78.2,29.91,SW,222,15.0,15.0,95,0.00,,BKN028,0.04,VWS V14.01,2013-06-04 02:26:00,
2013-06-03 22:27:00,79.8,78.2,29.91,SSW,211,12.0,14.0,95,0.00,,BKN200,0.04,VWS V14.01,2013-06-04 02:27:00,
2013-06-03 22:28:00,79.8,78.2,29.91,SSW,211,12.0,14.0,95,0.00,,BKN028,0.04,VWS V14.01,2013-06-04 02:28:00,
2013-06-03 22:29:00,79.8,78.2,29.91,SSW,207,19.0,19.0,95,0.00,,BKN028,0.04,VWS V14.01,2013-06-04 02:29:00,
2013-06-03 22:30:00,79.8,78.2,29.91,SSE,163,15.0,20.0,95,0.00,,BKN028,0.04,VWS V14.01,2013-06-04 02:30:00,
2013-06-03 22:31:00,79.8,78.2,29.91,SSW,209,19.0,20.0,95,0.00,,BKN028,0.04,VWS V14.01,2013-06-04 02:31:00,
2013-06-03 22:32:00,79.8,78.2,29.91,SW,227,10.0,20.0,95,0.00,,BKN200,0.04,VWS V14.01,2013-06-04 02:32:00,
2013-06-03 22:33:00,79.8,78.2,29.91,SW,227,10.0,20.0,95,0.00,,BKN028,0.04,VWS V14.01,2013-06-04 02:33:00,
2013-06-03 22:34:00,79.8,78.2,29.91,SW,218,16.0,17.0,95,0.00,,BKN028,0.04,VWS V14.01,2013-06-04 02:34:00,
2013-06-03 22:35:00,79.6,78.1,29.91,SSW,202,15.0,19.0,95,0.00,,BKN028,0.04,VWS V14.01,2013-06-04 02:35:00,
2013-06-03 22:36:00,79.8,78.2,29.91,SW,228,17.0,17.0,95,0.00,,BKN028,0.04,VWS V14.01,2013-06-04 02:36:00,
2013-06-03 22:37:00,79.8,78.2,29.91,SW,216,18.0,18.0,95,0.00,,BKN200,0.04,VWS V14.01,2013-06-04 02:37:00,
2013-06-03 22:38:00,79.8,78.2,29.91,SW,216,18.0,18.0,95,0.00,,BKN028,0.04,VWS V14.01,2013-06-04 02:38:00,
2013-06-03 22:39:00,79.8,78.6,29.91,SSW,207,15.0,18.0,96,0.00,,BKN028,0.04,VWS V14.01,2013-06-04 02:39:00,
2013-06-03 22:40:00,79.8,78.6,29.91,SW,229,17.0,19.0,96,0.00,,BKN028,0.04,VWS V14.01,2013-06-04 02:40:00,
2013-06-03 22:41:00,79.8,78.6,29.91,SSW,210,16.0,17.0,96,0.00,,BKN028,0.04,VWS V14.01,2013-06-04 02:41:00,
2013-06-03 22:42:00,79.6,78.4,29.92,SSW,205,14.0,16.0,96,0.00,,BKN200,0.04,VWS V14.01,2013-06-04 02:42:00,
2013-06-03 22:43:00,79.6,78.4,29.92,SSW,205,14.0,16.0,96,0.00,,BKN028,0.04,VWS V14.01,2013-06-04 02:43:00,
2013-06-03 22:44:00,79.6,78.4,29.92,SSW,202,13.0,16.0,96,0.00,,BKN028,0.04,VWS V14.01,2013-06-04 02:44:00,
2013-06-03 22:45:00,79.6,78.1,29.92,SSW,199,12.0,13.0,95,0.00,,BKN028,0.04,VWS V14.01,2013-06-04 02:45:00,
2013-06-03 22:46:00,79.6,78.1,29.92,SSW,202,15.0,16.0,95,0.00,,BKN028,0.04,VWS V14.01,2013-06-04 02:46:00,
2013-06-03 22:47:00,79.4,77.8,29.92,SSW,198,14.0,14.0,95,0.00,,BKN200,0.04,VWS V14.01,2013-06-04 02:47:00,
2013-06-03 22:48:00,79.4,77.8,29.92,SW,220,9.0,14.0,95,0.00,,BKN028,0.04,VWS V14.01,2013-06-04 02:48:00,
2013-06-03 22:49:00,79.6,78.1,29.92,SW,232,3.0,9.0,95,0.00,,BKN028,0.04,VWS V14.01,2013-06-04 02:49:00,
2013-06-03 22:50:00,79.6,78.1,29.92,West,269,4.0,6.0,95,0.00,,BKN028,0.04,VWS V14.01,2013-06-04 02:50:00,
2013-06-03 22:51:00,79.6,78.1,29.92,SW,219,4.0,5.0,95,0.00,,BKN028,0.04,VWS V14.01,2013-06-04 02:51:00,
2013-06-03 22:52:00,79.6,78.1,29.92,SSW,211,7.0,7.0,95,0.00,,BKN200,0.04,VWS V14.01,2013-06-04 02:52:00,
2013-06-03 22:53:00,79.6,78.1,29.92,SW,229,4.0,7.0,95,0.00,,BKN028,0.04,VWS V14.01,2013-06-04 02:53:00,
2013-06-03 22:54:00,79.6,78.4,29.92,SW,236,5.0,5.0,96,0.00,,BKN028,0.04,VWS V14.01,2013-06-04 02:54:00,
2013-06-03 22:55:00,79.6,78.4,29.92,WSW,240,5.0,7.0,96,0.00,,BKN028,0.04,VWS V14.01,2013-06-04 02:55:00,
2013-06-03 22:56:00,79.6,78.4,29.92,WSW,252,3.0,11.0,96,0.00,,BKN028,0.04,VWS V14.01,2013-06-04 02:56:00,
2013-06-03 22:57:00,79.6,78.4,29.92,SW,233,6.0,6.0,96,0.00,,BKN200,0.04,VWS V14.01,2013-06-04 02:57:00,
2013-06-03 22:58:00,79.6,78.4,29.92,WSW,242,7.0,7.0,96,0.00,,BKN028,0.04,VWS V14.01,2013-06-04 02:58:00,
2013-06-03 22:59:00,79.4,77.8,29.92,WSW,250,6.0,10.0,95,0.00,,BKN028,0.04,VWS V14.01,2013-06-04 02:59:00,
2013-06-03 23:00:00,79.4,77.8,29.92,WSW,255,10.0,11.0,95,0.00,,BKN028,0.04,VWS V14.01,2013-06-04 03:00:00,
2013-06-03 23:01:00,79.2,77.7,29.92,WSW,254,11.0,11.0,95,0.00,,BKN028,0.04,VWS V14.01,2013-06-04 03:01:00,
2013-06-03 23:02:00,79.0,77.4,29.92,SSW,205,6.0,10.0,95,0.00,,BKN200,0.04,VWS V14.01,2013-06-04 03:02:00,
2013-06-03 23:03:00,79.0,77.4,29.92,SSW,205,6.0,10.0,95,0.00,,BKN028,0.04,VWS V14.01,2013-06-04 03:03:00,
2013-06-03 23:04:00,79.0,77.4,29.92,West,265,5.0,7.0,95,0.00,,BKN028,0.04,VWS V14.01,2013-06-04 03:04:00,
2013-06-03 23:05:00,79.0,77.4,29.93,SW,236,10.0,10.0,95,0.00,,BKN028,0.04,VWS V14.01,2013-06-04 03:05:00,
2013-06-03 23:06:00,79.0,77.4,29.93,SW,217,3.0,10.0,95,0.00,,BKN028,0.04,VWS V14.01,2013-06-04 03:06:00,
2013-06-03 23:07:00,79.0,77.4,29.93,SW,234,6.0,6.0,95,0.00,,BKN200,0.04,VWS V14.01,2013-06-04 03:07:00,
2013-06-03 23:08:00,79.0,77.4,29.93,SW,234,6.0,6.0,95,0.00,,BKN028,0.04,VWS V14.01,2013-06-04 03:08:00,
2013-06-03 23:09:00,79.0,77.4,29.93,SW,224,4.0,9.0,95,0.00,,BKN028,0.04,VWS V14.01,2013-06-04 03:09:00,
2013-06-03 23:10:00,79.0,77.4,29.93,SSW,212,9.0,9.0,95,0.00,,BKN028,0.04,VWS V14.01,2013-06-04 03:10:00,
2013-06-03 23:11:00,79.2,77.7,29.92,SW,232,7.0,11.0,95,0.00,,BKN028,0.04,VWS V14.01,2013-06-04 03:11:00,
2013-06-03 23:12:00,79.2,77.7,29.93,SSW,201,11.0,11.0,95,0.00,,BKN200,0.04,VWS V14.01,2013-06-04 03:12:00,
2013-06-03 23:13:00,79.2,77.7,29.93,SSW,201,11.0,11.0,95,0.00,,BKN028,0.04,VWS V14.01,2013-06-04 03:13:00,
2013-06-03 23:14:00,79.2,77.7,29.92,SSW,200,6.0,11.0,95,0.00,,BKN028,0.04,VWS V14.01,2013-06-04 03:14:00,
2013-06-03 23:15:00,79.4,77.8,29.93,South,185,5.0,6.0,95,0.00,,BKN028,0.04,VWS V14.01,2013-06-04 03:15:00,
2013-06-03 23:16:00,79.4,77.8,29.92,SSW,208,5.0,7.0,95,0.00,,BKN028,0.04,VWS V14.01,2013-06-04 03:16:00,
2013-06-03 23:17:00,79.6,78.4,29.93,SSW,197,10.0,10.0,96,0.00,,BKN200,0.04,VWS V14.01,2013-06-04 03:17:00,
2013-06-03 23:18:00,79.6,78.4,29.93,SSW,199,5.0,10.0,96,0.00,,BKN028,0.04,VWS V14.01,2013-06-04 03:18:00,
2013-06-03 23:19:00,79.8,78.6,29.93,SSW,193,7.0,11.0,96,0.00,,BKN028,0.04,VWS V14.01,2013-06-04 03:19:00,
2013-06-03 23:20:00,79.8,78.6,29.93,SW,226,5.0,7.0,96,0.00,,BKN028,0.04,VWS V14.01,2013-06-04 03:20:00,
2013-06-03 23:21:00,79.8,78.2,29.93,SW,222,2.0,7.0,95,0.00,,BKN028,0.04,VWS V14.01,2013-06-04 03:21:00,
2013-06-03 23:22:00,79.6,78.1,29.93,WSW,240,3.0,4.0,95,0.00,,BKN200,0.04,VWS V14.01,2013-06-04 03:22:00,
2013-06-03 23:23:00,79.6,78.4,29.93,WSW,240,4.0,4.0,96,0.00,,BKN028,0.04,VWS V14.01,2013-06-04 03:23:00,
2013-06-03 23:24:00,79.8,78.6,29.93,WSW,237,4.0,5.0,96,0.00,,BKN028,0.04,VWS V14.01,2013-06-04 03:24:00,
2013-06-03 23:26:00,79.8,78.6,29.93,SSW,202,11.0,12.0,96,0.00,,BKN028,0.04,VWS V14.01,2013-06-04 03:26:00,
2013-06-03 23:27:00,79.8,78.6,29.93,SW,220,7.0,13.0,96,0.00,,BKN200,0.04,VWS V14.01,2013-06-04 03:27:00,
2013-06-03 23:28:00,79.8,78.6,29.93,SW,226,7.0,13.0,96,0.00,,BKN028,0.04,VWS V14.01,2013-06-04 03:28:00,
2013-06-03 23:29:00,79.8,78.6,29.93,SSW,204,11.0,12.0,96,0.00,,BKN028,0.04,VWS V14.01,2013-06-04 03:29:00,
2013-06-03 23:30:00,79.8,78.6,29.93,SSW,205,10.0,12.0,96,0.00,,BKN028,0.04,VWS V14.01,2013-06-04 03:30:00,
2013-06-03 23:31:00,79.8,78.6,29.93,SW,224,6.0,10.0,96,0.00,,BKN028,0.04,VWS V14.01,2013-06-04 03:31:00,
2013-06-03 23:32:00,79.8,78.6,29.94,WSW,255,5.0,5.0,96,0.00,,BKN200,0.04,VWS V14.01,2013-06-04 03:32:00,
2013-06-03 23:33:00,79.8,78.6,29.94,WSW,253,4.0,5.0,96,0.00,,BKN028,0.04,VWS V14.01,2013-06-04 03:33:00,
2013-06-03 23:34:00,79.8,78.6,29.94,West,262,2.0,7.0,96,0.00,,BKN028,0.04,VWS V14.01,2013-06-04 03:34:00,
2013-06-03 23:35:00,79.8,78.6,29.94,SW,216,4.0,6.0,96,0.00,,BKN028,0.04,VWS V14.01,2013-06-04 03:35:00,
2013-06-03 23:36:00,79.6,78.4,29.94,WSW,239,4.0,9.0,96,0.00,,BKN028,0.04,VWS V14.01,2013-06-04 03:36:00,
2013-06-03 23:37:00,79.6,78.4,29.94,SW,234,4.0,5.0,96,0.00,,BKN200,0.04,VWS V14.01,2013-06-04 03:37:00,
2013-06-03 23:38:00,79.6,78.4,29.94,SSW,201,6.0,6.0,96,0.00,,BKN028,0.04,VWS V14.01,2013-06-04 03:38:00,
2013-06-03 23:39:00,79.6,78.4,29.94,WSW,256,3.0,7.0,96,0.00,,BKN028,0.04,VWS V14.01,2013-06-04 03:39:00,
2013-06-03 23:40:00,79.6,78.4,29.94,SW,229,11.0,11.0,96,0.00,,BKN028,0.04,VWS V14.01,2013-06-04 03:40:00,
2013-06-03 23:41:00,79.6,78.4,29.94,SSW,196,5.0,11.0,96,0.00,,BKN028,0.04,VWS V14.01,2013-06-04 03:41:00,
2013-06-03 23:42:00,79.6,78.4,29.94,SSW,212,6.0,7.0,96,0.00,,BKN200,0.04,VWS V14.01,2013-06-04 03:42:00,
2013-06-03 23:43:00,79.6,78.4,29.94,SSW,213,7.0,7.0,96,0.00,,BKN028,0.04,VWS V14.01,2013-06-04 03:43:00,
2013-06-03 23:44:00,79.8,78.9,29.94,SSW,211,5.0,7.0,97,0.00,,BKN028,0.04,VWS V14.01,2013-06-04 03:44:00,
2013-06-03 23:45:00,79.8,78.9,29.94,WSW,248,5.0,9.0,97,0.00,,BKN028,0.04,VWS V14.01,2013-06-04 03:45:00,
2013-06-03 23:46:00,79.8,78.9,29.94,SSW,210,5.0,7.0,97,0.00,,BKN028,0.04,VWS V14.01,2013-06-04 03:46:00,
2013-06-03 23:47:00,79.8,78.9,29.94,SSW,207,5.0,9.0,97,0.00,,BKN200,0.04,VWS V14.01,2013-06-04 03:47:00,
2013-06-03 23:48:00,79.8,78.9,29.94,WSW,244,3.0,9.0,97,0.00,,BKN028,0.04,VWS V14.01,2013-06-04 03:48:00,
2013-06-03 23:49:00,79.8,78.9,29.94,SW,220,4.0,5.0,97,0.00,,BKN028,0.04,VWS V14.01,2013-06-04 03:49:00,
2013-06-03 23:50:00,79.8,78.9,29.94,SW,220,4.0,5.0,97,0.00,,BKN028,0.04,VWS V14.01,2013-06-04 03:50:00,
2013-06-03 23:51:00,79.8,78.9,29.94,WSW,244,4.0,4.0,97,0.00,,BKN028,0.04,VWS V14.01,2013-06-04 03:51:00,
2013-06-03 23:52:00,79.6,78.7,29.94,SW,215,9.0,11.0,97,0.00,,BKN200,0.04,VWS V14.01,2013-06-04 03:52:00,
2013-06-03 23:53:00,79.6,78.7,29.94,SSW,210,7.0,11.0,97,0.00,,BKN028,0.04,VWS V14.01,2013-06-04 03:53:00,
2013-06-03 23:54:00,79.6,78.7,29.94,SSW,202,9.0,11.0,97,0.00,,BKN028,0.04,VWS V14.01,2013-06-04 03:54:00,
2013-06-03 23:55:00,79.6,78.7,29.94,SSW,204,6.0,9.0,97,0.00,,BKN028,0.04,VWS V14.01,2013-06-04 03:55:00,
2013-06-03 23:56:00,79.6,78.7,29.94,SW,220,9.0,9.0,97,0.00,,BKN028,0.04,VWS V14.01,2013-06-04 03:56:00,
2013-06-03 23:57:00,79.6,78.7,29.94,South,187,6.0,9.0,97,0.00,,BKN200,0.04,VWS V14.01,2013-06-04 03:57:00,
2013-06-03 23:58:00,79.6,78.7,29.94,SSW,213,6.0,9.0,97,0.00,,BKN028,0.04,VWS V14.01,2013-06-04 03:58:00,
2013-06-03 23:59:00,79.6,78.7,29.94,SSW,198,4.0,9.0,97,0.00,,BKN028,0.04,VWS V14.01,2013-06-04 03:59:00,